<?xml version="1.0" encoding="UTF-8" standalone="no" ?>
<gpx xmlns="http://www.topografix.com/GPX/1/1" xmlns:xsi="http://www.w3.org/2001/XMLSchema-instance" xsi:schemaLocation="http://www.topografix.com/GPX/1/1 http://www.topografix.com/GPX/1/1/gpx.xsd" version="1.1" creator="VisuGPX - https://www.visugpx.com">
  <metadata>
    <name>VTT - Tour du Pic de l\'Ours</name>
    <desc><![CDATA[Tour très sympa, roulant à la montée, beau single à la descente, superbes vues, etc...]]></desc>
  </metadata>
  <trk>
    <name><![CDATA[VTT - Tour du Pic de l\'Ours_1]]></name>
    <trkseg>
      <trkpt lat="43.52439" lon="6.91067">
        <ele>16.4797363</ele>
        <time>2012-05-07T11:42:15+02:00</time>
      </trkpt>
      <trkpt lat="43.52436" lon="6.91059">
        <ele>13.1151123</ele>
        <time>2012-05-07T11:42:21+02:00</time>
      </trkpt>
      <trkpt lat="43.52434" lon="6.91055">
        <ele>12.6343994</ele>
        <time>2012-05-07T11:42:22+02:00</time>
      </trkpt>
      <trkpt lat="43.52414" lon="6.91041">
        <ele>9.75061035</ele>
        <time>2012-05-07T11:42:27+02:00</time>
      </trkpt>
      <trkpt lat="43.524" lon="6.91035">
        <ele>8.78918457</ele>
        <time>2012-05-07T11:42:30+02:00</time>
      </trkpt>
      <trkpt lat="43.52377" lon="6.91017">
        <ele>7.34716797</ele>
        <time>2012-05-07T11:42:36+02:00</time>
      </trkpt>
      <trkpt lat="43.52363" lon="6.91004">
        <ele>6.86645508</ele>
        <time>2012-05-07T11:42:44+02:00</time>
      </trkpt>
      <trkpt lat="43.52352" lon="6.90987">
        <ele>6.38586426</ele>
        <time>2012-05-07T11:42:49+02:00</time>
      </trkpt>
      <trkpt lat="43.52335" lon="6.90968">
        <ele>6.86645508</ele>
        <time>2012-05-07T11:42:56+02:00</time>
      </trkpt>
      <trkpt lat="43.52315" lon="6.90949">
        <ele>6.38586426</ele>
        <time>2012-05-07T11:43:04+02:00</time>
      </trkpt>
      <trkpt lat="43.52291" lon="6.90934">
        <ele>5.90527344</ele>
        <time>2012-05-07T11:43:12+02:00</time>
      </trkpt>
      <trkpt lat="43.52276" lon="6.90928">
        <ele>5.90527344</ele>
        <time>2012-05-07T11:43:17+02:00</time>
      </trkpt>
      <trkpt lat="43.52258" lon="6.90929">
        <ele>6.38586426</ele>
        <time>2012-05-07T11:43:23+02:00</time>
      </trkpt>
      <trkpt lat="43.5224" lon="6.90929">
        <ele>5.90527344</ele>
        <time>2012-05-07T11:43:30+02:00</time>
      </trkpt>
      <trkpt lat="43.52215" lon="6.90932">
        <ele>5.42456055</ele>
        <time>2012-05-07T11:43:37+02:00</time>
      </trkpt>
      <trkpt lat="43.52195" lon="6.90935">
        <ele>6.86645508</ele>
        <time>2012-05-07T11:43:42+02:00</time>
      </trkpt>
      <trkpt lat="43.52175" lon="6.9093">
        <ele>7.82788086</ele>
        <time>2012-05-07T11:43:47+02:00</time>
      </trkpt>
      <trkpt lat="43.52151" lon="6.90921">
        <ele>6.38586426</ele>
        <time>2012-05-07T11:43:54+02:00</time>
      </trkpt>
      <trkpt lat="43.52135" lon="6.90921">
        <ele>5.90527344</ele>
        <time>2012-05-07T11:43:59+02:00</time>
      </trkpt>
      <trkpt lat="43.52114" lon="6.90922">
        <ele>7.82788086</ele>
        <time>2012-05-07T11:44:05+02:00</time>
      </trkpt>
      <trkpt lat="43.52097" lon="6.90921">
        <ele>7.34716797</ele>
        <time>2012-05-07T11:44:10+02:00</time>
      </trkpt>
      <trkpt lat="43.52075" lon="6.90928">
        <ele>6.38586426</ele>
        <time>2012-05-07T11:44:17+02:00</time>
      </trkpt>
      <trkpt lat="43.52056" lon="6.90932">
        <ele>5.90527344</ele>
        <time>2012-05-07T11:44:23+02:00</time>
      </trkpt>
      <trkpt lat="43.52036" lon="6.90935">
        <ele>5.42456055</ele>
        <time>2012-05-07T11:44:29+02:00</time>
      </trkpt>
      <trkpt lat="43.52012" lon="6.90936">
        <ele>4.46325684</ele>
        <time>2012-05-07T11:44:36+02:00</time>
      </trkpt>
      <trkpt lat="43.51992" lon="6.90932">
        <ele>5.42456055</ele>
        <time>2012-05-07T11:44:42+02:00</time>
      </trkpt>
      <trkpt lat="43.51979" lon="6.9092">
        <ele>5.90527344</ele>
        <time>2012-05-07T11:44:47+02:00</time>
      </trkpt>
      <trkpt lat="43.51962" lon="6.90902">
        <ele>6.38586426</ele>
        <time>2012-05-07T11:44:53+02:00</time>
      </trkpt>
      <trkpt lat="43.51948" lon="6.90886">
        <ele>6.38586426</ele>
        <time>2012-05-07T11:44:58+02:00</time>
      </trkpt>
      <trkpt lat="43.51932" lon="6.90862">
        <ele>6.38586426</ele>
        <time>2012-05-07T11:45:05+02:00</time>
      </trkpt>
      <trkpt lat="43.51917" lon="6.90847">
        <ele>6.86645508</ele>
        <time>2012-05-07T11:45:12+02:00</time>
      </trkpt>
      <trkpt lat="43.51905" lon="6.90834">
        <ele>7.82788086</ele>
        <time>2012-05-07T11:45:19+02:00</time>
      </trkpt>
      <trkpt lat="43.51892" lon="6.90826">
        <ele>8.78918457</ele>
        <time>2012-05-07T11:45:24+02:00</time>
      </trkpt>
      <trkpt lat="43.51876" lon="6.90815">
        <ele>9.26989746</ele>
        <time>2012-05-07T11:45:29+02:00</time>
      </trkpt>
      <trkpt lat="43.51859" lon="6.90794">
        <ele>10.2312012</ele>
        <time>2012-05-07T11:45:36+02:00</time>
      </trkpt>
      <trkpt lat="43.51837" lon="6.90773">
        <ele>11.6732178</ele>
        <time>2012-05-07T11:45:44+02:00</time>
      </trkpt>
      <trkpt lat="43.51815" lon="6.90763">
        <ele>13.1151123</ele>
        <time>2012-05-07T11:45:51+02:00</time>
      </trkpt>
      <trkpt lat="43.51798" lon="6.90759">
        <ele>15.9990234</ele>
        <time>2012-05-07T11:45:56+02:00</time>
      </trkpt>
      <trkpt lat="43.51785" lon="6.90757">
        <ele>18.8830566</ele>
        <time>2012-05-07T11:46:00+02:00</time>
      </trkpt>
      <trkpt lat="43.51768" lon="6.9076">
        <ele>21.286377</ele>
        <time>2012-05-07T11:46:05+02:00</time>
      </trkpt>
      <trkpt lat="43.51753" lon="6.9077">
        <ele>23.6895752</ele>
        <time>2012-05-07T11:46:11+02:00</time>
      </trkpt>
      <trkpt lat="43.51744" lon="6.90784">
        <ele>24.1702881</ele>
        <time>2012-05-07T11:46:17+02:00</time>
      </trkpt>
      <trkpt lat="43.5174" lon="6.90798">
        <ele>23.2089844</ele>
        <time>2012-05-07T11:46:22+02:00</time>
      </trkpt>
      <trkpt lat="43.51731" lon="6.90811">
        <ele>25.1317139</ele>
        <time>2012-05-07T11:46:27+02:00</time>
      </trkpt>
      <trkpt lat="43.51714" lon="6.9081">
        <ele>23.6895752</ele>
        <time>2012-05-07T11:46:33+02:00</time>
      </trkpt>
      <trkpt lat="43.51701" lon="6.90798">
        <ele>24.1702881</ele>
        <time>2012-05-07T11:46:38+02:00</time>
      </trkpt>
      <trkpt lat="43.51685" lon="6.90779">
        <ele>23.2089844</ele>
        <time>2012-05-07T11:46:44+02:00</time>
      </trkpt>
      <trkpt lat="43.51662" lon="6.90763">
        <ele>22.7282715</ele>
        <time>2012-05-07T11:46:51+02:00</time>
      </trkpt>
      <trkpt lat="43.51643" lon="6.9075">
        <ele>21.7669678</ele>
        <time>2012-05-07T11:46:57+02:00</time>
      </trkpt>
      <trkpt lat="43.51623" lon="6.90741">
        <ele>21.286377</ele>
        <time>2012-05-07T11:47:02+02:00</time>
      </trkpt>
      <trkpt lat="43.51598" lon="6.90725">
        <ele>21.7669678</ele>
        <time>2012-05-07T11:47:09+02:00</time>
      </trkpt>
      <trkpt lat="43.51577" lon="6.90708">
        <ele>21.7669678</ele>
        <time>2012-05-07T11:47:15+02:00</time>
      </trkpt>
      <trkpt lat="43.51559" lon="6.90691">
        <ele>21.7669678</ele>
        <time>2012-05-07T11:47:21+02:00</time>
      </trkpt>
      <trkpt lat="43.51539" lon="6.90684">
        <ele>22.2475586</ele>
        <time>2012-05-07T11:47:26+02:00</time>
      </trkpt>
      <trkpt lat="43.51516" lon="6.90685">
        <ele>22.7282715</ele>
        <time>2012-05-07T11:47:32+02:00</time>
      </trkpt>
      <trkpt lat="43.51489" lon="6.90689">
        <ele>26.5736084</ele>
        <time>2012-05-07T11:47:39+02:00</time>
      </trkpt>
      <trkpt lat="43.51466" lon="6.90699">
        <ele>31.380127</ele>
        <time>2012-05-07T11:47:46+02:00</time>
      </trkpt>
      <trkpt lat="43.51448" lon="6.90712">
        <ele>35.2254639</ele>
        <time>2012-05-07T11:47:52+02:00</time>
      </trkpt>
      <trkpt lat="43.5143" lon="6.90726">
        <ele>36.6674805</ele>
        <time>2012-05-07T11:47:57+02:00</time>
      </trkpt>
      <trkpt lat="43.51405" lon="6.90739">
        <ele>37.1480713</ele>
        <time>2012-05-07T11:48:04+02:00</time>
      </trkpt>
      <trkpt lat="43.51387" lon="6.90746">
        <ele>34.744873</ele>
        <time>2012-05-07T11:48:09+02:00</time>
      </trkpt>
      <trkpt lat="43.51363" lon="6.90746">
        <ele>32.3415527</ele>
        <time>2012-05-07T11:48:15+02:00</time>
      </trkpt>
      <trkpt lat="43.51346" lon="6.90745">
        <ele>31.380127</ele>
        <time>2012-05-07T11:48:20+02:00</time>
      </trkpt>
      <trkpt lat="43.51333" lon="6.9074">
        <ele>31.8607178</ele>
        <time>2012-05-07T11:48:25+02:00</time>
      </trkpt>
      <trkpt lat="43.51315" lon="6.90739">
        <ele>32.8222656</ele>
        <time>2012-05-07T11:48:31+02:00</time>
      </trkpt>
      <trkpt lat="43.51304" lon="6.90736">
        <ele>33.7834473</ele>
        <time>2012-05-07T11:48:36+02:00</time>
      </trkpt>
      <trkpt lat="43.51289" lon="6.90738">
        <ele>34.2641602</ele>
        <time>2012-05-07T11:48:42+02:00</time>
      </trkpt>
      <trkpt lat="43.51283" lon="6.90739">
        <ele>34.2641602</ele>
        <time>2012-05-07T11:48:44+02:00</time>
      </trkpt>
      <trkpt lat="43.51276" lon="6.90748">
        <ele>33.7834473</ele>
        <time>2012-05-07T11:48:48+02:00</time>
      </trkpt>
      <trkpt lat="43.51265" lon="6.90752">
        <ele>32.8222656</ele>
        <time>2012-05-07T11:48:51+02:00</time>
      </trkpt>
      <trkpt lat="43.51245" lon="6.90757">
        <ele>33.7834473</ele>
        <time>2012-05-07T11:48:57+02:00</time>
      </trkpt>
      <trkpt lat="43.51238" lon="6.9076">
        <ele>33.3028564</ele>
        <time>2012-05-07T11:49:01+02:00</time>
      </trkpt>
      <trkpt lat="43.51227" lon="6.90758">
        <ele>33.7834473</ele>
        <time>2012-05-07T11:49:06+02:00</time>
      </trkpt>
      <trkpt lat="43.51217" lon="6.90755">
        <ele>35.2254639</ele>
        <time>2012-05-07T11:49:11+02:00</time>
      </trkpt>
      <trkpt lat="43.51202" lon="6.9075">
        <ele>37.6286621</ele>
        <time>2012-05-07T11:49:19+02:00</time>
      </trkpt>
      <trkpt lat="43.51196" lon="6.90745">
        <ele>39.0706787</ele>
        <time>2012-05-07T11:49:25+02:00</time>
      </trkpt>
      <trkpt lat="43.51196" lon="6.90745">
        <ele>40.0321045</ele>
        <time>2012-05-07T11:49:30+02:00</time>
      </trkpt>
      <trkpt lat="43.51196" lon="6.90745">
        <ele>40.5128174</ele>
        <time>2012-05-07T11:49:39+02:00</time>
      </trkpt>
      <trkpt lat="43.51195" lon="6.90747">
        <ele>41.9547119</ele>
        <time>2012-05-07T11:50:23+02:00</time>
      </trkpt>
      <trkpt lat="43.51195" lon="6.90745">
        <ele>42.4354248</ele>
        <time>2012-05-07T11:50:29+02:00</time>
      </trkpt>
      <trkpt lat="43.51197" lon="6.90744">
        <ele>43.3966064</ele>
        <time>2012-05-07T11:50:35+02:00</time>
      </trkpt>
      <trkpt lat="43.51215" lon="6.90757">
        <ele>40.5128174</ele>
        <time>2012-05-07T11:50:40+02:00</time>
      </trkpt>
      <trkpt lat="43.51235" lon="6.90762">
        <ele>37.1480713</ele>
        <time>2012-05-07T11:50:45+02:00</time>
      </trkpt>
      <trkpt lat="43.51246" lon="6.90757">
        <ele>36.6674805</ele>
        <time>2012-05-07T11:50:49+02:00</time>
      </trkpt>
      <trkpt lat="43.51265" lon="6.90753">
        <ele>36.6674805</ele>
        <time>2012-05-07T11:50:55+02:00</time>
      </trkpt>
      <trkpt lat="43.51271" lon="6.9075">
        <ele>37.1480713</ele>
        <time>2012-05-07T11:50:59+02:00</time>
      </trkpt>
      <trkpt lat="43.51272" lon="6.9075">
        <ele>37.1480713</ele>
        <time>2012-05-07T11:51:00+02:00</time>
      </trkpt>
      <trkpt lat="43.51276" lon="6.90753">
        <ele>37.1480713</ele>
        <time>2012-05-07T11:51:04+02:00</time>
      </trkpt>
      <trkpt lat="43.51284" lon="6.90762">
        <ele>38.109375</ele>
        <time>2012-05-07T11:51:09+02:00</time>
      </trkpt>
      <trkpt lat="43.51285" lon="6.90762">
        <ele>38.109375</ele>
        <time>2012-05-07T11:51:10+02:00</time>
      </trkpt>
      <trkpt lat="43.51285" lon="6.90768">
        <ele>39.5512695</ele>
        <time>2012-05-07T11:51:14+02:00</time>
      </trkpt>
      <trkpt lat="43.51281" lon="6.9077">
        <ele>40.0321045</ele>
        <time>2012-05-07T11:51:17+02:00</time>
      </trkpt>
      <trkpt lat="43.51272" lon="6.90783">
        <ele>41.9547119</ele>
        <time>2012-05-07T11:51:25+02:00</time>
      </trkpt>
      <trkpt lat="43.51266" lon="6.90795">
        <ele>43.3966064</ele>
        <time>2012-05-07T11:51:32+02:00</time>
      </trkpt>
      <trkpt lat="43.51263" lon="6.90809">
        <ele>44.3580322</ele>
        <time>2012-05-07T11:51:39+02:00</time>
      </trkpt>
      <trkpt lat="43.51257" lon="6.90821">
        <ele>44.3580322</ele>
        <time>2012-05-07T11:51:45+02:00</time>
      </trkpt>
      <trkpt lat="43.51254" lon="6.9084">
        <ele>43.8773193</ele>
        <time>2012-05-07T11:51:49+02:00</time>
      </trkpt>
      <trkpt lat="43.51246" lon="6.90856">
        <ele>44.3580322</ele>
        <time>2012-05-07T11:51:54+02:00</time>
      </trkpt>
      <trkpt lat="43.51237" lon="6.90857">
        <ele>44.3580322</ele>
        <time>2012-05-07T11:51:57+02:00</time>
      </trkpt>
      <trkpt lat="43.51218" lon="6.90858">
        <ele>45.3192139</ele>
        <time>2012-05-07T11:52:04+02:00</time>
      </trkpt>
      <trkpt lat="43.51198" lon="6.90867">
        <ele>45.7999268</ele>
        <time>2012-05-07T11:52:11+02:00</time>
      </trkpt>
      <trkpt lat="43.51177" lon="6.90883">
        <ele>45.7999268</ele>
        <time>2012-05-07T11:52:19+02:00</time>
      </trkpt>
      <trkpt lat="43.51159" lon="6.90896">
        <ele>46.7612305</ele>
        <time>2012-05-07T11:52:26+02:00</time>
      </trkpt>
      <trkpt lat="43.51145" lon="6.90906">
        <ele>46.7612305</ele>
        <time>2012-05-07T11:52:32+02:00</time>
      </trkpt>
      <trkpt lat="43.5112" lon="6.90926">
        <ele>48.2033691</ele>
        <time>2012-05-07T11:52:41+02:00</time>
      </trkpt>
      <trkpt lat="43.51103" lon="6.90951">
        <ele>48.2033691</ele>
        <time>2012-05-07T11:52:48+02:00</time>
      </trkpt>
      <trkpt lat="43.51099" lon="6.90966">
        <ele>48.2033691</ele>
        <time>2012-05-07T11:52:51+02:00</time>
      </trkpt>
      <trkpt lat="43.51086" lon="6.90976">
        <ele>48.2033691</ele>
        <time>2012-05-07T11:52:55+02:00</time>
      </trkpt>
      <trkpt lat="43.51083" lon="6.90975">
        <ele>48.68396</ele>
        <time>2012-05-07T11:52:56+02:00</time>
      </trkpt>
      <trkpt lat="43.51067" lon="6.90974">
        <ele>49.6452637</ele>
        <time>2012-05-07T11:53:02+02:00</time>
      </trkpt>
      <trkpt lat="43.51052" lon="6.90981">
        <ele>51.0871582</ele>
        <time>2012-05-07T11:53:07+02:00</time>
      </trkpt>
      <trkpt lat="43.51028" lon="6.91002">
        <ele>54.4517822</ele>
        <time>2012-05-07T11:53:16+02:00</time>
      </trkpt>
      <trkpt lat="43.51022" lon="6.91018">
        <ele>54.932373</ele>
        <time>2012-05-07T11:53:21+02:00</time>
      </trkpt>
      <trkpt lat="43.51016" lon="6.91038">
        <ele>53.0097656</ele>
        <time>2012-05-07T11:53:26+02:00</time>
      </trkpt>
      <trkpt lat="43.51009" lon="6.91061">
        <ele>51.5678711</ele>
        <time>2012-05-07T11:53:30+02:00</time>
      </trkpt>
      <trkpt lat="43.51006" lon="6.91065">
        <ele>51.5678711</ele>
        <time>2012-05-07T11:53:31+02:00</time>
      </trkpt>
      <trkpt lat="43.50995" lon="6.91062">
        <ele>51.5678711</ele>
        <time>2012-05-07T11:53:35+02:00</time>
      </trkpt>
      <trkpt lat="43.50986" lon="6.91063">
        <ele>52.5291748</ele>
        <time>2012-05-07T11:53:38+02:00</time>
      </trkpt>
      <trkpt lat="43.50966" lon="6.91073">
        <ele>54.932373</ele>
        <time>2012-05-07T11:53:45+02:00</time>
      </trkpt>
      <trkpt lat="43.50948" lon="6.91072">
        <ele>56.3745117</ele>
        <time>2012-05-07T11:53:51+02:00</time>
      </trkpt>
      <trkpt lat="43.50938" lon="6.9107">
        <ele>57.8165283</ele>
        <time>2012-05-07T11:53:55+02:00</time>
      </trkpt>
      <trkpt lat="43.50921" lon="6.91068">
        <ele>58.2971191</ele>
        <time>2012-05-07T11:54:01+02:00</time>
      </trkpt>
      <trkpt lat="43.50902" lon="6.91067">
        <ele>58.2971191</ele>
        <time>2012-05-07T11:54:07+02:00</time>
      </trkpt>
      <trkpt lat="43.50886" lon="6.91064">
        <ele>58.2971191</ele>
        <time>2012-05-07T11:54:11+02:00</time>
      </trkpt>
      <trkpt lat="43.50866" lon="6.91069">
        <ele>57.8165283</ele>
        <time>2012-05-07T11:54:17+02:00</time>
      </trkpt>
      <trkpt lat="43.50846" lon="6.91074">
        <ele>58.77771</ele>
        <time>2012-05-07T11:54:23+02:00</time>
      </trkpt>
      <trkpt lat="43.50829" lon="6.91072">
        <ele>59.7391357</ele>
        <time>2012-05-07T11:54:29+02:00</time>
      </trkpt>
      <trkpt lat="43.50812" lon="6.91077">
        <ele>61.1810303</ele>
        <time>2012-05-07T11:54:35+02:00</time>
      </trkpt>
      <trkpt lat="43.50804" lon="6.9108">
        <ele>61.1810303</ele>
        <time>2012-05-07T11:54:38+02:00</time>
      </trkpt>
      <trkpt lat="43.50792" lon="6.91084">
        <ele>62.6229248</ele>
        <time>2012-05-07T11:54:43+02:00</time>
      </trkpt>
      <trkpt lat="43.50771" lon="6.91091">
        <ele>63.1036377</ele>
        <time>2012-05-07T11:54:50+02:00</time>
      </trkpt>
      <trkpt lat="43.50751" lon="6.91096">
        <ele>64.0650635</ele>
        <time>2012-05-07T11:54:57+02:00</time>
      </trkpt>
      <trkpt lat="43.50732" lon="6.91105">
        <ele>64.0650635</ele>
        <time>2012-05-07T11:55:04+02:00</time>
      </trkpt>
      <trkpt lat="43.50711" lon="6.9111">
        <ele>65.5070801</ele>
        <time>2012-05-07T11:55:12+02:00</time>
      </trkpt>
      <trkpt lat="43.50691" lon="6.9111">
        <ele>67.9102783</ele>
        <time>2012-05-07T11:55:20+02:00</time>
      </trkpt>
      <trkpt lat="43.50674" lon="6.9111">
        <ele>70.3134766</ele>
        <time>2012-05-07T11:55:26+02:00</time>
      </trkpt>
      <trkpt lat="43.50658" lon="6.91113">
        <ele>71.7554932</ele>
        <time>2012-05-07T11:55:32+02:00</time>
      </trkpt>
      <trkpt lat="43.50643" lon="6.9111">
        <ele>72.2362061</ele>
        <time>2012-05-07T11:55:38+02:00</time>
      </trkpt>
      <trkpt lat="43.50624" lon="6.91111">
        <ele>72.2362061</ele>
        <time>2012-05-07T11:55:45+02:00</time>
      </trkpt>
      <trkpt lat="43.50607" lon="6.91113">
        <ele>71.7554932</ele>
        <time>2012-05-07T11:55:51+02:00</time>
      </trkpt>
      <trkpt lat="43.50589" lon="6.91114">
        <ele>72.7169189</ele>
        <time>2012-05-07T11:55:58+02:00</time>
      </trkpt>
      <trkpt lat="43.50571" lon="6.91116">
        <ele>74.1588135</ele>
        <time>2012-05-07T11:56:05+02:00</time>
      </trkpt>
      <trkpt lat="43.50549" lon="6.91118">
        <ele>75.1202393</ele>
        <time>2012-05-07T11:56:14+02:00</time>
      </trkpt>
      <trkpt lat="43.50533" lon="6.91121">
        <ele>76.0814209</ele>
        <time>2012-05-07T11:56:21+02:00</time>
      </trkpt>
      <trkpt lat="43.50522" lon="6.91133">
        <ele>77.5234375</ele>
        <time>2012-05-07T11:56:27+02:00</time>
      </trkpt>
      <trkpt lat="43.50514" lon="6.91147">
        <ele>79.4460449</ele>
        <time>2012-05-07T11:56:33+02:00</time>
      </trkpt>
      <trkpt lat="43.50501" lon="6.91144">
        <ele>79.9266357</ele>
        <time>2012-05-07T11:56:39+02:00</time>
      </trkpt>
      <trkpt lat="43.50494" lon="6.91132">
        <ele>80.8881836</ele>
        <time>2012-05-07T11:56:43+02:00</time>
      </trkpt>
      <trkpt lat="43.50478" lon="6.91125">
        <ele>82.3300781</ele>
        <time>2012-05-07T11:56:50+02:00</time>
      </trkpt>
      <trkpt lat="43.50466" lon="6.91115">
        <ele>84.2526855</ele>
        <time>2012-05-07T11:56:56+02:00</time>
      </trkpt>
      <trkpt lat="43.50456" lon="6.91109">
        <ele>84.2526855</ele>
        <time>2012-05-07T11:57:00+02:00</time>
      </trkpt>
      <trkpt lat="43.5044" lon="6.91097">
        <ele>84.7333984</ele>
        <time>2012-05-07T11:57:06+02:00</time>
      </trkpt>
      <trkpt lat="43.50427" lon="6.91089">
        <ele>85.2139893</ele>
        <time>2012-05-07T11:57:11+02:00</time>
      </trkpt>
      <trkpt lat="43.50409" lon="6.91081">
        <ele>86.6560059</ele>
        <time>2012-05-07T11:57:18+02:00</time>
      </trkpt>
      <trkpt lat="43.50394" lon="6.91077">
        <ele>85.6945801</ele>
        <time>2012-05-07T11:57:24+02:00</time>
      </trkpt>
      <trkpt lat="43.50378" lon="6.91075">
        <ele>87.1365967</ele>
        <time>2012-05-07T11:57:30+02:00</time>
      </trkpt>
      <trkpt lat="43.50363" lon="6.91073">
        <ele>88.5787354</ele>
        <time>2012-05-07T11:57:36+02:00</time>
      </trkpt>
      <trkpt lat="43.50347" lon="6.91072">
        <ele>89.539917</ele>
        <time>2012-05-07T11:57:42+02:00</time>
      </trkpt>
      <trkpt lat="43.50327" lon="6.91073">
        <ele>90.9819336</ele>
        <time>2012-05-07T11:57:49+02:00</time>
      </trkpt>
      <trkpt lat="43.50301" lon="6.91071">
        <ele>93.3851318</ele>
        <time>2012-05-07T11:57:58+02:00</time>
      </trkpt>
      <trkpt lat="43.5028" lon="6.9107">
        <ele>93.3851318</ele>
        <time>2012-05-07T11:58:05+02:00</time>
      </trkpt>
      <trkpt lat="43.50251" lon="6.91068">
        <ele>95.7884521</ele>
        <time>2012-05-07T11:58:15+02:00</time>
      </trkpt>
      <trkpt lat="43.50234" lon="6.91072">
        <ele>97.2304688</ele>
        <time>2012-05-07T11:58:21+02:00</time>
      </trkpt>
      <trkpt lat="43.50217" lon="6.91082">
        <ele>100.595093</ele>
        <time>2012-05-07T11:58:28+02:00</time>
      </trkpt>
      <trkpt lat="43.50202" lon="6.91099">
        <ele>102.998291</ele>
        <time>2012-05-07T11:58:35+02:00</time>
      </trkpt>
      <trkpt lat="43.50188" lon="6.91119">
        <ele>105.401733</ele>
        <time>2012-05-07T11:58:42+02:00</time>
      </trkpt>
      <trkpt lat="43.50172" lon="6.9114">
        <ele>107.324341</ele>
        <time>2012-05-07T11:58:50+02:00</time>
      </trkpt>
      <trkpt lat="43.50156" lon="6.91162">
        <ele>108.766235</ele>
        <time>2012-05-07T11:58:58+02:00</time>
      </trkpt>
      <trkpt lat="43.50142" lon="6.91179">
        <ele>110.688843</ele>
        <time>2012-05-07T11:59:05+02:00</time>
      </trkpt>
      <trkpt lat="43.5013" lon="6.91203">
        <ele>111.650269</ele>
        <time>2012-05-07T11:59:13+02:00</time>
      </trkpt>
      <trkpt lat="43.50122" lon="6.91225">
        <ele>110.208252</ele>
        <time>2012-05-07T11:59:19+02:00</time>
      </trkpt>
      <trkpt lat="43.50115" lon="6.9124">
        <ele>110.208252</ele>
        <time>2012-05-07T11:59:24+02:00</time>
      </trkpt>
      <trkpt lat="43.50111" lon="6.91242">
        <ele>111.169556</ele>
        <time>2012-05-07T11:59:26+02:00</time>
      </trkpt>
      <trkpt lat="43.50096" lon="6.91242">
        <ele>115.014893</ele>
        <time>2012-05-07T11:59:33+02:00</time>
      </trkpt>
      <trkpt lat="43.50083" lon="6.91237">
        <ele>116.9375</ele>
        <time>2012-05-07T11:59:39+02:00</time>
      </trkpt>
      <trkpt lat="43.5008" lon="6.91225">
        <ele>117.418213</ele>
        <time>2012-05-07T11:59:43+02:00</time>
      </trkpt>
      <trkpt lat="43.50086" lon="6.91212">
        <ele>119.821411</ele>
        <time>2012-05-07T11:59:48+02:00</time>
      </trkpt>
      <trkpt lat="43.50094" lon="6.91193">
        <ele>121.744141</ele>
        <time>2012-05-07T11:59:55+02:00</time>
      </trkpt>
      <trkpt lat="43.50091" lon="6.9118">
        <ele>123.186157</ele>
        <time>2012-05-07T12:00:00+02:00</time>
      </trkpt>
      <trkpt lat="43.50081" lon="6.91168">
        <ele>124.147339</ele>
        <time>2012-05-07T12:00:06+02:00</time>
      </trkpt>
      <trkpt lat="43.50079" lon="6.9115">
        <ele>126.550659</ele>
        <time>2012-05-07T12:00:12+02:00</time>
      </trkpt>
      <trkpt lat="43.50076" lon="6.91128">
        <ele>127.992554</ele>
        <time>2012-05-07T12:00:20+02:00</time>
      </trkpt>
      <trkpt lat="43.50069" lon="6.91108">
        <ele>129.915283</ele>
        <time>2012-05-07T12:00:28+02:00</time>
      </trkpt>
      <trkpt lat="43.50059" lon="6.91098">
        <ele>131.837891</ele>
        <time>2012-05-07T12:00:35+02:00</time>
      </trkpt>
      <trkpt lat="43.50048" lon="6.91084">
        <ele>133.279907</ele>
        <time>2012-05-07T12:00:43+02:00</time>
      </trkpt>
      <trkpt lat="43.50048" lon="6.91068">
        <ele>134.241211</ele>
        <time>2012-05-07T12:00:49+02:00</time>
      </trkpt>
      <trkpt lat="43.50048" lon="6.91065">
        <ele>134.721924</ele>
        <time>2012-05-07T12:00:50+02:00</time>
      </trkpt>
      <trkpt lat="43.50054" lon="6.91045">
        <ele>136.644653</ele>
        <time>2012-05-07T12:00:58+02:00</time>
      </trkpt>
      <trkpt lat="43.50058" lon="6.91027">
        <ele>138.567261</ele>
        <time>2012-05-07T12:01:05+02:00</time>
      </trkpt>
      <trkpt lat="43.50064" lon="6.91003">
        <ele>140.009155</ele>
        <time>2012-05-07T12:01:14+02:00</time>
      </trkpt>
      <trkpt lat="43.50061" lon="6.90986">
        <ele>140.489868</ele>
        <time>2012-05-07T12:01:21+02:00</time>
      </trkpt>
      <trkpt lat="43.50052" lon="6.90972">
        <ele>141.45105</ele>
        <time>2012-05-07T12:01:28+02:00</time>
      </trkpt>
      <trkpt lat="43.50041" lon="6.90964">
        <ele>141.45105</ele>
        <time>2012-05-07T12:01:34+02:00</time>
      </trkpt>
      <trkpt lat="43.50032" lon="6.90968">
        <ele>143.373657</ele>
        <time>2012-05-07T12:01:39+02:00</time>
      </trkpt>
      <trkpt lat="43.50019" lon="6.90974">
        <ele>144.815796</ele>
        <time>2012-05-07T12:01:45+02:00</time>
      </trkpt>
      <trkpt lat="43.50008" lon="6.90984">
        <ele>147.218994</ele>
        <time>2012-05-07T12:01:52+02:00</time>
      </trkpt>
      <trkpt lat="43.49997" lon="6.90997">
        <ele>148.661011</ele>
        <time>2012-05-07T12:01:59+02:00</time>
      </trkpt>
      <trkpt lat="43.49988" lon="6.91007">
        <ele>149.622314</ele>
        <time>2012-05-07T12:02:05+02:00</time>
      </trkpt>
      <trkpt lat="43.49978" lon="6.9102">
        <ele>149.622314</ele>
        <time>2012-05-07T12:02:12+02:00</time>
      </trkpt>
      <trkpt lat="43.49971" lon="6.91032">
        <ele>151.064209</ele>
        <time>2012-05-07T12:02:18+02:00</time>
      </trkpt>
      <trkpt lat="43.49957" lon="6.91051">
        <ele>152.506348</ele>
        <time>2012-05-07T12:02:27+02:00</time>
      </trkpt>
      <trkpt lat="43.49945" lon="6.9106">
        <ele>152.986938</ele>
        <time>2012-05-07T12:02:33+02:00</time>
      </trkpt>
      <trkpt lat="43.49928" lon="6.91073">
        <ele>155.870972</ele>
        <time>2012-05-07T12:02:42+02:00</time>
      </trkpt>
      <trkpt lat="43.49917" lon="6.91079">
        <ele>157.793579</ele>
        <time>2012-05-07T12:02:48+02:00</time>
      </trkpt>
      <trkpt lat="43.49901" lon="6.91083">
        <ele>158.754761</ele>
        <time>2012-05-07T12:02:57+02:00</time>
      </trkpt>
      <trkpt lat="43.49891" lon="6.91084">
        <ele>160.67749</ele>
        <time>2012-05-07T12:03:03+02:00</time>
      </trkpt>
      <trkpt lat="43.49881" lon="6.91086">
        <ele>161.158203</ele>
        <time>2012-05-07T12:03:09+02:00</time>
      </trkpt>
      <trkpt lat="43.49869" lon="6.91088">
        <ele>161.638916</ele>
        <time>2012-05-07T12:03:16+02:00</time>
      </trkpt>
      <trkpt lat="43.49856" lon="6.91091">
        <ele>161.158203</ele>
        <time>2012-05-07T12:03:24+02:00</time>
      </trkpt>
      <trkpt lat="43.49845" lon="6.91094">
        <ele>162.119507</ele>
        <time>2012-05-07T12:03:31+02:00</time>
      </trkpt>
      <trkpt lat="43.49838" lon="6.91094">
        <ele>163.080811</ele>
        <time>2012-05-07T12:03:35+02:00</time>
      </trkpt>
      <trkpt lat="43.49831" lon="6.91085">
        <ele>164.522705</ele>
        <time>2012-05-07T12:03:41+02:00</time>
      </trkpt>
      <trkpt lat="43.49831" lon="6.91071">
        <ele>165.964722</ele>
        <time>2012-05-07T12:03:46+02:00</time>
      </trkpt>
      <trkpt lat="43.49836" lon="6.91059">
        <ele>167.406738</ele>
        <time>2012-05-07T12:03:53+02:00</time>
      </trkpt>
      <trkpt lat="43.49838" lon="6.91053">
        <ele>169.810059</ele>
        <time>2012-05-07T12:04:07+02:00</time>
      </trkpt>
      <trkpt lat="43.49838" lon="6.91052">
        <ele>169.810059</ele>
        <time>2012-05-07T12:04:12+02:00</time>
      </trkpt>
      <trkpt lat="43.49837" lon="6.91051">
        <ele>169.810059</ele>
        <time>2012-05-07T12:04:17+02:00</time>
      </trkpt>
      <trkpt lat="43.49828" lon="6.91041">
        <ele>170.290649</ele>
        <time>2012-05-07T12:04:23+02:00</time>
      </trkpt>
      <trkpt lat="43.4982" lon="6.91027">
        <ele>171.732666</ele>
        <time>2012-05-07T12:04:29+02:00</time>
      </trkpt>
      <trkpt lat="43.49823" lon="6.91011">
        <ele>173.655273</ele>
        <time>2012-05-07T12:04:34+02:00</time>
      </trkpt>
      <trkpt lat="43.4983" lon="6.90986">
        <ele>179.903809</ele>
        <time>2012-05-07T12:04:42+02:00</time>
      </trkpt>
      <trkpt lat="43.49835" lon="6.90964">
        <ele>187.59436</ele>
        <time>2012-05-07T12:04:51+02:00</time>
      </trkpt>
      <trkpt lat="43.49837" lon="6.90947">
        <ele>186.633179</ele>
        <time>2012-05-07T12:04:59+02:00</time>
      </trkpt>
      <trkpt lat="43.49841" lon="6.90928">
        <ele>189.516968</ele>
        <time>2012-05-07T12:05:08+02:00</time>
      </trkpt>
      <trkpt lat="43.4984" lon="6.90913">
        <ele>189.997681</ele>
        <time>2012-05-07T12:05:14+02:00</time>
      </trkpt>
      <trkpt lat="43.49832" lon="6.90906">
        <ele>189.997681</ele>
        <time>2012-05-07T12:05:19+02:00</time>
      </trkpt>
      <trkpt lat="43.4982" lon="6.909">
        <ele>190.478394</ele>
        <time>2012-05-07T12:05:25+02:00</time>
      </trkpt>
      <trkpt lat="43.49805" lon="6.90891">
        <ele>189.036377</ele>
        <time>2012-05-07T12:05:33+02:00</time>
      </trkpt>
      <trkpt lat="43.49787" lon="6.90885">
        <ele>189.516968</ele>
        <time>2012-05-07T12:05:40+02:00</time>
      </trkpt>
      <trkpt lat="43.49778" lon="6.90875">
        <ele>190.478394</ele>
        <time>2012-05-07T12:05:45+02:00</time>
      </trkpt>
      <trkpt lat="43.49775" lon="6.90866">
        <ele>191.920288</ele>
        <time>2012-05-07T12:05:49+02:00</time>
      </trkpt>
      <trkpt lat="43.49767" lon="6.90846">
        <ele>192.401123</ele>
        <time>2012-05-07T12:05:58+02:00</time>
      </trkpt>
      <trkpt lat="43.49766" lon="6.90822">
        <ele>193.843018</ele>
        <time>2012-05-07T12:06:06+02:00</time>
      </trkpt>
      <trkpt lat="43.49762" lon="6.90803">
        <ele>193.843018</ele>
        <time>2012-05-07T12:06:13+02:00</time>
      </trkpt>
      <trkpt lat="43.49753" lon="6.90787">
        <ele>196.246338</ele>
        <time>2012-05-07T12:06:20+02:00</time>
      </trkpt>
      <trkpt lat="43.49741" lon="6.90764">
        <ele>197.688232</ele>
        <time>2012-05-07T12:06:30+02:00</time>
      </trkpt>
      <trkpt lat="43.49733" lon="6.90749">
        <ele>198.168945</ele>
        <time>2012-05-07T12:06:37+02:00</time>
      </trkpt>
      <trkpt lat="43.49724" lon="6.90734">
        <ele>200.572266</ele>
        <time>2012-05-07T12:06:44+02:00</time>
      </trkpt>
      <trkpt lat="43.49714" lon="6.90717">
        <ele>203.456177</ele>
        <time>2012-05-07T12:06:52+02:00</time>
      </trkpt>
      <trkpt lat="43.49707" lon="6.90704">
        <ele>206.340088</ele>
        <time>2012-05-07T12:06:58+02:00</time>
      </trkpt>
      <trkpt lat="43.4969" lon="6.90688">
        <ele>209.704834</ele>
        <time>2012-05-07T12:07:06+02:00</time>
      </trkpt>
      <trkpt lat="43.49676" lon="6.9067">
        <ele>210.666016</ele>
        <time>2012-05-07T12:07:13+02:00</time>
      </trkpt>
      <trkpt lat="43.49661" lon="6.90656">
        <ele>210.666016</ele>
        <time>2012-05-07T12:07:20+02:00</time>
      </trkpt>
      <trkpt lat="43.49646" lon="6.90644">
        <ele>212.108032</ele>
        <time>2012-05-07T12:07:28+02:00</time>
      </trkpt>
      <trkpt lat="43.49633" lon="6.90632">
        <ele>215.472656</ele>
        <time>2012-05-07T12:07:35+02:00</time>
      </trkpt>
      <trkpt lat="43.49623" lon="6.90618">
        <ele>217.395386</ele>
        <time>2012-05-07T12:07:41+02:00</time>
      </trkpt>
      <trkpt lat="43.49611" lon="6.90601">
        <ele>220.759888</ele>
        <time>2012-05-07T12:07:47+02:00</time>
      </trkpt>
      <trkpt lat="43.49598" lon="6.90582">
        <ele>221.721191</ele>
        <time>2012-05-07T12:07:53+02:00</time>
      </trkpt>
      <trkpt lat="43.49582" lon="6.90573">
        <ele>222.201782</ele>
        <time>2012-05-07T12:07:58+02:00</time>
      </trkpt>
      <trkpt lat="43.49569" lon="6.90576">
        <ele>221.721191</ele>
        <time>2012-05-07T12:08:02+02:00</time>
      </trkpt>
      <trkpt lat="43.49555" lon="6.90571">
        <ele>223.163208</ele>
        <time>2012-05-07T12:08:07+02:00</time>
      </trkpt>
      <trkpt lat="43.49542" lon="6.90565">
        <ele>227.008545</ele>
        <time>2012-05-07T12:08:13+02:00</time>
      </trkpt>
      <trkpt lat="43.49533" lon="6.90556">
        <ele>229.411743</ele>
        <time>2012-05-07T12:08:18+02:00</time>
      </trkpt>
      <trkpt lat="43.49533" lon="6.90534">
        <ele>233.737671</ele>
        <time>2012-05-07T12:08:26+02:00</time>
      </trkpt>
      <trkpt lat="43.49536" lon="6.90515">
        <ele>238.544312</ele>
        <time>2012-05-07T12:08:32+02:00</time>
      </trkpt>
      <trkpt lat="43.49531" lon="6.90498">
        <ele>238.063599</ele>
        <time>2012-05-07T12:08:37+02:00</time>
      </trkpt>
      <trkpt lat="43.49527" lon="6.90474">
        <ele>237.582886</ele>
        <time>2012-05-07T12:08:44+02:00</time>
      </trkpt>
      <trkpt lat="43.49528" lon="6.90455">
        <ele>235.660278</ele>
        <time>2012-05-07T12:08:49+02:00</time>
      </trkpt>
      <trkpt lat="43.49523" lon="6.90437">
        <ele>233.25708</ele>
        <time>2012-05-07T12:08:55+02:00</time>
      </trkpt>
      <trkpt lat="43.49516" lon="6.9042">
        <ele>234.218384</ele>
        <time>2012-05-07T12:09:01+02:00</time>
      </trkpt>
      <trkpt lat="43.49511" lon="6.90403">
        <ele>233.25708</ele>
        <time>2012-05-07T12:09:08+02:00</time>
      </trkpt>
      <trkpt lat="43.49505" lon="6.90389">
        <ele>237.582886</ele>
        <time>2012-05-07T12:09:15+02:00</time>
      </trkpt>
      <trkpt lat="43.49505" lon="6.90388">
        <ele>237.582886</ele>
        <time>2012-05-07T12:09:16+02:00</time>
      </trkpt>
      <trkpt lat="43.49503" lon="6.90386">
        <ele>237.582886</ele>
        <time>2012-05-07T12:09:20+02:00</time>
      </trkpt>
      <trkpt lat="43.49504" lon="6.9039">
        <ele>238.063599</ele>
        <time>2012-05-07T12:09:26+02:00</time>
      </trkpt>
      <trkpt lat="43.49506" lon="6.90402">
        <ele>238.544312</ele>
        <time>2012-05-07T12:09:33+02:00</time>
      </trkpt>
      <trkpt lat="43.49505" lon="6.90405">
        <ele>239.024902</ele>
        <time>2012-05-07T12:09:39+02:00</time>
      </trkpt>
      <trkpt lat="43.49503" lon="6.90408">
        <ele>241.428223</ele>
        <time>2012-05-07T12:09:50+02:00</time>
      </trkpt>
      <trkpt lat="43.49503" lon="6.90411">
        <ele>242.870239</ele>
        <time>2012-05-07T12:09:56+02:00</time>
      </trkpt>
      <trkpt lat="43.49502" lon="6.90411">
        <ele>242.870239</ele>
        <time>2012-05-07T12:10:03+02:00</time>
      </trkpt>
      <trkpt lat="43.49501" lon="6.90411">
        <ele>244.312256</ele>
        <time>2012-05-07T12:10:16+02:00</time>
      </trkpt>
      <trkpt lat="43.49501" lon="6.90413">
        <ele>242.389648</ele>
        <time>2012-05-07T12:10:36+02:00</time>
      </trkpt>
      <trkpt lat="43.495" lon="6.90412">
        <ele>241.908936</ele>
        <time>2012-05-07T12:10:56+02:00</time>
      </trkpt>
      <trkpt lat="43.495" lon="6.90412">
        <ele>242.870239</ele>
        <time>2012-05-07T12:11:06+02:00</time>
      </trkpt>
      <trkpt lat="43.495" lon="6.90412">
        <ele>243.831543</ele>
        <time>2012-05-07T12:11:17+02:00</time>
      </trkpt>
      <trkpt lat="43.49501" lon="6.90412">
        <ele>243.35083</ele>
        <time>2012-05-07T12:11:38+02:00</time>
      </trkpt>
      <trkpt lat="43.49501" lon="6.90411">
        <ele>243.35083</ele>
        <time>2012-05-07T12:11:50+02:00</time>
      </trkpt>
      <trkpt lat="43.49501" lon="6.90411">
        <ele>244.312256</ele>
        <time>2012-05-07T12:11:58+02:00</time>
      </trkpt>
      <trkpt lat="43.49501" lon="6.9041">
        <ele>243.831543</ele>
        <time>2012-05-07T12:12:07+02:00</time>
      </trkpt>
      <trkpt lat="43.495" lon="6.9041">
        <ele>245.75415</ele>
        <time>2012-05-07T12:12:15+02:00</time>
      </trkpt>
      <trkpt lat="43.495" lon="6.9041">
        <ele>245.273438</ele>
        <time>2012-05-07T12:12:19+02:00</time>
      </trkpt>
      <trkpt lat="43.49502" lon="6.90411">
        <ele>245.273438</ele>
        <time>2012-05-07T12:12:42+02:00</time>
      </trkpt>
      <trkpt lat="43.49502" lon="6.90411">
        <ele>245.75415</ele>
        <time>2012-05-07T12:12:47+02:00</time>
      </trkpt>
      <trkpt lat="43.49504" lon="6.90411">
        <ele>243.35083</ele>
        <time>2012-05-07T12:13:00+02:00</time>
      </trkpt>
      <trkpt lat="43.49503" lon="6.90411">
        <ele>243.831543</ele>
        <time>2012-05-07T12:13:09+02:00</time>
      </trkpt>
      <trkpt lat="43.49505" lon="6.90412">
        <ele>242.389648</ele>
        <time>2012-05-07T12:13:26+02:00</time>
      </trkpt>
      <trkpt lat="43.49505" lon="6.90412">
        <ele>245.273438</ele>
        <time>2012-05-07T12:13:40+02:00</time>
      </trkpt>
      <trkpt lat="43.49505" lon="6.90412">
        <ele>245.273438</ele>
        <time>2012-05-07T12:13:48+02:00</time>
      </trkpt>
      <trkpt lat="43.49506" lon="6.90414">
        <ele>244.312256</ele>
        <time>2012-05-07T12:14:00+02:00</time>
      </trkpt>
      <trkpt lat="43.49508" lon="6.90422">
        <ele>243.831543</ele>
        <time>2012-05-07T12:14:04+02:00</time>
      </trkpt>
      <trkpt lat="43.4951" lon="6.90438">
        <ele>241.908936</ele>
        <time>2012-05-07T12:14:10+02:00</time>
      </trkpt>
      <trkpt lat="43.49511" lon="6.9046">
        <ele>240.467041</ele>
        <time>2012-05-07T12:14:17+02:00</time>
      </trkpt>
      <trkpt lat="43.49509" lon="6.90474">
        <ele>239.986206</ele>
        <time>2012-05-07T12:14:21+02:00</time>
      </trkpt>
      <trkpt lat="43.49509" lon="6.90499">
        <ele>240.467041</ele>
        <time>2012-05-07T12:14:27+02:00</time>
      </trkpt>
      <trkpt lat="43.49506" lon="6.90521">
        <ele>240.947632</ele>
        <time>2012-05-07T12:14:33+02:00</time>
      </trkpt>
      <trkpt lat="43.49503" lon="6.90541">
        <ele>237.582886</ele>
        <time>2012-05-07T12:14:40+02:00</time>
      </trkpt>
      <trkpt lat="43.49504" lon="6.90545">
        <ele>237.582886</ele>
        <time>2012-05-07T12:14:41+02:00</time>
      </trkpt>
      <trkpt lat="43.49506" lon="6.90559">
        <ele>236.621704</ele>
        <time>2012-05-07T12:14:45+02:00</time>
      </trkpt>
      <trkpt lat="43.49509" lon="6.90574">
        <ele>233.25708</ele>
        <time>2012-05-07T12:14:50+02:00</time>
      </trkpt>
      <trkpt lat="43.49522" lon="6.9059">
        <ele>230.373047</ele>
        <time>2012-05-07T12:14:55+02:00</time>
      </trkpt>
      <trkpt lat="43.4953" lon="6.90606">
        <ele>236.621704</ele>
        <time>2012-05-07T12:14:59+02:00</time>
      </trkpt>
      <trkpt lat="43.49535" lon="6.90618">
        <ele>245.273438</ele>
        <time>2012-05-07T12:15:02+02:00</time>
      </trkpt>
      <trkpt lat="43.49548" lon="6.90623">
        <ele>249.118774</ele>
        <time>2012-05-07T12:15:06+02:00</time>
      </trkpt>
      <trkpt lat="43.49566" lon="6.90631">
        <ele>249.118774</ele>
        <time>2012-05-07T12:15:12+02:00</time>
      </trkpt>
      <trkpt lat="43.49575" lon="6.90647">
        <ele>250.560791</ele>
        <time>2012-05-07T12:15:17+02:00</time>
      </trkpt>
      <trkpt lat="43.49585" lon="6.90665">
        <ele>247.676758</ele>
        <time>2012-05-07T12:15:22+02:00</time>
      </trkpt>
      <trkpt lat="43.49598" lon="6.90683">
        <ele>246.234863</ele>
        <time>2012-05-07T12:15:27+02:00</time>
      </trkpt>
      <trkpt lat="43.49619" lon="6.90707">
        <ele>245.273438</ele>
        <time>2012-05-07T12:15:34+02:00</time>
      </trkpt>
      <trkpt lat="43.49638" lon="6.90727">
        <ele>247.196045</ele>
        <time>2012-05-07T12:15:40+02:00</time>
      </trkpt>
      <trkpt lat="43.49653" lon="6.90749">
        <ele>241.908936</ele>
        <time>2012-05-07T12:15:46+02:00</time>
      </trkpt>
      <trkpt lat="43.49667" lon="6.90774">
        <ele>240.947632</ele>
        <time>2012-05-07T12:15:52+02:00</time>
      </trkpt>
      <trkpt lat="43.49679" lon="6.90803">
        <ele>241.908936</ele>
        <time>2012-05-07T12:15:58+02:00</time>
      </trkpt>
      <trkpt lat="43.49687" lon="6.90832">
        <ele>241.428223</ele>
        <time>2012-05-07T12:16:04+02:00</time>
      </trkpt>
      <trkpt lat="43.49692" lon="6.9086">
        <ele>240.467041</ele>
        <time>2012-05-07T12:16:09+02:00</time>
      </trkpt>
      <trkpt lat="43.49694" lon="6.90871">
        <ele>240.467041</ele>
        <time>2012-05-07T12:16:11+02:00</time>
      </trkpt>
      <trkpt lat="43.49697" lon="6.90887">
        <ele>239.505493</ele>
        <time>2012-05-07T12:16:14+02:00</time>
      </trkpt>
      <trkpt lat="43.49701" lon="6.90914">
        <ele>240.947632</ele>
        <time>2012-05-07T12:16:19+02:00</time>
      </trkpt>
      <trkpt lat="43.49709" lon="6.9095">
        <ele>241.428223</ele>
        <time>2012-05-07T12:16:26+02:00</time>
      </trkpt>
      <trkpt lat="43.49704" lon="6.9097">
        <ele>241.908936</ele>
        <time>2012-05-07T12:16:30+02:00</time>
      </trkpt>
      <trkpt lat="43.49687" lon="6.90989">
        <ele>243.35083</ele>
        <time>2012-05-07T12:16:36+02:00</time>
      </trkpt>
      <trkpt lat="43.49679" lon="6.91013">
        <ele>242.870239</ele>
        <time>2012-05-07T12:16:41+02:00</time>
      </trkpt>
      <trkpt lat="43.49685" lon="6.91041">
        <ele>241.908936</ele>
        <time>2012-05-07T12:16:46+02:00</time>
      </trkpt>
      <trkpt lat="43.4969" lon="6.91051">
        <ele>241.428223</ele>
        <time>2012-05-07T12:16:48+02:00</time>
      </trkpt>
      <trkpt lat="43.49697" lon="6.91074">
        <ele>242.389648</ele>
        <time>2012-05-07T12:16:52+02:00</time>
      </trkpt>
      <trkpt lat="43.49704" lon="6.91116">
        <ele>241.428223</ele>
        <time>2012-05-07T12:16:59+02:00</time>
      </trkpt>
      <trkpt lat="43.49713" lon="6.91156">
        <ele>241.908936</ele>
        <time>2012-05-07T12:17:06+02:00</time>
      </trkpt>
      <trkpt lat="43.49717" lon="6.9118">
        <ele>241.428223</ele>
        <time>2012-05-07T12:17:10+02:00</time>
      </trkpt>
      <trkpt lat="43.49718" lon="6.91204">
        <ele>240.467041</ele>
        <time>2012-05-07T12:17:14+02:00</time>
      </trkpt>
      <trkpt lat="43.49723" lon="6.91229">
        <ele>241.908936</ele>
        <time>2012-05-07T12:17:18+02:00</time>
      </trkpt>
      <trkpt lat="43.49732" lon="6.9125">
        <ele>244.312256</ele>
        <time>2012-05-07T12:17:22+02:00</time>
      </trkpt>
      <trkpt lat="43.49754" lon="6.91284">
        <ele>244.792847</ele>
        <time>2012-05-07T12:17:29+02:00</time>
      </trkpt>
      <trkpt lat="43.49776" lon="6.91297">
        <ele>245.273438</ele>
        <time>2012-05-07T12:17:34+02:00</time>
      </trkpt>
      <trkpt lat="43.49784" lon="6.91298">
        <ele>245.75415</ele>
        <time>2012-05-07T12:17:36+02:00</time>
      </trkpt>
      <trkpt lat="43.49797" lon="6.91307">
        <ele>245.75415</ele>
        <time>2012-05-07T12:17:40+02:00</time>
      </trkpt>
      <trkpt lat="43.49803" lon="6.91313">
        <ele>245.273438</ele>
        <time>2012-05-07T12:17:42+02:00</time>
      </trkpt>
      <trkpt lat="43.49815" lon="6.91342">
        <ele>243.831543</ele>
        <time>2012-05-07T12:17:48+02:00</time>
      </trkpt>
      <trkpt lat="43.49835" lon="6.91384">
        <ele>241.908936</ele>
        <time>2012-05-07T12:17:56+02:00</time>
      </trkpt>
      <trkpt lat="43.49852" lon="6.91406">
        <ele>245.75415</ele>
        <time>2012-05-07T12:18:01+02:00</time>
      </trkpt>
      <trkpt lat="43.49859" lon="6.91413">
        <ele>246.234863</ele>
        <time>2012-05-07T12:18:03+02:00</time>
      </trkpt>
      <trkpt lat="43.49875" lon="6.91426">
        <ele>247.196045</ele>
        <time>2012-05-07T12:18:07+02:00</time>
      </trkpt>
      <trkpt lat="43.49887" lon="6.91438">
        <ele>246.715454</ele>
        <time>2012-05-07T12:18:10+02:00</time>
      </trkpt>
      <trkpt lat="43.49904" lon="6.91462">
        <ele>246.715454</ele>
        <time>2012-05-07T12:18:15+02:00</time>
      </trkpt>
      <trkpt lat="43.49911" lon="6.91484">
        <ele>247.196045</ele>
        <time>2012-05-07T12:18:19+02:00</time>
      </trkpt>
      <trkpt lat="43.49909" lon="6.91514">
        <ele>246.234863</ele>
        <time>2012-05-07T12:18:24+02:00</time>
      </trkpt>
      <trkpt lat="43.49895" lon="6.91553">
        <ele>244.312256</ele>
        <time>2012-05-07T12:18:31+02:00</time>
      </trkpt>
      <trkpt lat="43.49887" lon="6.91568">
        <ele>244.792847</ele>
        <time>2012-05-07T12:18:34+02:00</time>
      </trkpt>
      <trkpt lat="43.49873" lon="6.91581">
        <ele>244.312256</ele>
        <time>2012-05-07T12:18:38+02:00</time>
      </trkpt>
      <trkpt lat="43.49843" lon="6.91584">
        <ele>243.831543</ele>
        <time>2012-05-07T12:18:45+02:00</time>
      </trkpt>
      <trkpt lat="43.49839" lon="6.91583">
        <ele>243.831543</ele>
        <time>2012-05-07T12:18:46+02:00</time>
      </trkpt>
      <trkpt lat="43.49809" lon="6.91564">
        <ele>241.428223</ele>
        <time>2012-05-07T12:18:54+02:00</time>
      </trkpt>
      <trkpt lat="43.49783" lon="6.91551">
        <ele>241.428223</ele>
        <time>2012-05-07T12:19:01+02:00</time>
      </trkpt>
      <trkpt lat="43.49756" lon="6.91542">
        <ele>241.428223</ele>
        <time>2012-05-07T12:19:08+02:00</time>
      </trkpt>
      <trkpt lat="43.49748" lon="6.91541">
        <ele>241.908936</ele>
        <time>2012-05-07T12:19:10+02:00</time>
      </trkpt>
      <trkpt lat="43.49739" lon="6.9154">
        <ele>243.35083</ele>
        <time>2012-05-07T12:19:12+02:00</time>
      </trkpt>
      <trkpt lat="43.49714" lon="6.91553">
        <ele>246.715454</ele>
        <time>2012-05-07T12:19:18+02:00</time>
      </trkpt>
      <trkpt lat="43.49686" lon="6.91597">
        <ele>248.638184</ele>
        <time>2012-05-07T12:19:27+02:00</time>
      </trkpt>
      <trkpt lat="43.49678" lon="6.91613">
        <ele>249.118774</ele>
        <time>2012-05-07T12:19:30+02:00</time>
      </trkpt>
      <trkpt lat="43.49669" lon="6.91636">
        <ele>248.157593</ele>
        <time>2012-05-07T12:19:34+02:00</time>
      </trkpt>
      <trkpt lat="43.49656" lon="6.91691">
        <ele>247.196045</ele>
        <time>2012-05-07T12:19:43+02:00</time>
      </trkpt>
      <trkpt lat="43.49651" lon="6.91732">
        <ele>245.273438</ele>
        <time>2012-05-07T12:19:50+02:00</time>
      </trkpt>
      <trkpt lat="43.4965" lon="6.91741">
        <ele>245.273438</ele>
        <time>2012-05-07T12:19:52+02:00</time>
      </trkpt>
      <trkpt lat="43.49648" lon="6.9175">
        <ele>245.273438</ele>
        <time>2012-05-07T12:19:55+02:00</time>
      </trkpt>
      <trkpt lat="43.49639" lon="6.91754">
        <ele>243.831543</ele>
        <time>2012-05-07T12:20:00+02:00</time>
      </trkpt>
      <trkpt lat="43.49634" lon="6.91752">
        <ele>243.35083</ele>
        <time>2012-05-07T12:20:04+02:00</time>
      </trkpt>
      <trkpt lat="43.49634" lon="6.91753">
        <ele>242.870239</ele>
        <time>2012-05-07T12:20:18+02:00</time>
      </trkpt>
      <trkpt lat="43.49634" lon="6.91753">
        <ele>244.792847</ele>
        <time>2012-05-07T12:20:36+02:00</time>
      </trkpt>
      <trkpt lat="43.49633" lon="6.91753">
        <ele>244.792847</ele>
        <time>2012-05-07T12:20:46+02:00</time>
      </trkpt>
      <trkpt lat="43.49633" lon="6.91754">
        <ele>244.312256</ele>
        <time>2012-05-07T12:20:59+02:00</time>
      </trkpt>
      <trkpt lat="43.49634" lon="6.91753">
        <ele>242.870239</ele>
        <time>2012-05-07T12:21:19+02:00</time>
      </trkpt>
      <trkpt lat="43.49634" lon="6.91753">
        <ele>241.908936</ele>
        <time>2012-05-07T12:21:28+02:00</time>
      </trkpt>
      <trkpt lat="43.49634" lon="6.91753">
        <ele>243.831543</ele>
        <time>2012-05-07T12:21:38+02:00</time>
      </trkpt>
      <trkpt lat="43.49634" lon="6.91753">
        <ele>244.792847</ele>
        <time>2012-05-07T12:21:47+02:00</time>
      </trkpt>
      <trkpt lat="43.49634" lon="6.91753">
        <ele>244.792847</ele>
        <time>2012-05-07T12:22:00+02:00</time>
      </trkpt>
      <trkpt lat="43.49633" lon="6.91753">
        <ele>244.312256</ele>
        <time>2012-05-07T12:22:31+02:00</time>
      </trkpt>
      <trkpt lat="43.49633" lon="6.91754">
        <ele>246.715454</ele>
        <time>2012-05-07T12:22:45+02:00</time>
      </trkpt>
      <trkpt lat="43.49634" lon="6.91752">
        <ele>247.676758</ele>
        <time>2012-05-07T12:23:24+02:00</time>
      </trkpt>
      <trkpt lat="43.49635" lon="6.91751">
        <ele>246.715454</ele>
        <time>2012-05-07T12:23:46+02:00</time>
      </trkpt>
      <trkpt lat="43.49635" lon="6.91752">
        <ele>243.831543</ele>
        <time>2012-05-07T12:24:05+02:00</time>
      </trkpt>
      <trkpt lat="43.49636" lon="6.91752">
        <ele>244.312256</ele>
        <time>2012-05-07T12:24:19+02:00</time>
      </trkpt>
      <trkpt lat="43.49635" lon="6.91753">
        <ele>242.389648</ele>
        <time>2012-05-07T12:24:32+02:00</time>
      </trkpt>
      <trkpt lat="43.49636" lon="6.91754">
        <ele>241.908936</ele>
        <time>2012-05-07T12:24:49+02:00</time>
      </trkpt>
      <trkpt lat="43.49633" lon="6.91754">
        <ele>240.947632</ele>
        <time>2012-05-07T12:24:58+02:00</time>
      </trkpt>
      <trkpt lat="43.49622" lon="6.91751">
        <ele>239.986206</ele>
        <time>2012-05-07T12:25:04+02:00</time>
      </trkpt>
      <trkpt lat="43.49613" lon="6.91749">
        <ele>239.024902</ele>
        <time>2012-05-07T12:25:07+02:00</time>
      </trkpt>
      <trkpt lat="43.49592" lon="6.91753">
        <ele>237.582886</ele>
        <time>2012-05-07T12:25:11+02:00</time>
      </trkpt>
      <trkpt lat="43.49569" lon="6.9176">
        <ele>236.140991</ele>
        <time>2012-05-07T12:25:15+02:00</time>
      </trkpt>
      <trkpt lat="43.49546" lon="6.91766">
        <ele>238.544312</ele>
        <time>2012-05-07T12:25:20+02:00</time>
      </trkpt>
      <trkpt lat="43.49533" lon="6.91785">
        <ele>238.063599</ele>
        <time>2012-05-07T12:25:25+02:00</time>
      </trkpt>
      <trkpt lat="43.49526" lon="6.91799">
        <ele>238.544312</ele>
        <time>2012-05-07T12:25:28+02:00</time>
      </trkpt>
      <trkpt lat="43.49508" lon="6.91816">
        <ele>237.102295</ele>
        <time>2012-05-07T12:25:33+02:00</time>
      </trkpt>
      <trkpt lat="43.49499" lon="6.9182">
        <ele>237.102295</ele>
        <time>2012-05-07T12:25:35+02:00</time>
      </trkpt>
      <trkpt lat="43.49489" lon="6.91823">
        <ele>236.621704</ele>
        <time>2012-05-07T12:25:38+02:00</time>
      </trkpt>
      <trkpt lat="43.49471" lon="6.9183">
        <ele>236.140991</ele>
        <time>2012-05-07T12:25:42+02:00</time>
      </trkpt>
      <trkpt lat="43.49451" lon="6.91839">
        <ele>235.179688</ele>
        <time>2012-05-07T12:25:46+02:00</time>
      </trkpt>
      <trkpt lat="43.49431" lon="6.91838">
        <ele>233.737671</ele>
        <time>2012-05-07T12:25:50+02:00</time>
      </trkpt>
      <trkpt lat="43.49413" lon="6.91829">
        <ele>233.25708</ele>
        <time>2012-05-07T12:25:55+02:00</time>
      </trkpt>
      <trkpt lat="43.49393" lon="6.91814">
        <ele>235.179688</ele>
        <time>2012-05-07T12:26:02+02:00</time>
      </trkpt>
      <trkpt lat="43.49375" lon="6.91805">
        <ele>237.582886</ele>
        <time>2012-05-07T12:26:09+02:00</time>
      </trkpt>
      <trkpt lat="43.49361" lon="6.91798">
        <ele>238.063599</ele>
        <time>2012-05-07T12:26:15+02:00</time>
      </trkpt>
      <trkpt lat="43.4935" lon="6.91792">
        <ele>239.505493</ele>
        <time>2012-05-07T12:26:20+02:00</time>
      </trkpt>
      <trkpt lat="43.49337" lon="6.91786">
        <ele>240.947632</ele>
        <time>2012-05-07T12:26:26+02:00</time>
      </trkpt>
      <trkpt lat="43.49317" lon="6.91779">
        <ele>241.428223</ele>
        <time>2012-05-07T12:26:34+02:00</time>
      </trkpt>
      <trkpt lat="43.493" lon="6.91773">
        <ele>241.428223</ele>
        <time>2012-05-07T12:26:41+02:00</time>
      </trkpt>
      <trkpt lat="43.49279" lon="6.91764">
        <ele>242.389648</ele>
        <time>2012-05-07T12:26:49+02:00</time>
      </trkpt>
      <trkpt lat="43.4926" lon="6.91757">
        <ele>242.389648</ele>
        <time>2012-05-07T12:26:56+02:00</time>
      </trkpt>
      <trkpt lat="43.49242" lon="6.91743">
        <ele>242.389648</ele>
        <time>2012-05-07T12:27:03+02:00</time>
      </trkpt>
      <trkpt lat="43.4923" lon="6.91723">
        <ele>241.908936</ele>
        <time>2012-05-07T12:27:09+02:00</time>
      </trkpt>
      <trkpt lat="43.49224" lon="6.917">
        <ele>240.947632</ele>
        <time>2012-05-07T12:27:14+02:00</time>
      </trkpt>
      <trkpt lat="43.49216" lon="6.91665">
        <ele>240.467041</ele>
        <time>2012-05-07T12:27:22+02:00</time>
      </trkpt>
      <trkpt lat="43.49204" lon="6.9163">
        <ele>239.986206</ele>
        <time>2012-05-07T12:27:30+02:00</time>
      </trkpt>
      <trkpt lat="43.4919" lon="6.91593">
        <ele>239.986206</ele>
        <time>2012-05-07T12:27:38+02:00</time>
      </trkpt>
      <trkpt lat="43.49174" lon="6.91557">
        <ele>239.024902</ele>
        <time>2012-05-07T12:27:46+02:00</time>
      </trkpt>
      <trkpt lat="43.49165" lon="6.91528">
        <ele>238.544312</ele>
        <time>2012-05-07T12:27:52+02:00</time>
      </trkpt>
      <trkpt lat="43.49162" lon="6.91498">
        <ele>239.024902</ele>
        <time>2012-05-07T12:27:58+02:00</time>
      </trkpt>
      <trkpt lat="43.49155" lon="6.91472">
        <ele>239.505493</ele>
        <time>2012-05-07T12:28:04+02:00</time>
      </trkpt>
      <trkpt lat="43.49139" lon="6.91467">
        <ele>238.544312</ele>
        <time>2012-05-07T12:28:08+02:00</time>
      </trkpt>
      <trkpt lat="43.49124" lon="6.91462">
        <ele>236.621704</ele>
        <time>2012-05-07T12:28:11+02:00</time>
      </trkpt>
      <trkpt lat="43.49096" lon="6.91442">
        <ele>234.699097</ele>
        <time>2012-05-07T12:28:16+02:00</time>
      </trkpt>
      <trkpt lat="43.49072" lon="6.91419">
        <ele>233.25708</ele>
        <time>2012-05-07T12:28:21+02:00</time>
      </trkpt>
      <trkpt lat="43.49068" lon="6.91415">
        <ele>232.776489</ele>
        <time>2012-05-07T12:28:22+02:00</time>
      </trkpt>
      <trkpt lat="43.49046" lon="6.91417">
        <ele>229.892334</ele>
        <time>2012-05-07T12:28:27+02:00</time>
      </trkpt>
      <trkpt lat="43.49038" lon="6.91427">
        <ele>228.931152</ele>
        <time>2012-05-07T12:28:29+02:00</time>
      </trkpt>
      <trkpt lat="43.49027" lon="6.91437">
        <ele>227.969727</ele>
        <time>2012-05-07T12:28:31+02:00</time>
      </trkpt>
      <trkpt lat="43.49008" lon="6.91438">
        <ele>225.566528</ele>
        <time>2012-05-07T12:28:35+02:00</time>
      </trkpt>
      <trkpt lat="43.48994" lon="6.91441">
        <ele>222.682495</ele>
        <time>2012-05-07T12:28:39+02:00</time>
      </trkpt>
      <trkpt lat="43.48989" lon="6.9146">
        <ele>223.643799</ele>
        <time>2012-05-07T12:28:42+02:00</time>
      </trkpt>
      <trkpt lat="43.48984" lon="6.91473">
        <ele>222.682495</ele>
        <time>2012-05-07T12:28:44+02:00</time>
      </trkpt>
      <trkpt lat="43.48981" lon="6.91512">
        <ele>221.240601</ele>
        <time>2012-05-07T12:28:49+02:00</time>
      </trkpt>
      <trkpt lat="43.48979" lon="6.91544">
        <ele>220.279175</ele>
        <time>2012-05-07T12:28:53+02:00</time>
      </trkpt>
      <trkpt lat="43.48965" lon="6.916">
        <ele>217.875977</ele>
        <time>2012-05-07T12:29:01+02:00</time>
      </trkpt>
      <trkpt lat="43.48948" lon="6.91646">
        <ele>215.953247</ele>
        <time>2012-05-07T12:29:07+02:00</time>
      </trkpt>
      <trkpt lat="43.48927" lon="6.91681">
        <ele>214.03064</ele>
        <time>2012-05-07T12:29:12+02:00</time>
      </trkpt>
      <trkpt lat="43.48915" lon="6.91715">
        <ele>211.627441</ele>
        <time>2012-05-07T12:29:16+02:00</time>
      </trkpt>
      <trkpt lat="43.48901" lon="6.91772">
        <ele>207.782104</ele>
        <time>2012-05-07T12:29:22+02:00</time>
      </trkpt>
      <trkpt lat="43.48888" lon="6.91818">
        <ele>204.41748</ele>
        <time>2012-05-07T12:29:27+02:00</time>
      </trkpt>
      <trkpt lat="43.48882" lon="6.91835">
        <ele>203.456177</ele>
        <time>2012-05-07T12:29:29+02:00</time>
      </trkpt>
      <trkpt lat="43.48864" lon="6.91853">
        <ele>202.975464</ele>
        <time>2012-05-07T12:29:33+02:00</time>
      </trkpt>
      <trkpt lat="43.48854" lon="6.91853">
        <ele>203.93689</ele>
        <time>2012-05-07T12:29:35+02:00</time>
      </trkpt>
      <trkpt lat="43.48842" lon="6.91849">
        <ele>204.41748</ele>
        <time>2012-05-07T12:29:39+02:00</time>
      </trkpt>
      <trkpt lat="43.48837" lon="6.91844">
        <ele>204.898071</ele>
        <time>2012-05-07T12:29:41+02:00</time>
      </trkpt>
      <trkpt lat="43.48822" lon="6.91824">
        <ele>206.340088</ele>
        <time>2012-05-07T12:29:47+02:00</time>
      </trkpt>
      <trkpt lat="43.48819" lon="6.91821">
        <ele>206.340088</ele>
        <time>2012-05-07T12:29:48+02:00</time>
      </trkpt>
      <trkpt lat="43.488" lon="6.91796">
        <ele>206.820679</ele>
        <time>2012-05-07T12:29:56+02:00</time>
      </trkpt>
      <trkpt lat="43.48786" lon="6.9178">
        <ele>207.301392</ele>
        <time>2012-05-07T12:30:01+02:00</time>
      </trkpt>
      <trkpt lat="43.48772" lon="6.91771">
        <ele>208.743408</ele>
        <time>2012-05-07T12:30:06+02:00</time>
      </trkpt>
      <trkpt lat="43.48755" lon="6.9176">
        <ele>209.704834</ele>
        <time>2012-05-07T12:30:13+02:00</time>
      </trkpt>
      <trkpt lat="43.48743" lon="6.91753">
        <ele>212.588623</ele>
        <time>2012-05-07T12:30:19+02:00</time>
      </trkpt>
      <trkpt lat="43.4873" lon="6.91748">
        <ele>214.03064</ele>
        <time>2012-05-07T12:30:25+02:00</time>
      </trkpt>
      <trkpt lat="43.48717" lon="6.9174">
        <ele>215.472656</ele>
        <time>2012-05-07T12:30:31+02:00</time>
      </trkpt>
      <trkpt lat="43.48701" lon="6.91729">
        <ele>216.43396</ele>
        <time>2012-05-07T12:30:39+02:00</time>
      </trkpt>
      <trkpt lat="43.48685" lon="6.91711">
        <ele>216.914673</ele>
        <time>2012-05-07T12:30:47+02:00</time>
      </trkpt>
      <trkpt lat="43.48671" lon="6.91699">
        <ele>217.395386</ele>
        <time>2012-05-07T12:30:54+02:00</time>
      </trkpt>
      <trkpt lat="43.48659" lon="6.91684">
        <ele>217.875977</ele>
        <time>2012-05-07T12:31:02+02:00</time>
      </trkpt>
      <trkpt lat="43.4865" lon="6.91672">
        <ele>218.83728</ele>
        <time>2012-05-07T12:31:09+02:00</time>
      </trkpt>
      <trkpt lat="43.48641" lon="6.91657">
        <ele>219.798584</ele>
        <time>2012-05-07T12:31:17+02:00</time>
      </trkpt>
      <trkpt lat="43.48632" lon="6.9164">
        <ele>221.240601</ele>
        <time>2012-05-07T12:31:25+02:00</time>
      </trkpt>
      <trkpt lat="43.48625" lon="6.91625">
        <ele>222.201782</ele>
        <time>2012-05-07T12:31:32+02:00</time>
      </trkpt>
      <trkpt lat="43.48618" lon="6.9161">
        <ele>223.643799</ele>
        <time>2012-05-07T12:31:39+02:00</time>
      </trkpt>
      <trkpt lat="43.48608" lon="6.91597">
        <ele>226.047119</ele>
        <time>2012-05-07T12:31:46+02:00</time>
      </trkpt>
      <trkpt lat="43.48603" lon="6.91577">
        <ele>227.489136</ele>
        <time>2012-05-07T12:31:52+02:00</time>
      </trkpt>
      <trkpt lat="43.48599" lon="6.91557">
        <ele>228.931152</ele>
        <time>2012-05-07T12:31:58+02:00</time>
      </trkpt>
      <trkpt lat="43.48588" lon="6.91545">
        <ele>229.892334</ele>
        <time>2012-05-07T12:32:03+02:00</time>
      </trkpt>
      <trkpt lat="43.4857" lon="6.91543">
        <ele>229.892334</ele>
        <time>2012-05-07T12:32:09+02:00</time>
      </trkpt>
      <trkpt lat="43.48556" lon="6.9154">
        <ele>230.373047</ele>
        <time>2012-05-07T12:32:15+02:00</time>
      </trkpt>
      <trkpt lat="43.48537" lon="6.91539">
        <ele>231.334351</ele>
        <time>2012-05-07T12:32:24+02:00</time>
      </trkpt>
      <trkpt lat="43.48521" lon="6.9154">
        <ele>232.295776</ele>
        <time>2012-05-07T12:32:31+02:00</time>
      </trkpt>
      <trkpt lat="43.48504" lon="6.9155">
        <ele>235.179688</ele>
        <time>2012-05-07T12:32:39+02:00</time>
      </trkpt>
      <trkpt lat="43.48488" lon="6.91555">
        <ele>237.582886</ele>
        <time>2012-05-07T12:32:46+02:00</time>
      </trkpt>
      <trkpt lat="43.4847" lon="6.9156">
        <ele>239.505493</ele>
        <time>2012-05-07T12:32:54+02:00</time>
      </trkpt>
      <trkpt lat="43.48453" lon="6.91566">
        <ele>241.908936</ele>
        <time>2012-05-07T12:33:02+02:00</time>
      </trkpt>
      <trkpt lat="43.48437" lon="6.9157">
        <ele>243.35083</ele>
        <time>2012-05-07T12:33:10+02:00</time>
      </trkpt>
      <trkpt lat="43.4842" lon="6.91574">
        <ele>244.312256</ele>
        <time>2012-05-07T12:33:18+02:00</time>
      </trkpt>
      <trkpt lat="43.4841" lon="6.91577">
        <ele>245.273438</ele>
        <time>2012-05-07T12:33:23+02:00</time>
      </trkpt>
      <trkpt lat="43.48398" lon="6.91573">
        <ele>246.234863</ele>
        <time>2012-05-07T12:33:28+02:00</time>
      </trkpt>
      <trkpt lat="43.48383" lon="6.91565">
        <ele>247.676758</ele>
        <time>2012-05-07T12:33:35+02:00</time>
      </trkpt>
      <trkpt lat="43.48363" lon="6.91555">
        <ele>251.041382</ele>
        <time>2012-05-07T12:33:45+02:00</time>
      </trkpt>
      <trkpt lat="43.48344" lon="6.91555">
        <ele>252.483398</ele>
        <time>2012-05-07T12:33:53+02:00</time>
      </trkpt>
      <trkpt lat="43.48324" lon="6.91557">
        <ele>253.925415</ele>
        <time>2012-05-07T12:34:01+02:00</time>
      </trkpt>
      <trkpt lat="43.48304" lon="6.91565">
        <ele>256.328735</ele>
        <time>2012-05-07T12:34:09+02:00</time>
      </trkpt>
      <trkpt lat="43.48285" lon="6.91583">
        <ele>260.654541</ele>
        <time>2012-05-07T12:34:18+02:00</time>
      </trkpt>
      <trkpt lat="43.48272" lon="6.916">
        <ele>262.096558</ele>
        <time>2012-05-07T12:34:25+02:00</time>
      </trkpt>
      <trkpt lat="43.48257" lon="6.91619">
        <ele>264.019287</ele>
        <time>2012-05-07T12:34:33+02:00</time>
      </trkpt>
      <trkpt lat="43.48245" lon="6.91635">
        <ele>265.461304</ele>
        <time>2012-05-07T12:34:40+02:00</time>
      </trkpt>
      <trkpt lat="43.48238" lon="6.91645">
        <ele>266.422485</ele>
        <time>2012-05-07T12:34:46+02:00</time>
      </trkpt>
      <trkpt lat="43.48237" lon="6.91646">
        <ele>266.422485</ele>
        <time>2012-05-07T12:34:47+02:00</time>
      </trkpt>
      <trkpt lat="43.48232" lon="6.91645">
        <ele>267.383911</ele>
        <time>2012-05-07T12:34:53+02:00</time>
      </trkpt>
      <trkpt lat="43.48232" lon="6.91645">
        <ele>268.345093</ele>
        <time>2012-05-07T12:35:00+02:00</time>
      </trkpt>
      <trkpt lat="43.48232" lon="6.91645">
        <ele>268.825806</ele>
        <time>2012-05-07T12:35:09+02:00</time>
      </trkpt>
      <trkpt lat="43.48232" lon="6.91645">
        <ele>270.2677</ele>
        <time>2012-05-07T12:35:15+02:00</time>
      </trkpt>
      <trkpt lat="43.48232" lon="6.91646">
        <ele>270.2677</ele>
        <time>2012-05-07T12:35:22+02:00</time>
      </trkpt>
      <trkpt lat="43.48232" lon="6.91646">
        <ele>271.229126</ele>
        <time>2012-05-07T12:35:39+02:00</time>
      </trkpt>
      <trkpt lat="43.48232" lon="6.91647">
        <ele>271.229126</ele>
        <time>2012-05-07T12:35:47+02:00</time>
      </trkpt>
      <trkpt lat="43.48232" lon="6.91647">
        <ele>271.229126</ele>
        <time>2012-05-07T12:36:21+02:00</time>
      </trkpt>
      <trkpt lat="43.48232" lon="6.91647">
        <ele>271.229126</ele>
        <time>2012-05-07T12:36:28+02:00</time>
      </trkpt>
      <trkpt lat="43.48232" lon="6.91647">
        <ele>271.229126</ele>
        <time>2012-05-07T12:36:38+02:00</time>
      </trkpt>
      <trkpt lat="43.48231" lon="6.91647">
        <ele>272.19043</ele>
        <time>2012-05-07T12:36:49+02:00</time>
      </trkpt>
      <trkpt lat="43.48231" lon="6.91648">
        <ele>272.19043</ele>
        <time>2012-05-07T12:36:58+02:00</time>
      </trkpt>
      <trkpt lat="43.48232" lon="6.91648">
        <ele>272.19043</ele>
        <time>2012-05-07T12:37:10+02:00</time>
      </trkpt>
      <trkpt lat="43.48232" lon="6.91648">
        <ele>272.19043</ele>
        <time>2012-05-07T12:37:17+02:00</time>
      </trkpt>
      <trkpt lat="43.48233" lon="6.91648">
        <ele>269.787109</ele>
        <time>2012-05-07T12:39:14+02:00</time>
      </trkpt>
      <trkpt lat="43.48232" lon="6.91648">
        <ele>269.787109</ele>
        <time>2012-05-07T12:39:19+02:00</time>
      </trkpt>
      <trkpt lat="43.48232" lon="6.91648">
        <ele>269.787109</ele>
        <time>2012-05-07T12:39:26+02:00</time>
      </trkpt>
      <trkpt lat="43.48232" lon="6.91648">
        <ele>269.787109</ele>
        <time>2012-05-07T12:39:40+02:00</time>
      </trkpt>
      <trkpt lat="43.48232" lon="6.91648">
        <ele>271.709717</ele>
        <time>2012-05-07T12:40:03+02:00</time>
      </trkpt>
      <trkpt lat="43.48232" lon="6.91649">
        <ele>270.748413</ele>
        <time>2012-05-07T12:40:19+02:00</time>
      </trkpt>
      <trkpt lat="43.48231" lon="6.91648">
        <ele>270.748413</ele>
        <time>2012-05-07T12:40:35+02:00</time>
      </trkpt>
      <trkpt lat="43.48232" lon="6.91648">
        <ele>271.229126</ele>
        <time>2012-05-07T12:40:41+02:00</time>
      </trkpt>
      <trkpt lat="43.48232" lon="6.91647">
        <ele>271.709717</ele>
        <time>2012-05-07T12:40:59+02:00</time>
      </trkpt>
      <trkpt lat="43.48233" lon="6.91648">
        <ele>267.864502</ele>
        <time>2012-05-07T12:41:39+02:00</time>
      </trkpt>
      <trkpt lat="43.48232" lon="6.91648">
        <ele>269.787109</ele>
        <time>2012-05-07T12:42:11+02:00</time>
      </trkpt>
      <trkpt lat="43.48231" lon="6.91648">
        <ele>271.229126</ele>
        <time>2012-05-07T12:42:34+02:00</time>
      </trkpt>
      <trkpt lat="43.48231" lon="6.91648">
        <ele>271.709717</ele>
        <time>2012-05-07T12:42:40+02:00</time>
      </trkpt>
      <trkpt lat="43.48232" lon="6.91644">
        <ele>272.19043</ele>
        <time>2012-05-07T12:42:44+02:00</time>
      </trkpt>
      <trkpt lat="43.48233" lon="6.91637">
        <ele>272.19043</ele>
        <time>2012-05-07T12:42:48+02:00</time>
      </trkpt>
      <trkpt lat="43.48232" lon="6.91625">
        <ele>273.151855</ele>
        <time>2012-05-07T12:42:54+02:00</time>
      </trkpt>
      <trkpt lat="43.48229" lon="6.9161">
        <ele>273.632446</ele>
        <time>2012-05-07T12:43:01+02:00</time>
      </trkpt>
      <trkpt lat="43.48228" lon="6.91596">
        <ele>274.59375</ele>
        <time>2012-05-07T12:43:07+02:00</time>
      </trkpt>
      <trkpt lat="43.48227" lon="6.91583">
        <ele>275.555054</ele>
        <time>2012-05-07T12:43:12+02:00</time>
      </trkpt>
      <trkpt lat="43.48226" lon="6.91568">
        <ele>276.99707</ele>
        <time>2012-05-07T12:43:18+02:00</time>
      </trkpt>
      <trkpt lat="43.48227" lon="6.91554">
        <ele>278.438965</ele>
        <time>2012-05-07T12:43:25+02:00</time>
      </trkpt>
      <trkpt lat="43.48227" lon="6.91534">
        <ele>280.842407</ele>
        <time>2012-05-07T12:43:31+02:00</time>
      </trkpt>
      <trkpt lat="43.48226" lon="6.91514">
        <ele>283.726196</ele>
        <time>2012-05-07T12:43:38+02:00</time>
      </trkpt>
      <trkpt lat="43.48223" lon="6.91499">
        <ele>285.648804</ele>
        <time>2012-05-07T12:43:43+02:00</time>
      </trkpt>
      <trkpt lat="43.48221" lon="6.91478">
        <ele>287.09082</ele>
        <time>2012-05-07T12:43:50+02:00</time>
      </trkpt>
      <trkpt lat="43.48218" lon="6.91459">
        <ele>289.01355</ele>
        <time>2012-05-07T12:43:58+02:00</time>
      </trkpt>
      <trkpt lat="43.48211" lon="6.91442">
        <ele>289.974854</ele>
        <time>2012-05-07T12:44:06+02:00</time>
      </trkpt>
      <trkpt lat="43.48201" lon="6.9143">
        <ele>290.936157</ele>
        <time>2012-05-07T12:44:13+02:00</time>
      </trkpt>
      <trkpt lat="43.48187" lon="6.91416">
        <ele>293.339355</ele>
        <time>2012-05-07T12:44:22+02:00</time>
      </trkpt>
      <trkpt lat="43.48173" lon="6.91408">
        <ele>295.261963</ele>
        <time>2012-05-07T12:44:30+02:00</time>
      </trkpt>
      <trkpt lat="43.48162" lon="6.91402">
        <ele>297.184692</ele>
        <time>2012-05-07T12:44:37+02:00</time>
      </trkpt>
      <trkpt lat="43.4815" lon="6.91396">
        <ele>298.626709</ele>
        <time>2012-05-07T12:44:44+02:00</time>
      </trkpt>
      <trkpt lat="43.48137" lon="6.91385">
        <ele>300.068726</ele>
        <time>2012-05-07T12:44:52+02:00</time>
      </trkpt>
      <trkpt lat="43.48125" lon="6.9137">
        <ele>301.991333</ele>
        <time>2012-05-07T12:45:00+02:00</time>
      </trkpt>
      <trkpt lat="43.4812" lon="6.91356">
        <ele>303.433228</ele>
        <time>2012-05-07T12:45:06+02:00</time>
      </trkpt>
      <trkpt lat="43.48117" lon="6.9134">
        <ele>304.394653</ele>
        <time>2012-05-07T12:45:12+02:00</time>
      </trkpt>
      <trkpt lat="43.48116" lon="6.91326">
        <ele>305.355957</ele>
        <time>2012-05-07T12:45:18+02:00</time>
      </trkpt>
      <trkpt lat="43.48113" lon="6.91309">
        <ele>306.317261</ele>
        <time>2012-05-07T12:45:25+02:00</time>
      </trkpt>
      <trkpt lat="43.48109" lon="6.91291">
        <ele>307.278564</ele>
        <time>2012-05-07T12:45:33+02:00</time>
      </trkpt>
      <trkpt lat="43.48105" lon="6.91276">
        <ele>308.239868</ele>
        <time>2012-05-07T12:45:40+02:00</time>
      </trkpt>
      <trkpt lat="43.481" lon="6.91259">
        <ele>310.162476</ele>
        <time>2012-05-07T12:45:48+02:00</time>
      </trkpt>
      <trkpt lat="43.48093" lon="6.91244">
        <ele>312.085205</ele>
        <time>2012-05-07T12:45:55+02:00</time>
      </trkpt>
      <trkpt lat="43.48084" lon="6.91229">
        <ele>314.007812</ele>
        <time>2012-05-07T12:46:02+02:00</time>
      </trkpt>
      <trkpt lat="43.48074" lon="6.91212">
        <ele>316.891724</ele>
        <time>2012-05-07T12:46:10+02:00</time>
      </trkpt>
      <trkpt lat="43.48066" lon="6.91197">
        <ele>320.256348</ele>
        <time>2012-05-07T12:46:16+02:00</time>
      </trkpt>
      <trkpt lat="43.48062" lon="6.91185">
        <ele>321.217773</ele>
        <time>2012-05-07T12:46:22+02:00</time>
      </trkpt>
      <trkpt lat="43.48057" lon="6.91172">
        <ele>321.217773</ele>
        <time>2012-05-07T12:46:29+02:00</time>
      </trkpt>
      <trkpt lat="43.48047" lon="6.91166">
        <ele>322.178955</ele>
        <time>2012-05-07T12:46:37+02:00</time>
      </trkpt>
      <trkpt lat="43.48037" lon="6.91173">
        <ele>323.140381</ele>
        <time>2012-05-07T12:46:45+02:00</time>
      </trkpt>
      <trkpt lat="43.48035" lon="6.91175">
        <ele>324.101562</ele>
        <time>2012-05-07T12:46:52+02:00</time>
      </trkpt>
      <trkpt lat="43.48032" lon="6.91174">
        <ele>324.582275</ele>
        <time>2012-05-07T12:46:59+02:00</time>
      </trkpt>
      <trkpt lat="43.48033" lon="6.9117">
        <ele>325.062988</ele>
        <time>2012-05-07T12:47:06+02:00</time>
      </trkpt>
      <trkpt lat="43.48033" lon="6.91172">
        <ele>325.543579</ele>
        <time>2012-05-07T12:47:14+02:00</time>
      </trkpt>
      <trkpt lat="43.48033" lon="6.91172">
        <ele>324.582275</ele>
        <time>2012-05-07T12:47:26+02:00</time>
      </trkpt>
      <trkpt lat="43.48034" lon="6.91171">
        <ele>325.062988</ele>
        <time>2012-05-07T12:47:32+02:00</time>
      </trkpt>
      <trkpt lat="43.4803" lon="6.91172">
        <ele>325.543579</ele>
        <time>2012-05-07T12:48:01+02:00</time>
      </trkpt>
      <trkpt lat="43.48032" lon="6.91174">
        <ele>327.946777</ele>
        <time>2012-05-07T12:48:16+02:00</time>
      </trkpt>
      <trkpt lat="43.48032" lon="6.91175">
        <ele>328.908325</ele>
        <time>2012-05-07T12:48:29+02:00</time>
      </trkpt>
      <trkpt lat="43.48032" lon="6.91176">
        <ele>330.35022</ele>
        <time>2012-05-07T12:48:43+02:00</time>
      </trkpt>
      <trkpt lat="43.48032" lon="6.91176">
        <ele>331.311523</ele>
        <time>2012-05-07T12:49:06+02:00</time>
      </trkpt>
      <trkpt lat="43.48033" lon="6.91176">
        <ele>331.311523</ele>
        <time>2012-05-07T12:49:30+02:00</time>
      </trkpt>
      <trkpt lat="43.48033" lon="6.91176">
        <ele>330.830933</ele>
        <time>2012-05-07T12:49:50+02:00</time>
      </trkpt>
      <trkpt lat="43.48033" lon="6.91176">
        <ele>330.35022</ele>
        <time>2012-05-07T12:50:17+02:00</time>
      </trkpt>
      <trkpt lat="43.48032" lon="6.91175">
        <ele>330.35022</ele>
        <time>2012-05-07T12:50:24+02:00</time>
      </trkpt>
      <trkpt lat="43.48031" lon="6.91178">
        <ele>330.830933</ele>
        <time>2012-05-07T12:50:31+02:00</time>
      </trkpt>
      <trkpt lat="43.4803" lon="6.91179">
        <ele>330.830933</ele>
        <time>2012-05-07T12:50:37+02:00</time>
      </trkpt>
      <trkpt lat="43.4803" lon="6.91177">
        <ele>330.35022</ele>
        <time>2012-05-07T12:50:41+02:00</time>
      </trkpt>
      <trkpt lat="43.48031" lon="6.91177">
        <ele>329.869507</ele>
        <time>2012-05-07T12:50:46+02:00</time>
      </trkpt>
      <trkpt lat="43.48031" lon="6.91176">
        <ele>330.35022</ele>
        <time>2012-05-07T12:50:52+02:00</time>
      </trkpt>
      <trkpt lat="43.48031" lon="6.91176">
        <ele>330.35022</ele>
        <time>2012-05-07T12:51:04+02:00</time>
      </trkpt>
      <trkpt lat="43.48031" lon="6.91174">
        <ele>330.830933</ele>
        <time>2012-05-07T12:51:11+02:00</time>
      </trkpt>
      <trkpt lat="43.48031" lon="6.91174">
        <ele>330.830933</ele>
        <time>2012-05-07T12:51:16+02:00</time>
      </trkpt>
      <trkpt lat="43.48032" lon="6.91174">
        <ele>331.311523</ele>
        <time>2012-05-07T12:51:23+02:00</time>
      </trkpt>
      <trkpt lat="43.48032" lon="6.91173">
        <ele>331.311523</ele>
        <time>2012-05-07T12:51:35+02:00</time>
      </trkpt>
      <trkpt lat="43.48031" lon="6.91173">
        <ele>330.830933</ele>
        <time>2012-05-07T12:51:40+02:00</time>
      </trkpt>
      <trkpt lat="43.48029" lon="6.91173">
        <ele>329.869507</ele>
        <time>2012-05-07T12:51:47+02:00</time>
      </trkpt>
      <trkpt lat="43.48028" lon="6.91172">
        <ele>329.869507</ele>
        <time>2012-05-07T12:51:48+02:00</time>
      </trkpt>
      <trkpt lat="43.48013" lon="6.91171">
        <ele>330.830933</ele>
        <time>2012-05-07T12:51:56+02:00</time>
      </trkpt>
      <trkpt lat="43.47998" lon="6.91163">
        <ele>330.830933</ele>
        <time>2012-05-07T12:52:04+02:00</time>
      </trkpt>
      <trkpt lat="43.47982" lon="6.9115">
        <ele>331.311523</ele>
        <time>2012-05-07T12:52:13+02:00</time>
      </trkpt>
      <trkpt lat="43.47971" lon="6.91141">
        <ele>332.272827</ele>
        <time>2012-05-07T12:52:20+02:00</time>
      </trkpt>
      <trkpt lat="43.47958" lon="6.91132">
        <ele>332.75354</ele>
        <time>2012-05-07T12:52:27+02:00</time>
      </trkpt>
      <trkpt lat="43.4794" lon="6.91127">
        <ele>333.714722</ele>
        <time>2012-05-07T12:52:35+02:00</time>
      </trkpt>
      <trkpt lat="43.47927" lon="6.91127">
        <ele>334.195435</ele>
        <time>2012-05-07T12:52:41+02:00</time>
      </trkpt>
      <trkpt lat="43.47905" lon="6.91132">
        <ele>335.156738</ele>
        <time>2012-05-07T12:52:51+02:00</time>
      </trkpt>
      <trkpt lat="43.47889" lon="6.91139">
        <ele>337.079468</ele>
        <time>2012-05-07T12:52:58+02:00</time>
      </trkpt>
      <trkpt lat="43.4787" lon="6.91154">
        <ele>338.040771</ele>
        <time>2012-05-07T12:53:07+02:00</time>
      </trkpt>
      <trkpt lat="43.47849" lon="6.91175">
        <ele>339.963379</ele>
        <time>2012-05-07T12:53:18+02:00</time>
      </trkpt>
      <trkpt lat="43.47834" lon="6.91191">
        <ele>340.924683</ele>
        <time>2012-05-07T12:53:26+02:00</time>
      </trkpt>
      <trkpt lat="43.4782" lon="6.91209">
        <ele>342.366699</ele>
        <time>2012-05-07T12:53:34+02:00</time>
      </trkpt>
      <trkpt lat="43.47802" lon="6.91229">
        <ele>343.808594</ele>
        <time>2012-05-07T12:53:44+02:00</time>
      </trkpt>
      <trkpt lat="43.47784" lon="6.91245">
        <ele>346.692627</ele>
        <time>2012-05-07T12:53:53+02:00</time>
      </trkpt>
      <trkpt lat="43.47772" lon="6.91257">
        <ele>347.653931</ele>
        <time>2012-05-07T12:53:59+02:00</time>
      </trkpt>
      <trkpt lat="43.47755" lon="6.91272">
        <ele>349.095825</ele>
        <time>2012-05-07T12:54:07+02:00</time>
      </trkpt>
      <trkpt lat="43.47739" lon="6.91287">
        <ele>349.095825</ele>
        <time>2012-05-07T12:54:15+02:00</time>
      </trkpt>
      <trkpt lat="43.47725" lon="6.91302">
        <ele>349.576538</ele>
        <time>2012-05-07T12:54:23+02:00</time>
      </trkpt>
      <trkpt lat="43.47714" lon="6.91314">
        <ele>349.576538</ele>
        <time>2012-05-07T12:54:29+02:00</time>
      </trkpt>
      <trkpt lat="43.47699" lon="6.91322">
        <ele>349.576538</ele>
        <time>2012-05-07T12:54:35+02:00</time>
      </trkpt>
      <trkpt lat="43.47682" lon="6.91318">
        <ele>349.576538</ele>
        <time>2012-05-07T12:54:41+02:00</time>
      </trkpt>
      <trkpt lat="43.47669" lon="6.91308">
        <ele>349.095825</ele>
        <time>2012-05-07T12:54:47+02:00</time>
      </trkpt>
      <trkpt lat="43.47652" lon="6.9129">
        <ele>350.057251</ele>
        <time>2012-05-07T12:54:55+02:00</time>
      </trkpt>
      <trkpt lat="43.4764" lon="6.91278">
        <ele>350.537842</ele>
        <time>2012-05-07T12:55:01+02:00</time>
      </trkpt>
      <trkpt lat="43.47628" lon="6.91261">
        <ele>351.979858</ele>
        <time>2012-05-07T12:55:09+02:00</time>
      </trkpt>
      <trkpt lat="43.47614" lon="6.91241">
        <ele>354.383179</ele>
        <time>2012-05-07T12:55:18+02:00</time>
      </trkpt>
      <trkpt lat="43.47604" lon="6.91231">
        <ele>355.344482</ele>
        <time>2012-05-07T12:55:24+02:00</time>
      </trkpt>
      <trkpt lat="43.47586" lon="6.9122">
        <ele>357.747803</ele>
        <time>2012-05-07T12:55:33+02:00</time>
      </trkpt>
      <trkpt lat="43.47566" lon="6.91212">
        <ele>359.189697</ele>
        <time>2012-05-07T12:55:42+02:00</time>
      </trkpt>
      <trkpt lat="43.47547" lon="6.91212">
        <ele>360.151123</ele>
        <time>2012-05-07T12:55:50+02:00</time>
      </trkpt>
      <trkpt lat="43.47529" lon="6.91217">
        <ele>360.631714</ele>
        <time>2012-05-07T12:55:57+02:00</time>
      </trkpt>
      <trkpt lat="43.47517" lon="6.91209">
        <ele>361.112427</ele>
        <time>2012-05-07T12:56:02+02:00</time>
      </trkpt>
      <trkpt lat="43.47509" lon="6.91186">
        <ele>362.07373</ele>
        <time>2012-05-07T12:56:09+02:00</time>
      </trkpt>
      <trkpt lat="43.47502" lon="6.91161">
        <ele>363.035034</ele>
        <time>2012-05-07T12:56:17+02:00</time>
      </trkpt>
      <trkpt lat="43.47493" lon="6.9114">
        <ele>363.996338</ele>
        <time>2012-05-07T12:56:24+02:00</time>
      </trkpt>
      <trkpt lat="43.47482" lon="6.91116">
        <ele>364.476929</ele>
        <time>2012-05-07T12:56:32+02:00</time>
      </trkpt>
      <trkpt lat="43.47473" lon="6.91094">
        <ele>365.438354</ele>
        <time>2012-05-07T12:56:39+02:00</time>
      </trkpt>
      <trkpt lat="43.4747" lon="6.91064">
        <ele>366.399536</ele>
        <time>2012-05-07T12:56:47+02:00</time>
      </trkpt>
      <trkpt lat="43.4747" lon="6.91033">
        <ele>367.360962</ele>
        <time>2012-05-07T12:56:56+02:00</time>
      </trkpt>
      <trkpt lat="43.47468" lon="6.91011">
        <ele>367.841553</ele>
        <time>2012-05-07T12:57:02+02:00</time>
      </trkpt>
      <trkpt lat="43.47464" lon="6.90978">
        <ele>369.283691</ele>
        <time>2012-05-07T12:57:11+02:00</time>
      </trkpt>
      <trkpt lat="43.47453" lon="6.90945">
        <ele>370.725586</ele>
        <time>2012-05-07T12:57:20+02:00</time>
      </trkpt>
      <trkpt lat="43.47442" lon="6.90914">
        <ele>373.128906</ele>
        <time>2012-05-07T12:57:29+02:00</time>
      </trkpt>
      <trkpt lat="43.47429" lon="6.90891">
        <ele>375.051514</ele>
        <time>2012-05-07T12:57:37+02:00</time>
      </trkpt>
      <trkpt lat="43.4742" lon="6.90874">
        <ele>375.532104</ele>
        <time>2012-05-07T12:57:43+02:00</time>
      </trkpt>
      <trkpt lat="43.47402" lon="6.90854">
        <ele>376.012817</ele>
        <time>2012-05-07T12:57:52+02:00</time>
      </trkpt>
      <trkpt lat="43.47388" lon="6.90834">
        <ele>377.935425</ele>
        <time>2012-05-07T12:58:01+02:00</time>
      </trkpt>
      <trkpt lat="43.47382" lon="6.90819">
        <ele>378.896851</ele>
        <time>2012-05-07T12:58:08+02:00</time>
      </trkpt>
      <trkpt lat="43.47382" lon="6.90818">
        <ele>379.858032</ele>
        <time>2012-05-07T12:58:17+02:00</time>
      </trkpt>
      <trkpt lat="43.47382" lon="6.90817">
        <ele>379.858032</ele>
        <time>2012-05-07T12:58:23+02:00</time>
      </trkpt>
      <trkpt lat="43.47383" lon="6.90816">
        <ele>379.858032</ele>
        <time>2012-05-07T12:58:28+02:00</time>
      </trkpt>
      <trkpt lat="43.47383" lon="6.90816">
        <ele>380.338745</ele>
        <time>2012-05-07T12:58:34+02:00</time>
      </trkpt>
      <trkpt lat="43.47384" lon="6.90816">
        <ele>379.858032</ele>
        <time>2012-05-07T12:58:53+02:00</time>
      </trkpt>
      <trkpt lat="43.47384" lon="6.90816">
        <ele>378.416138</ele>
        <time>2012-05-07T12:59:03+02:00</time>
      </trkpt>
      <trkpt lat="43.47384" lon="6.90817">
        <ele>377.935425</ele>
        <time>2012-05-07T12:59:12+02:00</time>
      </trkpt>
      <trkpt lat="43.47386" lon="6.90816">
        <ele>377.935425</ele>
        <time>2012-05-07T12:59:15+02:00</time>
      </trkpt>
      <trkpt lat="43.47385" lon="6.90818">
        <ele>377.454834</ele>
        <time>2012-05-07T12:59:23+02:00</time>
      </trkpt>
      <trkpt lat="43.47384" lon="6.90818">
        <ele>377.454834</ele>
        <time>2012-05-07T12:59:32+02:00</time>
      </trkpt>
      <trkpt lat="43.47384" lon="6.90819">
        <ele>377.935425</ele>
        <time>2012-05-07T12:59:41+02:00</time>
      </trkpt>
      <trkpt lat="43.47383" lon="6.90819">
        <ele>377.935425</ele>
        <time>2012-05-07T12:59:48+02:00</time>
      </trkpt>
      <trkpt lat="43.47384" lon="6.90819">
        <ele>377.935425</ele>
        <time>2012-05-07T12:59:52+02:00</time>
      </trkpt>
      <trkpt lat="43.47385" lon="6.9082">
        <ele>377.454834</ele>
        <time>2012-05-07T12:59:54+02:00</time>
      </trkpt>
      <trkpt lat="43.47391" lon="6.90838">
        <ele>376.974243</ele>
        <time>2012-05-07T13:00:00+02:00</time>
      </trkpt>
      <trkpt lat="43.47398" lon="6.90848">
        <ele>376.49353</ele>
        <time>2012-05-07T13:00:04+02:00</time>
      </trkpt>
      <trkpt lat="43.47403" lon="6.90853">
        <ele>376.49353</ele>
        <time>2012-05-07T13:00:06+02:00</time>
      </trkpt>
      <trkpt lat="43.47407" lon="6.90859">
        <ele>376.012817</ele>
        <time>2012-05-07T13:00:10+02:00</time>
      </trkpt>
      <trkpt lat="43.47406" lon="6.90859">
        <ele>376.49353</ele>
        <time>2012-05-07T13:00:13+02:00</time>
      </trkpt>
      <trkpt lat="43.47405" lon="6.90859">
        <ele>376.49353</ele>
        <time>2012-05-07T13:00:15+02:00</time>
      </trkpt>
      <trkpt lat="43.474" lon="6.90858">
        <ele>376.012817</ele>
        <time>2012-05-07T13:00:19+02:00</time>
      </trkpt>
      <trkpt lat="43.47396" lon="6.90856">
        <ele>374.570801</ele>
        <time>2012-05-07T13:00:25+02:00</time>
      </trkpt>
      <trkpt lat="43.4739" lon="6.90853">
        <ele>373.128906</ele>
        <time>2012-05-07T13:00:29+02:00</time>
      </trkpt>
      <trkpt lat="43.47377" lon="6.90849">
        <ele>371.206299</ele>
        <time>2012-05-07T13:00:35+02:00</time>
      </trkpt>
      <trkpt lat="43.4736" lon="6.90847">
        <ele>369.283691</ele>
        <time>2012-05-07T13:00:40+02:00</time>
      </trkpt>
      <trkpt lat="43.47349" lon="6.90848">
        <ele>368.322266</ele>
        <time>2012-05-07T13:00:45+02:00</time>
      </trkpt>
      <trkpt lat="43.47348" lon="6.90848">
        <ele>368.322266</ele>
        <time>2012-05-07T13:00:50+02:00</time>
      </trkpt>
      <trkpt lat="43.47342" lon="6.90847">
        <ele>368.802979</ele>
        <time>2012-05-07T13:00:57+02:00</time>
      </trkpt>
      <trkpt lat="43.47342" lon="6.90847">
        <ele>369.764282</ele>
        <time>2012-05-07T13:01:03+02:00</time>
      </trkpt>
      <trkpt lat="43.47339" lon="6.90846">
        <ele>371.206299</ele>
        <time>2012-05-07T13:01:14+02:00</time>
      </trkpt>
      <trkpt lat="43.47337" lon="6.90846">
        <ele>370.725586</ele>
        <time>2012-05-07T13:01:16+02:00</time>
      </trkpt>
      <trkpt lat="43.47329" lon="6.90845">
        <ele>368.802979</ele>
        <time>2012-05-07T13:01:20+02:00</time>
      </trkpt>
      <trkpt lat="43.47307" lon="6.90843">
        <ele>365.918945</ele>
        <time>2012-05-07T13:01:26+02:00</time>
      </trkpt>
      <trkpt lat="43.47308" lon="6.9085">
        <ele>364.957642</ele>
        <time>2012-05-07T13:01:31+02:00</time>
      </trkpt>
      <trkpt lat="43.47324" lon="6.90864">
        <ele>360.631714</ele>
        <time>2012-05-07T13:01:37+02:00</time>
      </trkpt>
      <trkpt lat="43.47334" lon="6.90872">
        <ele>359.67041</ele>
        <time>2012-05-07T13:01:41+02:00</time>
      </trkpt>
      <trkpt lat="43.47338" lon="6.90873">
        <ele>358.708984</ele>
        <time>2012-05-07T13:01:43+02:00</time>
      </trkpt>
      <trkpt lat="43.47342" lon="6.90877">
        <ele>357.747803</ele>
        <time>2012-05-07T13:01:49+02:00</time>
      </trkpt>
      <trkpt lat="43.47354" lon="6.90885">
        <ele>355.825195</ele>
        <time>2012-05-07T13:01:53+02:00</time>
      </trkpt>
      <trkpt lat="43.47353" lon="6.9089">
        <ele>354.383179</ele>
        <time>2012-05-07T13:01:57+02:00</time>
      </trkpt>
      <trkpt lat="43.47339" lon="6.9089">
        <ele>351.979858</ele>
        <time>2012-05-07T13:02:01+02:00</time>
      </trkpt>
      <trkpt lat="43.47314" lon="6.90895">
        <ele>348.134644</ele>
        <time>2012-05-07T13:02:08+02:00</time>
      </trkpt>
      <trkpt lat="43.47298" lon="6.90899">
        <ele>345.731323</ele>
        <time>2012-05-07T13:02:12+02:00</time>
      </trkpt>
      <trkpt lat="43.47279" lon="6.90905">
        <ele>342.366699</ele>
        <time>2012-05-07T13:02:17+02:00</time>
      </trkpt>
      <trkpt lat="43.47261" lon="6.90914">
        <ele>339.482666</ele>
        <time>2012-05-07T13:02:22+02:00</time>
      </trkpt>
      <trkpt lat="43.47238" lon="6.90925">
        <ele>334.676147</ele>
        <time>2012-05-07T13:02:28+02:00</time>
      </trkpt>
      <trkpt lat="43.47228" lon="6.9093">
        <ele>331.792114</ele>
        <time>2012-05-07T13:02:33+02:00</time>
      </trkpt>
      <trkpt lat="43.4722" lon="6.90936">
        <ele>329.869507</ele>
        <time>2012-05-07T13:02:37+02:00</time>
      </trkpt>
      <trkpt lat="43.4721" lon="6.90941">
        <ele>327.946777</ele>
        <time>2012-05-07T13:02:41+02:00</time>
      </trkpt>
      <trkpt lat="43.47196" lon="6.90947">
        <ele>326.985596</ele>
        <time>2012-05-07T13:02:45+02:00</time>
      </trkpt>
      <trkpt lat="43.47186" lon="6.90952">
        <ele>325.543579</ele>
        <time>2012-05-07T13:02:49+02:00</time>
      </trkpt>
      <trkpt lat="43.47187" lon="6.90953">
        <ele>325.543579</ele>
        <time>2012-05-07T13:02:54+02:00</time>
      </trkpt>
      <trkpt lat="43.47185" lon="6.90954">
        <ele>324.582275</ele>
        <time>2012-05-07T13:02:59+02:00</time>
      </trkpt>
      <trkpt lat="43.47189" lon="6.90954">
        <ele>326.504883</ele>
        <time>2012-05-07T13:03:40+02:00</time>
      </trkpt>
      <trkpt lat="43.4719" lon="6.90954">
        <ele>328.427612</ele>
        <time>2012-05-07T13:03:46+02:00</time>
      </trkpt>
      <trkpt lat="43.47189" lon="6.90955">
        <ele>328.427612</ele>
        <time>2012-05-07T13:03:52+02:00</time>
      </trkpt>
      <trkpt lat="43.47188" lon="6.90955">
        <ele>329.388916</ele>
        <time>2012-05-07T13:04:17+02:00</time>
      </trkpt>
      <trkpt lat="43.47188" lon="6.90956">
        <ele>329.869507</ele>
        <time>2012-05-07T13:04:25+02:00</time>
      </trkpt>
      <trkpt lat="43.47188" lon="6.90956">
        <ele>328.908325</ele>
        <time>2012-05-07T13:04:46+02:00</time>
      </trkpt>
      <trkpt lat="43.4719" lon="6.90956">
        <ele>328.908325</ele>
        <time>2012-05-07T13:04:58+02:00</time>
      </trkpt>
      <trkpt lat="43.47188" lon="6.90956">
        <ele>329.388916</ele>
        <time>2012-05-07T13:05:09+02:00</time>
      </trkpt>
      <trkpt lat="43.47175" lon="6.90953">
        <ele>326.504883</ele>
        <time>2012-05-07T13:05:15+02:00</time>
      </trkpt>
      <trkpt lat="43.47173" lon="6.90953">
        <ele>325.543579</ele>
        <time>2012-05-07T13:05:18+02:00</time>
      </trkpt>
      <trkpt lat="43.47161" lon="6.90946">
        <ele>323.140381</ele>
        <time>2012-05-07T13:05:23+02:00</time>
      </trkpt>
      <trkpt lat="43.4715" lon="6.90937">
        <ele>320.256348</ele>
        <time>2012-05-07T13:05:28+02:00</time>
      </trkpt>
      <trkpt lat="43.47141" lon="6.90925">
        <ele>318.333618</ele>
        <time>2012-05-07T13:05:32+02:00</time>
      </trkpt>
      <trkpt lat="43.47136" lon="6.90916">
        <ele>316.891724</ele>
        <time>2012-05-07T13:05:35+02:00</time>
      </trkpt>
      <trkpt lat="43.47131" lon="6.90903">
        <ele>314.488403</ele>
        <time>2012-05-07T13:05:40+02:00</time>
      </trkpt>
      <trkpt lat="43.47128" lon="6.90884">
        <ele>312.565796</ele>
        <time>2012-05-07T13:05:45+02:00</time>
      </trkpt>
      <trkpt lat="43.47125" lon="6.90861">
        <ele>309.681885</ele>
        <time>2012-05-07T13:05:49+02:00</time>
      </trkpt>
      <trkpt lat="43.47125" lon="6.90833">
        <ele>305.83667</ele>
        <time>2012-05-07T13:05:54+02:00</time>
      </trkpt>
      <trkpt lat="43.47128" lon="6.90814">
        <ele>302.952515</ele>
        <time>2012-05-07T13:05:58+02:00</time>
      </trkpt>
      <trkpt lat="43.4713" lon="6.90793">
        <ele>299.1073</ele>
        <time>2012-05-07T13:06:02+02:00</time>
      </trkpt>
      <trkpt lat="43.47135" lon="6.9077">
        <ele>294.781372</ele>
        <time>2012-05-07T13:06:07+02:00</time>
      </trkpt>
      <trkpt lat="43.4714" lon="6.90753">
        <ele>292.378174</ele>
        <time>2012-05-07T13:06:11+02:00</time>
      </trkpt>
      <trkpt lat="43.47146" lon="6.90744">
        <ele>291.416748</ele>
        <time>2012-05-07T13:06:14+02:00</time>
      </trkpt>
      <trkpt lat="43.4714" lon="6.90744">
        <ele>290.936157</ele>
        <time>2012-05-07T13:06:18+02:00</time>
      </trkpt>
      <trkpt lat="43.47125" lon="6.90752">
        <ele>288.532959</ele>
        <time>2012-05-07T13:06:22+02:00</time>
      </trkpt>
      <trkpt lat="43.47109" lon="6.90767">
        <ele>285.168213</ele>
        <time>2012-05-07T13:06:27+02:00</time>
      </trkpt>
      <trkpt lat="43.47094" lon="6.90782">
        <ele>283.245605</ele>
        <time>2012-05-07T13:06:32+02:00</time>
      </trkpt>
      <trkpt lat="43.47087" lon="6.90793">
        <ele>280.842407</ele>
        <time>2012-05-07T13:06:36+02:00</time>
      </trkpt>
      <trkpt lat="43.47085" lon="6.90792">
        <ele>281.322998</ele>
        <time>2012-05-07T13:06:42+02:00</time>
      </trkpt>
      <trkpt lat="43.47083" lon="6.9079">
        <ele>280.361694</ele>
        <time>2012-05-07T13:06:47+02:00</time>
      </trkpt>
      <trkpt lat="43.47081" lon="6.90797">
        <ele>278.438965</ele>
        <time>2012-05-07T13:06:54+02:00</time>
      </trkpt>
      <trkpt lat="43.4708" lon="6.90798">
        <ele>277.958252</ele>
        <time>2012-05-07T13:07:00+02:00</time>
      </trkpt>
      <trkpt lat="43.47078" lon="6.90797">
        <ele>277.477661</ele>
        <time>2012-05-07T13:07:05+02:00</time>
      </trkpt>
      <trkpt lat="43.47078" lon="6.90795">
        <ele>277.958252</ele>
        <time>2012-05-07T13:07:10+02:00</time>
      </trkpt>
      <trkpt lat="43.47078" lon="6.90797">
        <ele>277.958252</ele>
        <time>2012-05-07T13:07:15+02:00</time>
      </trkpt>
      <trkpt lat="43.47078" lon="6.90799">
        <ele>277.958252</ele>
        <time>2012-05-07T13:07:20+02:00</time>
      </trkpt>
      <trkpt lat="43.47079" lon="6.90799">
        <ele>279.880859</ele>
        <time>2012-05-07T13:07:33+02:00</time>
      </trkpt>
      <trkpt lat="43.47078" lon="6.90799">
        <ele>280.842407</ele>
        <time>2012-05-07T13:07:39+02:00</time>
      </trkpt>
      <trkpt lat="43.47077" lon="6.90798">
        <ele>281.803589</ele>
        <time>2012-05-07T13:07:44+02:00</time>
      </trkpt>
      <trkpt lat="43.47076" lon="6.90798">
        <ele>281.803589</ele>
        <time>2012-05-07T13:07:51+02:00</time>
      </trkpt>
      <trkpt lat="43.47077" lon="6.90796">
        <ele>281.803589</ele>
        <time>2012-05-07T13:07:56+02:00</time>
      </trkpt>
      <trkpt lat="43.47078" lon="6.90796">
        <ele>282.765015</ele>
        <time>2012-05-07T13:08:09+02:00</time>
      </trkpt>
      <trkpt lat="43.47079" lon="6.90797">
        <ele>283.245605</ele>
        <time>2012-05-07T13:08:19+02:00</time>
      </trkpt>
      <trkpt lat="43.47079" lon="6.90795">
        <ele>282.284302</ele>
        <time>2012-05-07T13:08:25+02:00</time>
      </trkpt>
      <trkpt lat="43.47079" lon="6.90795">
        <ele>281.322998</ele>
        <time>2012-05-07T13:08:33+02:00</time>
      </trkpt>
      <trkpt lat="43.47078" lon="6.90794">
        <ele>281.803589</ele>
        <time>2012-05-07T13:08:45+02:00</time>
      </trkpt>
      <trkpt lat="43.47078" lon="6.90795">
        <ele>281.322998</ele>
        <time>2012-05-07T13:08:54+02:00</time>
      </trkpt>
      <trkpt lat="43.47079" lon="6.90794">
        <ele>280.842407</ele>
        <time>2012-05-07T13:09:00+02:00</time>
      </trkpt>
      <trkpt lat="43.47078" lon="6.90795">
        <ele>280.361694</ele>
        <time>2012-05-07T13:09:09+02:00</time>
      </trkpt>
      <trkpt lat="43.4708" lon="6.90795">
        <ele>279.880859</ele>
        <time>2012-05-07T13:09:27+02:00</time>
      </trkpt>
      <trkpt lat="43.47079" lon="6.90794">
        <ele>279.880859</ele>
        <time>2012-05-07T13:09:36+02:00</time>
      </trkpt>
      <trkpt lat="43.4708" lon="6.9078">
        <ele>278.438965</ele>
        <time>2012-05-07T13:09:41+02:00</time>
      </trkpt>
      <trkpt lat="43.47081" lon="6.90774">
        <ele>276.99707</ele>
        <time>2012-05-07T13:09:45+02:00</time>
      </trkpt>
      <trkpt lat="43.47084" lon="6.90767">
        <ele>275.555054</ele>
        <time>2012-05-07T13:09:51+02:00</time>
      </trkpt>
      <trkpt lat="43.47086" lon="6.90751">
        <ele>273.151855</ele>
        <time>2012-05-07T13:09:56+02:00</time>
      </trkpt>
      <trkpt lat="43.47091" lon="6.90728">
        <ele>270.2677</ele>
        <time>2012-05-07T13:10:01+02:00</time>
      </trkpt>
      <trkpt lat="43.47097" lon="6.90711">
        <ele>267.864502</ele>
        <time>2012-05-07T13:10:04+02:00</time>
      </trkpt>
      <trkpt lat="43.47096" lon="6.90701">
        <ele>266.903198</ele>
        <time>2012-05-07T13:10:09+02:00</time>
      </trkpt>
      <trkpt lat="43.47097" lon="6.90699">
        <ele>266.422485</ele>
        <time>2012-05-07T13:10:14+02:00</time>
      </trkpt>
      <trkpt lat="43.47098" lon="6.90699">
        <ele>268.345093</ele>
        <time>2012-05-07T13:10:25+02:00</time>
      </trkpt>
      <trkpt lat="43.47097" lon="6.907">
        <ele>268.825806</ele>
        <time>2012-05-07T13:10:41+02:00</time>
      </trkpt>
      <trkpt lat="43.47097" lon="6.907">
        <ele>268.345093</ele>
        <time>2012-05-07T13:10:46+02:00</time>
      </trkpt>
      <trkpt lat="43.47098" lon="6.90698">
        <ele>268.825806</ele>
        <time>2012-05-07T13:10:50+02:00</time>
      </trkpt>
      <trkpt lat="43.47104" lon="6.9069">
        <ele>268.825806</ele>
        <time>2012-05-07T13:10:55+02:00</time>
      </trkpt>
      <trkpt lat="43.47119" lon="6.90677">
        <ele>268.345093</ele>
        <time>2012-05-07T13:11:01+02:00</time>
      </trkpt>
      <trkpt lat="43.47143" lon="6.90668">
        <ele>268.345093</ele>
        <time>2012-05-07T13:11:07+02:00</time>
      </trkpt>
      <trkpt lat="43.47168" lon="6.90661">
        <ele>268.345093</ele>
        <time>2012-05-07T13:11:13+02:00</time>
      </trkpt>
      <trkpt lat="43.47195" lon="6.90652">
        <ele>267.864502</ele>
        <time>2012-05-07T13:11:19+02:00</time>
      </trkpt>
      <trkpt lat="43.472" lon="6.90651">
        <ele>267.864502</ele>
        <time>2012-05-07T13:11:20+02:00</time>
      </trkpt>
      <trkpt lat="43.47216" lon="6.90645">
        <ele>266.903198</ele>
        <time>2012-05-07T13:11:24+02:00</time>
      </trkpt>
      <trkpt lat="43.47239" lon="6.90636">
        <ele>266.422485</ele>
        <time>2012-05-07T13:11:31+02:00</time>
      </trkpt>
      <trkpt lat="43.47256" lon="6.90624">
        <ele>265.461304</ele>
        <time>2012-05-07T13:11:36+02:00</time>
      </trkpt>
      <trkpt lat="43.47259" lon="6.90621">
        <ele>265.461304</ele>
        <time>2012-05-07T13:11:37+02:00</time>
      </trkpt>
      <trkpt lat="43.47261" lon="6.90605">
        <ele>265.941895</ele>
        <time>2012-05-07T13:11:41+02:00</time>
      </trkpt>
      <trkpt lat="43.47252" lon="6.90588">
        <ele>266.422485</ele>
        <time>2012-05-07T13:11:45+02:00</time>
      </trkpt>
      <trkpt lat="43.47237" lon="6.90552">
        <ele>268.345093</ele>
        <time>2012-05-07T13:11:52+02:00</time>
      </trkpt>
      <trkpt lat="43.47217" lon="6.90516">
        <ele>268.825806</ele>
        <time>2012-05-07T13:11:59+02:00</time>
      </trkpt>
      <trkpt lat="43.47202" lon="6.90484">
        <ele>268.825806</ele>
        <time>2012-05-07T13:12:05+02:00</time>
      </trkpt>
      <trkpt lat="43.47191" lon="6.90462">
        <ele>269.306519</ele>
        <time>2012-05-07T13:12:09+02:00</time>
      </trkpt>
      <trkpt lat="43.47188" lon="6.90431">
        <ele>269.306519</ele>
        <time>2012-05-07T13:12:14+02:00</time>
      </trkpt>
      <trkpt lat="43.4719" lon="6.90419">
        <ele>268.825806</ele>
        <time>2012-05-07T13:12:16+02:00</time>
      </trkpt>
      <trkpt lat="43.47195" lon="6.90401">
        <ele>269.306519</ele>
        <time>2012-05-07T13:12:19+02:00</time>
      </trkpt>
      <trkpt lat="43.47202" lon="6.90384">
        <ele>269.306519</ele>
        <time>2012-05-07T13:12:22+02:00</time>
      </trkpt>
      <trkpt lat="43.47203" lon="6.90356">
        <ele>269.306519</ele>
        <time>2012-05-07T13:12:27+02:00</time>
      </trkpt>
      <trkpt lat="43.472" lon="6.90334">
        <ele>269.306519</ele>
        <time>2012-05-07T13:12:31+02:00</time>
      </trkpt>
      <trkpt lat="43.47198" lon="6.90315">
        <ele>268.345093</ele>
        <time>2012-05-07T13:12:34+02:00</time>
      </trkpt>
      <trkpt lat="43.47194" lon="6.90275">
        <ele>266.903198</ele>
        <time>2012-05-07T13:12:41+02:00</time>
      </trkpt>
      <trkpt lat="43.47196" lon="6.90247">
        <ele>266.422485</ele>
        <time>2012-05-07T13:12:46+02:00</time>
      </trkpt>
      <trkpt lat="43.4721" lon="6.90218">
        <ele>265.941895</ele>
        <time>2012-05-07T13:12:53+02:00</time>
      </trkpt>
      <trkpt lat="43.47231" lon="6.90203">
        <ele>264.980591</ele>
        <time>2012-05-07T13:12:58+02:00</time>
      </trkpt>
      <trkpt lat="43.47266" lon="6.90185">
        <ele>264.980591</ele>
        <time>2012-05-07T13:13:06+02:00</time>
      </trkpt>
      <trkpt lat="43.47286" lon="6.90173">
        <ele>265.461304</ele>
        <time>2012-05-07T13:13:11+02:00</time>
      </trkpt>
      <trkpt lat="43.47302" lon="6.90174">
        <ele>265.461304</ele>
        <time>2012-05-07T13:13:15+02:00</time>
      </trkpt>
      <trkpt lat="43.47314" lon="6.9017">
        <ele>266.422485</ele>
        <time>2012-05-07T13:13:20+02:00</time>
      </trkpt>
      <trkpt lat="43.4733" lon="6.90155">
        <ele>267.864502</ele>
        <time>2012-05-07T13:13:26+02:00</time>
      </trkpt>
      <trkpt lat="43.47345" lon="6.9015">
        <ele>268.825806</ele>
        <time>2012-05-07T13:13:31+02:00</time>
      </trkpt>
      <trkpt lat="43.47352" lon="6.90144">
        <ele>269.306519</ele>
        <time>2012-05-07T13:13:34+02:00</time>
      </trkpt>
      <trkpt lat="43.47354" lon="6.90138">
        <ele>270.2677</ele>
        <time>2012-05-07T13:13:38+02:00</time>
      </trkpt>
      <trkpt lat="43.47352" lon="6.90133">
        <ele>274.113037</ele>
        <time>2012-05-07T13:13:49+02:00</time>
      </trkpt>
      <trkpt lat="43.47353" lon="6.9013">
        <ele>274.59375</ele>
        <time>2012-05-07T13:14:03+02:00</time>
      </trkpt>
      <trkpt lat="43.47352" lon="6.90128">
        <ele>275.074463</ele>
        <time>2012-05-07T13:14:26+02:00</time>
      </trkpt>
      <trkpt lat="43.47352" lon="6.90128">
        <ele>275.074463</ele>
        <time>2012-05-07T13:14:33+02:00</time>
      </trkpt>
      <trkpt lat="43.47351" lon="6.90127">
        <ele>275.074463</ele>
        <time>2012-05-07T13:14:34+02:00</time>
      </trkpt>
      <trkpt lat="43.47342" lon="6.90109">
        <ele>275.074463</ele>
        <time>2012-05-07T13:14:40+02:00</time>
      </trkpt>
      <trkpt lat="43.47334" lon="6.90092">
        <ele>275.555054</ele>
        <time>2012-05-07T13:14:44+02:00</time>
      </trkpt>
      <trkpt lat="43.47339" lon="6.90065">
        <ele>274.113037</ele>
        <time>2012-05-07T13:14:49+02:00</time>
      </trkpt>
      <trkpt lat="43.47331" lon="6.90055">
        <ele>274.59375</ele>
        <time>2012-05-07T13:14:52+02:00</time>
      </trkpt>
      <trkpt lat="43.47319" lon="6.90049">
        <ele>274.59375</ele>
        <time>2012-05-07T13:14:55+02:00</time>
      </trkpt>
      <trkpt lat="43.47308" lon="6.90023">
        <ele>274.59375</ele>
        <time>2012-05-07T13:15:00+02:00</time>
      </trkpt>
      <trkpt lat="43.47304" lon="6.90012">
        <ele>274.113037</ele>
        <time>2012-05-07T13:15:02+02:00</time>
      </trkpt>
      <trkpt lat="43.473" lon="6.89987">
        <ele>273.632446</ele>
        <time>2012-05-07T13:15:06+02:00</time>
      </trkpt>
      <trkpt lat="43.47297" lon="6.89968">
        <ele>273.151855</ele>
        <time>2012-05-07T13:15:09+02:00</time>
      </trkpt>
      <trkpt lat="43.47289" lon="6.8995">
        <ele>273.151855</ele>
        <time>2012-05-07T13:15:13+02:00</time>
      </trkpt>
      <trkpt lat="43.47285" lon="6.89934">
        <ele>273.632446</ele>
        <time>2012-05-07T13:15:16+02:00</time>
      </trkpt>
      <trkpt lat="43.4728" lon="6.89917">
        <ele>273.632446</ele>
        <time>2012-05-07T13:15:19+02:00</time>
      </trkpt>
      <trkpt lat="43.47266" lon="6.89897">
        <ele>274.59375</ele>
        <time>2012-05-07T13:15:24+02:00</time>
      </trkpt>
      <trkpt lat="43.47261" lon="6.89888">
        <ele>274.113037</ele>
        <time>2012-05-07T13:15:26+02:00</time>
      </trkpt>
      <trkpt lat="43.47244" lon="6.89879">
        <ele>275.074463</ele>
        <time>2012-05-07T13:15:31+02:00</time>
      </trkpt>
      <trkpt lat="43.47222" lon="6.89867">
        <ele>276.99707</ele>
        <time>2012-05-07T13:15:39+02:00</time>
      </trkpt>
      <trkpt lat="43.47203" lon="6.89859">
        <ele>277.477661</ele>
        <time>2012-05-07T13:15:47+02:00</time>
      </trkpt>
      <trkpt lat="43.47197" lon="6.89856">
        <ele>277.477661</ele>
        <time>2012-05-07T13:15:51+02:00</time>
      </trkpt>
      <trkpt lat="43.47195" lon="6.89854">
        <ele>277.958252</ele>
        <time>2012-05-07T13:15:53+02:00</time>
      </trkpt>
      <trkpt lat="43.47193" lon="6.89852">
        <ele>278.438965</ele>
        <time>2012-05-07T13:15:59+02:00</time>
      </trkpt>
      <trkpt lat="43.47187" lon="6.89848">
        <ele>278.438965</ele>
        <time>2012-05-07T13:16:05+02:00</time>
      </trkpt>
      <trkpt lat="43.47183" lon="6.89845">
        <ele>278.438965</ele>
        <time>2012-05-07T13:16:09+02:00</time>
      </trkpt>
      <trkpt lat="43.47179" lon="6.89836">
        <ele>277.958252</ele>
        <time>2012-05-07T13:16:14+02:00</time>
      </trkpt>
      <trkpt lat="43.47179" lon="6.8983">
        <ele>278.438965</ele>
        <time>2012-05-07T13:16:16+02:00</time>
      </trkpt>
      <trkpt lat="43.4718" lon="6.89822">
        <ele>278.438965</ele>
        <time>2012-05-07T13:16:19+02:00</time>
      </trkpt>
      <trkpt lat="43.47184" lon="6.898">
        <ele>278.919678</ele>
        <time>2012-05-07T13:16:26+02:00</time>
      </trkpt>
      <trkpt lat="43.47188" lon="6.89787">
        <ele>279.400269</ele>
        <time>2012-05-07T13:16:31+02:00</time>
      </trkpt>
      <trkpt lat="43.47191" lon="6.89772">
        <ele>280.361694</ele>
        <time>2012-05-07T13:16:37+02:00</time>
      </trkpt>
      <trkpt lat="43.47194" lon="6.89753">
        <ele>281.322998</ele>
        <time>2012-05-07T13:16:43+02:00</time>
      </trkpt>
      <trkpt lat="43.47197" lon="6.89733">
        <ele>282.765015</ele>
        <time>2012-05-07T13:16:49+02:00</time>
      </trkpt>
      <trkpt lat="43.47203" lon="6.89708">
        <ele>284.206909</ele>
        <time>2012-05-07T13:16:57+02:00</time>
      </trkpt>
      <trkpt lat="43.47206" lon="6.89693">
        <ele>285.648804</ele>
        <time>2012-05-07T13:17:02+02:00</time>
      </trkpt>
      <trkpt lat="43.47211" lon="6.89679">
        <ele>287.571411</ele>
        <time>2012-05-07T13:17:08+02:00</time>
      </trkpt>
      <trkpt lat="43.47219" lon="6.89667">
        <ele>289.01355</ele>
        <time>2012-05-07T13:17:14+02:00</time>
      </trkpt>
      <trkpt lat="43.47226" lon="6.89659">
        <ele>290.455566</ele>
        <time>2012-05-07T13:17:20+02:00</time>
      </trkpt>
      <trkpt lat="43.47232" lon="6.89651">
        <ele>291.897461</ele>
        <time>2012-05-07T13:17:25+02:00</time>
      </trkpt>
      <trkpt lat="43.4724" lon="6.89642">
        <ele>292.858765</ele>
        <time>2012-05-07T13:17:32+02:00</time>
      </trkpt>
      <trkpt lat="43.47247" lon="6.89634">
        <ele>294.300781</ele>
        <time>2012-05-07T13:17:37+02:00</time>
      </trkpt>
      <trkpt lat="43.47251" lon="6.89626">
        <ele>295.742676</ele>
        <time>2012-05-07T13:17:42+02:00</time>
      </trkpt>
      <trkpt lat="43.47259" lon="6.89618">
        <ele>296.223511</ele>
        <time>2012-05-07T13:17:48+02:00</time>
      </trkpt>
      <trkpt lat="43.4726" lon="6.89617">
        <ele>297.184692</ele>
        <time>2012-05-07T13:17:49+02:00</time>
      </trkpt>
      <trkpt lat="43.47264" lon="6.89613">
        <ele>298.146118</ele>
        <time>2012-05-07T13:17:53+02:00</time>
      </trkpt>
      <trkpt lat="43.47269" lon="6.89606">
        <ele>299.1073</ele>
        <time>2012-05-07T13:17:58+02:00</time>
      </trkpt>
      <trkpt lat="43.47276" lon="6.89599">
        <ele>300.068726</ele>
        <time>2012-05-07T13:18:03+02:00</time>
      </trkpt>
      <trkpt lat="43.47285" lon="6.89589">
        <ele>300.549316</ele>
        <time>2012-05-07T13:18:10+02:00</time>
      </trkpt>
      <trkpt lat="43.47293" lon="6.89577">
        <ele>301.029907</ele>
        <time>2012-05-07T13:18:17+02:00</time>
      </trkpt>
      <trkpt lat="43.47302" lon="6.89566">
        <ele>301.51062</ele>
        <time>2012-05-07T13:18:23+02:00</time>
      </trkpt>
      <trkpt lat="43.4731" lon="6.89555">
        <ele>301.991333</ele>
        <time>2012-05-07T13:18:29+02:00</time>
      </trkpt>
      <trkpt lat="43.47315" lon="6.89543">
        <ele>302.952515</ele>
        <time>2012-05-07T13:18:34+02:00</time>
      </trkpt>
      <trkpt lat="43.47319" lon="6.89534">
        <ele>303.433228</ele>
        <time>2012-05-07T13:18:40+02:00</time>
      </trkpt>
      <trkpt lat="43.4732" lon="6.89534">
        <ele>303.433228</ele>
        <time>2012-05-07T13:18:45+02:00</time>
      </trkpt>
      <trkpt lat="43.47318" lon="6.89535">
        <ele>303.91394</ele>
        <time>2012-05-07T13:18:50+02:00</time>
      </trkpt>
      <trkpt lat="43.47316" lon="6.89534">
        <ele>304.394653</ele>
        <time>2012-05-07T13:18:56+02:00</time>
      </trkpt>
      <trkpt lat="43.47316" lon="6.89533">
        <ele>305.355957</ele>
        <time>2012-05-07T13:19:02+02:00</time>
      </trkpt>
      <trkpt lat="43.47317" lon="6.89533">
        <ele>305.83667</ele>
        <time>2012-05-07T13:19:12+02:00</time>
      </trkpt>
      <trkpt lat="43.47317" lon="6.89532">
        <ele>306.797852</ele>
        <time>2012-05-07T13:19:23+02:00</time>
      </trkpt>
      <trkpt lat="43.47318" lon="6.89529">
        <ele>307.278564</ele>
        <time>2012-05-07T13:19:28+02:00</time>
      </trkpt>
      <trkpt lat="43.47319" lon="6.89527">
        <ele>308.239868</ele>
        <time>2012-05-07T13:19:33+02:00</time>
      </trkpt>
      <trkpt lat="43.47319" lon="6.89528">
        <ele>309.201172</ele>
        <time>2012-05-07T13:19:58+02:00</time>
      </trkpt>
      <trkpt lat="43.4732" lon="6.89531">
        <ele>308.720459</ele>
        <time>2012-05-07T13:20:02+02:00</time>
      </trkpt>
      <trkpt lat="43.47317" lon="6.89535">
        <ele>309.681885</ele>
        <time>2012-05-07T13:20:06+02:00</time>
      </trkpt>
      <trkpt lat="43.47318" lon="6.89535">
        <ele>309.681885</ele>
        <time>2012-05-07T13:20:12+02:00</time>
      </trkpt>
      <trkpt lat="43.47318" lon="6.89536">
        <ele>309.201172</ele>
        <time>2012-05-07T13:20:22+02:00</time>
      </trkpt>
      <trkpt lat="43.47319" lon="6.89537">
        <ele>309.201172</ele>
        <time>2012-05-07T13:20:30+02:00</time>
      </trkpt>
      <trkpt lat="43.47319" lon="6.89537">
        <ele>308.720459</ele>
        <time>2012-05-07T13:20:58+02:00</time>
      </trkpt>
      <trkpt lat="43.47319" lon="6.89537">
        <ele>308.720459</ele>
        <time>2012-05-07T13:21:05+02:00</time>
      </trkpt>
      <trkpt lat="43.4732" lon="6.89537">
        <ele>310.643066</ele>
        <time>2012-05-07T13:21:24+02:00</time>
      </trkpt>
      <trkpt lat="43.47321" lon="6.89536">
        <ele>310.643066</ele>
        <time>2012-05-07T13:21:47+02:00</time>
      </trkpt>
      <trkpt lat="43.47319" lon="6.89534">
        <ele>312.085205</ele>
        <time>2012-05-07T13:22:33+02:00</time>
      </trkpt>
      <trkpt lat="43.47318" lon="6.89535">
        <ele>311.123779</ele>
        <time>2012-05-07T13:22:48+02:00</time>
      </trkpt>
      <trkpt lat="43.47317" lon="6.89536">
        <ele>310.162476</ele>
        <time>2012-05-07T13:23:06+02:00</time>
      </trkpt>
      <trkpt lat="43.47318" lon="6.89535">
        <ele>309.201172</ele>
        <time>2012-05-07T13:23:24+02:00</time>
      </trkpt>
      <trkpt lat="43.47319" lon="6.89537">
        <ele>309.681885</ele>
        <time>2012-05-07T13:23:33+02:00</time>
      </trkpt>
      <trkpt lat="43.4732" lon="6.89536">
        <ele>310.162476</ele>
        <time>2012-05-07T13:23:42+02:00</time>
      </trkpt>
      <trkpt lat="43.4732" lon="6.89537">
        <ele>310.162476</ele>
        <time>2012-05-07T13:23:50+02:00</time>
      </trkpt>
      <trkpt lat="43.47319" lon="6.89538">
        <ele>309.201172</ele>
        <time>2012-05-07T13:24:04+02:00</time>
      </trkpt>
      <trkpt lat="43.47319" lon="6.89538">
        <ele>308.239868</ele>
        <time>2012-05-07T13:24:22+02:00</time>
      </trkpt>
      <trkpt lat="43.4732" lon="6.89537">
        <ele>307.278564</ele>
        <time>2012-05-07T13:24:30+02:00</time>
      </trkpt>
      <trkpt lat="43.47329" lon="6.89552">
        <ele>305.355957</ele>
        <time>2012-05-07T13:24:37+02:00</time>
      </trkpt>
      <trkpt lat="43.47341" lon="6.89581">
        <ele>302.471924</ele>
        <time>2012-05-07T13:24:42+02:00</time>
      </trkpt>
      <trkpt lat="43.4736" lon="6.89615">
        <ele>297.184692</ele>
        <time>2012-05-07T13:24:47+02:00</time>
      </trkpt>
      <trkpt lat="43.47377" lon="6.89632">
        <ele>292.858765</ele>
        <time>2012-05-07T13:24:51+02:00</time>
      </trkpt>
      <trkpt lat="43.47395" lon="6.8963">
        <ele>288.532959</ele>
        <time>2012-05-07T13:24:55+02:00</time>
      </trkpt>
      <trkpt lat="43.47401" lon="6.89628">
        <ele>288.532959</ele>
        <time>2012-05-07T13:24:56+02:00</time>
      </trkpt>
      <trkpt lat="43.47427" lon="6.89612">
        <ele>286.610229</ele>
        <time>2012-05-07T13:25:02+02:00</time>
      </trkpt>
      <trkpt lat="43.47428" lon="6.8961">
        <ele>286.610229</ele>
        <time>2012-05-07T13:25:03+02:00</time>
      </trkpt>
      <trkpt lat="43.47437" lon="6.896">
        <ele>287.09082</ele>
        <time>2012-05-07T13:25:08+02:00</time>
      </trkpt>
      <trkpt lat="43.47442" lon="6.89594">
        <ele>286.129517</ele>
        <time>2012-05-07T13:25:10+02:00</time>
      </trkpt>
      <trkpt lat="43.47458" lon="6.89575">
        <ele>283.726196</ele>
        <time>2012-05-07T13:25:15+02:00</time>
      </trkpt>
      <trkpt lat="43.47464" lon="6.89566">
        <ele>282.765015</ele>
        <time>2012-05-07T13:25:19+02:00</time>
      </trkpt>
      <trkpt lat="43.47464" lon="6.89567">
        <ele>283.245605</ele>
        <time>2012-05-07T13:25:26+02:00</time>
      </trkpt>
      <trkpt lat="43.47463" lon="6.89566">
        <ele>285.168213</ele>
        <time>2012-05-07T13:25:36+02:00</time>
      </trkpt>
      <trkpt lat="43.47466" lon="6.89559">
        <ele>285.648804</ele>
        <time>2012-05-07T13:25:44+02:00</time>
      </trkpt>
      <trkpt lat="43.47478" lon="6.89543">
        <ele>284.206909</ele>
        <time>2012-05-07T13:25:49+02:00</time>
      </trkpt>
      <trkpt lat="43.47487" lon="6.89531">
        <ele>282.765015</ele>
        <time>2012-05-07T13:25:53+02:00</time>
      </trkpt>
      <trkpt lat="43.47501" lon="6.89514">
        <ele>280.361694</ele>
        <time>2012-05-07T13:25:58+02:00</time>
      </trkpt>
      <trkpt lat="43.47502" lon="6.89511">
        <ele>278.919678</ele>
        <time>2012-05-07T13:26:00+02:00</time>
      </trkpt>
      <trkpt lat="43.475" lon="6.89511">
        <ele>279.400269</ele>
        <time>2012-05-07T13:26:07+02:00</time>
      </trkpt>
      <trkpt lat="43.47497" lon="6.89511">
        <ele>278.919678</ele>
        <time>2012-05-07T13:26:08+02:00</time>
      </trkpt>
      <trkpt lat="43.47479" lon="6.89517">
        <ele>277.477661</ele>
        <time>2012-05-07T13:26:14+02:00</time>
      </trkpt>
      <trkpt lat="43.47478" lon="6.89517">
        <ele>277.958252</ele>
        <time>2012-05-07T13:26:17+02:00</time>
      </trkpt>
      <trkpt lat="43.47475" lon="6.89515">
        <ele>281.322998</ele>
        <time>2012-05-07T13:26:29+02:00</time>
      </trkpt>
      <trkpt lat="43.47473" lon="6.89516">
        <ele>283.726196</ele>
        <time>2012-05-07T13:26:34+02:00</time>
      </trkpt>
      <trkpt lat="43.47471" lon="6.89517">
        <ele>287.09082</ele>
        <time>2012-05-07T13:26:43+02:00</time>
      </trkpt>
      <trkpt lat="43.4747" lon="6.89518">
        <ele>288.532959</ele>
        <time>2012-05-07T13:26:51+02:00</time>
      </trkpt>
      <trkpt lat="43.47454" lon="6.8953">
        <ele>286.129517</ele>
        <time>2012-05-07T13:26:58+02:00</time>
      </trkpt>
      <trkpt lat="43.4744" lon="6.89538">
        <ele>282.765015</ele>
        <time>2012-05-07T13:27:03+02:00</time>
      </trkpt>
      <trkpt lat="43.47423" lon="6.89541">
        <ele>278.919678</ele>
        <time>2012-05-07T13:27:08+02:00</time>
      </trkpt>
      <trkpt lat="43.47415" lon="6.89539">
        <ele>277.958252</ele>
        <time>2012-05-07T13:27:10+02:00</time>
      </trkpt>
      <trkpt lat="43.47404" lon="6.89525">
        <ele>275.555054</ele>
        <time>2012-05-07T13:27:14+02:00</time>
      </trkpt>
      <trkpt lat="43.474" lon="6.89497">
        <ele>271.229126</ele>
        <time>2012-05-07T13:27:18+02:00</time>
      </trkpt>
      <trkpt lat="43.47397" lon="6.89491">
        <ele>270.2677</ele>
        <time>2012-05-07T13:27:19+02:00</time>
      </trkpt>
      <trkpt lat="43.47388" lon="6.89474">
        <ele>267.864502</ele>
        <time>2012-05-07T13:27:22+02:00</time>
      </trkpt>
      <trkpt lat="43.47378" lon="6.89455">
        <ele>264.499878</ele>
        <time>2012-05-07T13:27:26+02:00</time>
      </trkpt>
      <trkpt lat="43.47368" lon="6.89441">
        <ele>262.577148</ele>
        <time>2012-05-07T13:27:29+02:00</time>
      </trkpt>
      <trkpt lat="43.47353" lon="6.89419">
        <ele>256.809326</ele>
        <time>2012-05-07T13:27:34+02:00</time>
      </trkpt>
      <trkpt lat="43.47349" lon="6.89415">
        <ele>255.848022</ele>
        <time>2012-05-07T13:27:35+02:00</time>
      </trkpt>
      <trkpt lat="43.4734" lon="6.89384">
        <ele>249.118774</ele>
        <time>2012-05-07T13:27:41+02:00</time>
      </trkpt>
      <trkpt lat="43.47339" lon="6.89378">
        <ele>248.638184</ele>
        <time>2012-05-07T13:27:42+02:00</time>
      </trkpt>
      <trkpt lat="43.47338" lon="6.89359">
        <ele>244.792847</ele>
        <time>2012-05-07T13:27:45+02:00</time>
      </trkpt>
      <trkpt lat="43.4734" lon="6.8934">
        <ele>242.389648</ele>
        <time>2012-05-07T13:27:48+02:00</time>
      </trkpt>
      <trkpt lat="43.47339" lon="6.89328">
        <ele>240.467041</ele>
        <time>2012-05-07T13:27:50+02:00</time>
      </trkpt>
      <trkpt lat="43.47336" lon="6.89298">
        <ele>237.102295</ele>
        <time>2012-05-07T13:27:55+02:00</time>
      </trkpt>
      <trkpt lat="43.47339" lon="6.89274">
        <ele>235.179688</ele>
        <time>2012-05-07T13:27:59+02:00</time>
      </trkpt>
      <trkpt lat="43.47341" lon="6.89271">
        <ele>234.218384</ele>
        <time>2012-05-07T13:28:00+02:00</time>
      </trkpt>
      <trkpt lat="43.47342" lon="6.89274">
        <ele>232.776489</ele>
        <time>2012-05-07T13:28:05+02:00</time>
      </trkpt>
      <trkpt lat="43.47342" lon="6.89276">
        <ele>232.776489</ele>
        <time>2012-05-07T13:28:06+02:00</time>
      </trkpt>
      <trkpt lat="43.47342" lon="6.89278">
        <ele>231.814941</ele>
        <time>2012-05-07T13:28:11+02:00</time>
      </trkpt>
      <trkpt lat="43.47341" lon="6.89279">
        <ele>232.295776</ele>
        <time>2012-05-07T13:28:28+02:00</time>
      </trkpt>
      <trkpt lat="43.47341" lon="6.89278">
        <ele>232.295776</ele>
        <time>2012-05-07T13:28:35+02:00</time>
      </trkpt>
      <trkpt lat="43.4734" lon="6.89278">
        <ele>237.582886</ele>
        <time>2012-05-07T13:29:03+02:00</time>
      </trkpt>
      <trkpt lat="43.47342" lon="6.89277">
        <ele>237.102295</ele>
        <time>2012-05-07T13:29:07+02:00</time>
      </trkpt>
      <trkpt lat="43.47344" lon="6.89277">
        <ele>236.621704</ele>
        <time>2012-05-07T13:29:11+02:00</time>
      </trkpt>
      <trkpt lat="43.47342" lon="6.89278">
        <ele>237.582886</ele>
        <time>2012-05-07T13:29:22+02:00</time>
      </trkpt>
      <trkpt lat="43.47338" lon="6.89279">
        <ele>237.102295</ele>
        <time>2012-05-07T13:29:35+02:00</time>
      </trkpt>
      <trkpt lat="43.47338" lon="6.89279">
        <ele>235.660278</ele>
        <time>2012-05-07T13:29:50+02:00</time>
      </trkpt>
      <trkpt lat="43.47338" lon="6.8928">
        <ele>235.660278</ele>
        <time>2012-05-07T13:29:54+02:00</time>
      </trkpt>
      <trkpt lat="43.47338" lon="6.89281">
        <ele>235.660278</ele>
        <time>2012-05-07T13:29:56+02:00</time>
      </trkpt>
      <trkpt lat="43.47342" lon="6.89294">
        <ele>233.737671</ele>
        <time>2012-05-07T13:30:00+02:00</time>
      </trkpt>
      <trkpt lat="43.47346" lon="6.89306">
        <ele>232.295776</ele>
        <time>2012-05-07T13:30:02+02:00</time>
      </trkpt>
      <trkpt lat="43.47359" lon="6.89325">
        <ele>229.411743</ele>
        <time>2012-05-07T13:30:07+02:00</time>
      </trkpt>
      <trkpt lat="43.47368" lon="6.89338">
        <ele>227.489136</ele>
        <time>2012-05-07T13:30:10+02:00</time>
      </trkpt>
      <trkpt lat="43.47374" lon="6.89362">
        <ele>223.163208</ele>
        <time>2012-05-07T13:30:15+02:00</time>
      </trkpt>
      <trkpt lat="43.47376" lon="6.89365">
        <ele>222.201782</ele>
        <time>2012-05-07T13:30:18+02:00</time>
      </trkpt>
      <trkpt lat="43.47377" lon="6.89362">
        <ele>222.201782</ele>
        <time>2012-05-07T13:30:26+02:00</time>
      </trkpt>
      <trkpt lat="43.47375" lon="6.89361">
        <ele>224.605225</ele>
        <time>2012-05-07T13:30:36+02:00</time>
      </trkpt>
      <trkpt lat="43.47378" lon="6.8936">
        <ele>225.085938</ele>
        <time>2012-05-07T13:30:42+02:00</time>
      </trkpt>
      <trkpt lat="43.47379" lon="6.89362">
        <ele>225.085938</ele>
        <time>2012-05-07T13:30:53+02:00</time>
      </trkpt>
      <trkpt lat="43.47379" lon="6.89362">
        <ele>224.605225</ele>
        <time>2012-05-07T13:30:54+02:00</time>
      </trkpt>
      <trkpt lat="43.47393" lon="6.89374">
        <ele>221.240601</ele>
        <time>2012-05-07T13:30:59+02:00</time>
      </trkpt>
      <trkpt lat="43.47396" lon="6.89378">
        <ele>220.759888</ele>
        <time>2012-05-07T13:31:00+02:00</time>
      </trkpt>
      <trkpt lat="43.4741" lon="6.89381">
        <ele>218.356567</ele>
        <time>2012-05-07T13:31:04+02:00</time>
      </trkpt>
      <trkpt lat="43.47427" lon="6.89385">
        <ele>214.03064</ele>
        <time>2012-05-07T13:31:09+02:00</time>
      </trkpt>
      <trkpt lat="43.47429" lon="6.89385">
        <ele>213.550049</ele>
        <time>2012-05-07T13:31:14+02:00</time>
      </trkpt>
      <trkpt lat="43.47428" lon="6.89381">
        <ele>213.550049</ele>
        <time>2012-05-07T13:31:19+02:00</time>
      </trkpt>
      <trkpt lat="43.47429" lon="6.89381">
        <ele>214.51123</ele>
        <time>2012-05-07T13:31:24+02:00</time>
      </trkpt>
      <trkpt lat="43.47427" lon="6.89379">
        <ele>216.43396</ele>
        <time>2012-05-07T13:31:31+02:00</time>
      </trkpt>
      <trkpt lat="43.47426" lon="6.89377">
        <ele>215.953247</ele>
        <time>2012-05-07T13:31:32+02:00</time>
      </trkpt>
      <trkpt lat="43.47414" lon="6.89363">
        <ele>214.03064</ele>
        <time>2012-05-07T13:31:37+02:00</time>
      </trkpt>
      <trkpt lat="43.47409" lon="6.89359">
        <ele>213.550049</ele>
        <time>2012-05-07T13:31:39+02:00</time>
      </trkpt>
      <trkpt lat="43.47405" lon="6.89342">
        <ele>212.108032</ele>
        <time>2012-05-07T13:31:43+02:00</time>
      </trkpt>
      <trkpt lat="43.474" lon="6.89335">
        <ele>210.185425</ele>
        <time>2012-05-07T13:31:48+02:00</time>
      </trkpt>
      <trkpt lat="43.47401" lon="6.89335">
        <ele>207.301392</ele>
        <time>2012-05-07T13:31:57+02:00</time>
      </trkpt>
      <trkpt lat="43.47403" lon="6.89334">
        <ele>204.898071</ele>
        <time>2012-05-07T13:32:02+02:00</time>
      </trkpt>
      <trkpt lat="43.47405" lon="6.8933">
        <ele>203.93689</ele>
        <time>2012-05-07T13:32:10+02:00</time>
      </trkpt>
      <trkpt lat="43.47409" lon="6.89331">
        <ele>201.052856</ele>
        <time>2012-05-07T13:32:19+02:00</time>
      </trkpt>
      <trkpt lat="43.47411" lon="6.89333">
        <ele>201.052856</ele>
        <time>2012-05-07T13:32:25+02:00</time>
      </trkpt>
      <trkpt lat="43.47409" lon="6.8933">
        <ele>201.533569</ele>
        <time>2012-05-07T13:32:30+02:00</time>
      </trkpt>
      <trkpt lat="43.47412" lon="6.8933">
        <ele>207.301392</ele>
        <time>2012-05-07T13:32:41+02:00</time>
      </trkpt>
      <trkpt lat="43.4741" lon="6.89328">
        <ele>207.782104</ele>
        <time>2012-05-07T13:32:46+02:00</time>
      </trkpt>
      <trkpt lat="43.47409" lon="6.89327">
        <ele>208.743408</ele>
        <time>2012-05-07T13:32:51+02:00</time>
      </trkpt>
      <trkpt lat="43.4741" lon="6.89327">
        <ele>212.108032</ele>
        <time>2012-05-07T13:33:08+02:00</time>
      </trkpt>
      <trkpt lat="43.47412" lon="6.89329">
        <ele>211.627441</ele>
        <time>2012-05-07T13:33:13+02:00</time>
      </trkpt>
      <trkpt lat="43.47412" lon="6.89331">
        <ele>211.627441</ele>
        <time>2012-05-07T13:33:19+02:00</time>
      </trkpt>
      <trkpt lat="43.47412" lon="6.89333">
        <ele>211.627441</ele>
        <time>2012-05-07T13:33:29+02:00</time>
      </trkpt>
      <trkpt lat="43.47419" lon="6.89345">
        <ele>209.704834</ele>
        <time>2012-05-07T13:33:33+02:00</time>
      </trkpt>
      <trkpt lat="43.47429" lon="6.89351">
        <ele>205.859497</ele>
        <time>2012-05-07T13:33:38+02:00</time>
      </trkpt>
      <trkpt lat="43.47432" lon="6.89349">
        <ele>205.859497</ele>
        <time>2012-05-07T13:33:39+02:00</time>
      </trkpt>
      <trkpt lat="43.47435" lon="6.89348">
        <ele>205.378784</ele>
        <time>2012-05-07T13:33:47+02:00</time>
      </trkpt>
      <trkpt lat="43.47437" lon="6.89346">
        <ele>206.820679</ele>
        <time>2012-05-07T13:33:53+02:00</time>
      </trkpt>
      <trkpt lat="43.47437" lon="6.8934">
        <ele>207.301392</ele>
        <time>2012-05-07T13:34:03+02:00</time>
      </trkpt>
      <trkpt lat="43.47437" lon="6.89336">
        <ele>206.340088</ele>
        <time>2012-05-07T13:34:08+02:00</time>
      </trkpt>
      <trkpt lat="43.47437" lon="6.89334">
        <ele>204.898071</ele>
        <time>2012-05-07T13:34:10+02:00</time>
      </trkpt>
      <trkpt lat="43.47441" lon="6.89321">
        <ele>200.572266</ele>
        <time>2012-05-07T13:34:15+02:00</time>
      </trkpt>
      <trkpt lat="43.47446" lon="6.89313">
        <ele>198.649536</ele>
        <time>2012-05-07T13:34:18+02:00</time>
      </trkpt>
      <trkpt lat="43.47458" lon="6.893">
        <ele>195.765625</ele>
        <time>2012-05-07T13:34:23+02:00</time>
      </trkpt>
      <trkpt lat="43.47472" lon="6.89271">
        <ele>192.401123</ele>
        <time>2012-05-07T13:34:29+02:00</time>
      </trkpt>
      <trkpt lat="43.4748" lon="6.89252">
        <ele>189.036377</ele>
        <time>2012-05-07T13:34:33+02:00</time>
      </trkpt>
      <trkpt lat="43.47482" lon="6.89248">
        <ele>188.555786</ele>
        <time>2012-05-07T13:34:34+02:00</time>
      </trkpt>
      <trkpt lat="43.47491" lon="6.89237">
        <ele>186.633179</ele>
        <time>2012-05-07T13:34:39+02:00</time>
      </trkpt>
      <trkpt lat="43.4749" lon="6.89237">
        <ele>187.11377</ele>
        <time>2012-05-07T13:34:48+02:00</time>
      </trkpt>
      <trkpt lat="43.4749" lon="6.89237">
        <ele>187.11377</ele>
        <time>2012-05-07T13:34:52+02:00</time>
      </trkpt>
      <trkpt lat="43.47485" lon="6.8924">
        <ele>187.11377</ele>
        <time>2012-05-07T13:34:56+02:00</time>
      </trkpt>
      <trkpt lat="43.47485" lon="6.8924">
        <ele>188.555786</ele>
        <time>2012-05-07T13:35:04+02:00</time>
      </trkpt>
      <trkpt lat="43.47485" lon="6.8924">
        <ele>188.555786</ele>
        <time>2012-05-07T13:35:12+02:00</time>
      </trkpt>
      <trkpt lat="43.47485" lon="6.89239">
        <ele>189.036377</ele>
        <time>2012-05-07T13:35:30+02:00</time>
      </trkpt>
      <trkpt lat="43.47483" lon="6.89241">
        <ele>188.555786</ele>
        <time>2012-05-07T13:35:34+02:00</time>
      </trkpt>
      <trkpt lat="43.47481" lon="6.89243">
        <ele>188.075073</ele>
        <time>2012-05-07T13:35:44+02:00</time>
      </trkpt>
      <trkpt lat="43.47473" lon="6.8925">
        <ele>187.11377</ele>
        <time>2012-05-07T13:35:48+02:00</time>
      </trkpt>
      <trkpt lat="43.47465" lon="6.89255">
        <ele>186.152466</ele>
        <time>2012-05-07T13:35:52+02:00</time>
      </trkpt>
      <trkpt lat="43.47447" lon="6.89265">
        <ele>183.268433</ele>
        <time>2012-05-07T13:35:56+02:00</time>
      </trkpt>
      <trkpt lat="43.47444" lon="6.89266">
        <ele>182.307129</ele>
        <time>2012-05-07T13:35:57+02:00</time>
      </trkpt>
      <trkpt lat="43.47441" lon="6.89265">
        <ele>180.384521</ele>
        <time>2012-05-07T13:35:59+02:00</time>
      </trkpt>
      <trkpt lat="43.4744" lon="6.89262">
        <ele>178.942627</ele>
        <time>2012-05-07T13:36:01+02:00</time>
      </trkpt>
      <trkpt lat="43.47448" lon="6.89255">
        <ele>176.058594</ele>
        <time>2012-05-07T13:36:05+02:00</time>
      </trkpt>
      <trkpt lat="43.47454" lon="6.89247">
        <ele>175.09729</ele>
        <time>2012-05-07T13:36:07+02:00</time>
      </trkpt>
      <trkpt lat="43.47464" lon="6.89231">
        <ele>170.290649</ele>
        <time>2012-05-07T13:36:12+02:00</time>
      </trkpt>
      <trkpt lat="43.47472" lon="6.89217">
        <ele>166.926025</ele>
        <time>2012-05-07T13:36:16+02:00</time>
      </trkpt>
      <trkpt lat="43.47473" lon="6.89214">
        <ele>166.445312</ele>
        <time>2012-05-07T13:36:17+02:00</time>
      </trkpt>
      <trkpt lat="43.47479" lon="6.89207">
        <ele>164.042114</ele>
        <time>2012-05-07T13:36:21+02:00</time>
      </trkpt>
      <trkpt lat="43.47479" lon="6.89206">
        <ele>163.080811</ele>
        <time>2012-05-07T13:36:28+02:00</time>
      </trkpt>
      <trkpt lat="43.4748" lon="6.89203">
        <ele>162.600098</ele>
        <time>2012-05-07T13:36:34+02:00</time>
      </trkpt>
      <trkpt lat="43.4748" lon="6.89203">
        <ele>163.561523</ele>
        <time>2012-05-07T13:36:40+02:00</time>
      </trkpt>
      <trkpt lat="43.47477" lon="6.89192">
        <ele>173.174683</ele>
        <time>2012-05-07T13:37:22+02:00</time>
      </trkpt>
      <trkpt lat="43.4748" lon="6.89176">
        <ele>171.252075</ele>
        <time>2012-05-07T13:37:27+02:00</time>
      </trkpt>
      <trkpt lat="43.47485" lon="6.89167">
        <ele>168.848755</ele>
        <time>2012-05-07T13:37:31+02:00</time>
      </trkpt>
      <trkpt lat="43.47487" lon="6.89156">
        <ele>165.484131</ele>
        <time>2012-05-07T13:37:36+02:00</time>
      </trkpt>
      <trkpt lat="43.47489" lon="6.89145">
        <ele>163.561523</ele>
        <time>2012-05-07T13:37:40+02:00</time>
      </trkpt>
      <trkpt lat="43.47492" lon="6.89132">
        <ele>161.158203</ele>
        <time>2012-05-07T13:37:47+02:00</time>
      </trkpt>
      <trkpt lat="43.47496" lon="6.89105">
        <ele>156.351562</ele>
        <time>2012-05-07T13:37:52+02:00</time>
      </trkpt>
      <trkpt lat="43.475" lon="6.89097">
        <ele>154.909546</ele>
        <time>2012-05-07T13:37:54+02:00</time>
      </trkpt>
      <trkpt lat="43.47499" lon="6.89094">
        <ele>152.506348</ele>
        <time>2012-05-07T13:37:58+02:00</time>
      </trkpt>
      <trkpt lat="43.47496" lon="6.89098">
        <ele>151.544922</ele>
        <time>2012-05-07T13:38:00+02:00</time>
      </trkpt>
      <trkpt lat="43.47483" lon="6.89117">
        <ele>149.141602</ele>
        <time>2012-05-07T13:38:05+02:00</time>
      </trkpt>
      <trkpt lat="43.47482" lon="6.89121">
        <ele>148.661011</ele>
        <time>2012-05-07T13:38:06+02:00</time>
      </trkpt>
      <trkpt lat="43.47472" lon="6.89142">
        <ele>145.7771</ele>
        <time>2012-05-07T13:38:11+02:00</time>
      </trkpt>
      <trkpt lat="43.47466" lon="6.89151">
        <ele>143.373657</ele>
        <time>2012-05-07T13:38:15+02:00</time>
      </trkpt>
      <trkpt lat="43.47465" lon="6.89151">
        <ele>144.335205</ele>
        <time>2012-05-07T13:38:22+02:00</time>
      </trkpt>
      <trkpt lat="43.47464" lon="6.89155">
        <ele>143.85437</ele>
        <time>2012-05-07T13:38:27+02:00</time>
      </trkpt>
      <trkpt lat="43.47465" lon="6.89152">
        <ele>143.85437</ele>
        <time>2012-05-07T13:38:32+02:00</time>
      </trkpt>
      <trkpt lat="43.47465" lon="6.8915">
        <ele>143.85437</ele>
        <time>2012-05-07T13:38:36+02:00</time>
      </trkpt>
      <trkpt lat="43.47467" lon="6.89148">
        <ele>144.815796</ele>
        <time>2012-05-07T13:38:47+02:00</time>
      </trkpt>
      <trkpt lat="43.47468" lon="6.89147">
        <ele>145.7771</ele>
        <time>2012-05-07T13:38:55+02:00</time>
      </trkpt>
      <trkpt lat="43.47464" lon="6.89153">
        <ele>145.296387</ele>
        <time>2012-05-07T13:39:00+02:00</time>
      </trkpt>
      <trkpt lat="43.4746" lon="6.8915">
        <ele>144.335205</ele>
        <time>2012-05-07T13:39:04+02:00</time>
      </trkpt>
      <trkpt lat="43.4746" lon="6.8915">
        <ele>143.85437</ele>
        <time>2012-05-07T13:39:07+02:00</time>
      </trkpt>
      <trkpt lat="43.4746" lon="6.89145">
        <ele>144.815796</ele>
        <time>2012-05-07T13:39:23+02:00</time>
      </trkpt>
      <trkpt lat="43.47459" lon="6.89144">
        <ele>144.815796</ele>
        <time>2012-05-07T13:39:24+02:00</time>
      </trkpt>
      <trkpt lat="43.47458" lon="6.89139">
        <ele>144.815796</ele>
        <time>2012-05-07T13:39:29+02:00</time>
      </trkpt>
      <trkpt lat="43.4746" lon="6.89137">
        <ele>140.970459</ele>
        <time>2012-05-07T13:39:55+02:00</time>
      </trkpt>
      <trkpt lat="43.47457" lon="6.89117">
        <ele>136.644653</ele>
        <time>2012-05-07T13:39:59+02:00</time>
      </trkpt>
      <trkpt lat="43.47452" lon="6.89092">
        <ele>132.799316</ele>
        <time>2012-05-07T13:40:03+02:00</time>
      </trkpt>
      <trkpt lat="43.47445" lon="6.89071">
        <ele>130.395996</ele>
        <time>2012-05-07T13:40:08+02:00</time>
      </trkpt>
      <trkpt lat="43.4744" lon="6.89058">
        <ele>128.954102</ele>
        <time>2012-05-07T13:40:11+02:00</time>
      </trkpt>
      <trkpt lat="43.47435" lon="6.89049">
        <ele>127.511963</ele>
        <time>2012-05-07T13:40:13+02:00</time>
      </trkpt>
      <trkpt lat="43.4743" lon="6.8903">
        <ele>125.589355</ele>
        <time>2012-05-07T13:40:16+02:00</time>
      </trkpt>
      <trkpt lat="43.47423" lon="6.89012">
        <ele>124.147339</ele>
        <time>2012-05-07T13:40:19+02:00</time>
      </trkpt>
      <trkpt lat="43.4742" lon="6.88995">
        <ele>121.744141</ele>
        <time>2012-05-07T13:40:23+02:00</time>
      </trkpt>
      <trkpt lat="43.47421" lon="6.88996">
        <ele>119.821411</ele>
        <time>2012-05-07T13:40:27+02:00</time>
      </trkpt>
      <trkpt lat="43.47422" lon="6.89">
        <ele>118.379395</ele>
        <time>2012-05-07T13:40:44+02:00</time>
      </trkpt>
      <trkpt lat="43.47426" lon="6.89007">
        <ele>118.860107</ele>
        <time>2012-05-07T13:40:50+02:00</time>
      </trkpt>
      <trkpt lat="43.47427" lon="6.89009">
        <ele>118.379395</ele>
        <time>2012-05-07T13:40:52+02:00</time>
      </trkpt>
      <trkpt lat="43.47431" lon="6.89012">
        <ele>116.456787</ele>
        <time>2012-05-07T13:40:56+02:00</time>
      </trkpt>
      <trkpt lat="43.47433" lon="6.89014">
        <ele>116.456787</ele>
        <time>2012-05-07T13:41:02+02:00</time>
      </trkpt>
      <trkpt lat="43.4744" lon="6.89019">
        <ele>117.418213</ele>
        <time>2012-05-07T13:41:08+02:00</time>
      </trkpt>
      <trkpt lat="43.47445" lon="6.89023">
        <ele>117.898804</ele>
        <time>2012-05-07T13:41:12+02:00</time>
      </trkpt>
      <trkpt lat="43.47447" lon="6.89025">
        <ele>117.898804</ele>
        <time>2012-05-07T13:41:25+02:00</time>
      </trkpt>
      <trkpt lat="43.47449" lon="6.89024">
        <ele>118.379395</ele>
        <time>2012-05-07T13:41:30+02:00</time>
      </trkpt>
      <trkpt lat="43.47449" lon="6.89021">
        <ele>118.860107</ele>
        <time>2012-05-07T13:41:37+02:00</time>
      </trkpt>
      <trkpt lat="43.47446" lon="6.89017">
        <ele>118.379395</ele>
        <time>2012-05-07T13:41:41+02:00</time>
      </trkpt>
      <trkpt lat="43.47443" lon="6.89013">
        <ele>119.34082</ele>
        <time>2012-05-07T13:41:46+02:00</time>
      </trkpt>
      <trkpt lat="43.47443" lon="6.89011">
        <ele>118.860107</ele>
        <time>2012-05-07T13:41:52+02:00</time>
      </trkpt>
      <trkpt lat="43.47444" lon="6.89009">
        <ele>119.821411</ele>
        <time>2012-05-07T13:41:58+02:00</time>
      </trkpt>
      <trkpt lat="43.47439" lon="6.88997">
        <ele>119.821411</ele>
        <time>2012-05-07T13:42:02+02:00</time>
      </trkpt>
      <trkpt lat="43.47438" lon="6.88988">
        <ele>118.379395</ele>
        <time>2012-05-07T13:42:07+02:00</time>
      </trkpt>
      <trkpt lat="43.47437" lon="6.88977">
        <ele>116.9375</ele>
        <time>2012-05-07T13:42:11+02:00</time>
      </trkpt>
      <trkpt lat="43.47436" lon="6.88955">
        <ele>115.976196</ele>
        <time>2012-05-07T13:42:16+02:00</time>
      </trkpt>
      <trkpt lat="43.4743" lon="6.88932">
        <ele>113.092285</ele>
        <time>2012-05-07T13:42:20+02:00</time>
      </trkpt>
      <trkpt lat="43.47425" lon="6.88918">
        <ele>110.688843</ele>
        <time>2012-05-07T13:42:22+02:00</time>
      </trkpt>
      <trkpt lat="43.47411" lon="6.88892">
        <ele>107.805054</ele>
        <time>2012-05-07T13:42:26+02:00</time>
      </trkpt>
      <trkpt lat="43.47397" lon="6.88873">
        <ele>105.401733</ele>
        <time>2012-05-07T13:42:30+02:00</time>
      </trkpt>
      <trkpt lat="43.4739" lon="6.88868">
        <ele>103.479004</ele>
        <time>2012-05-07T13:42:32+02:00</time>
      </trkpt>
      <trkpt lat="43.47375" lon="6.88852">
        <ele>99.1530762</ele>
        <time>2012-05-07T13:42:36+02:00</time>
      </trkpt>
      <trkpt lat="43.47355" lon="6.88824">
        <ele>93.3851318</ele>
        <time>2012-05-07T13:42:41+02:00</time>
      </trkpt>
      <trkpt lat="43.47351" lon="6.88807">
        <ele>89.539917</ele>
        <time>2012-05-07T13:42:44+02:00</time>
      </trkpt>
      <trkpt lat="43.47354" lon="6.88781">
        <ele>86.175293</ele>
        <time>2012-05-07T13:42:48+02:00</time>
      </trkpt>
      <trkpt lat="43.47354" lon="6.88775">
        <ele>85.2139893</ele>
        <time>2012-05-07T13:42:49+02:00</time>
      </trkpt>
      <trkpt lat="43.47346" lon="6.88739">
        <ele>80.8881836</ele>
        <time>2012-05-07T13:42:55+02:00</time>
      </trkpt>
      <trkpt lat="43.47345" lon="6.88737">
        <ele>80.8881836</ele>
        <time>2012-05-07T13:42:58+02:00</time>
      </trkpt>
      <trkpt lat="43.47346" lon="6.88733">
        <ele>80.4074707</ele>
        <time>2012-05-07T13:43:10+02:00</time>
      </trkpt>
      <trkpt lat="43.47347" lon="6.88728">
        <ele>80.4074707</ele>
        <time>2012-05-07T13:43:15+02:00</time>
      </trkpt>
      <trkpt lat="43.47346" lon="6.88721">
        <ele>81.3687744</ele>
        <time>2012-05-07T13:43:22+02:00</time>
      </trkpt>
      <trkpt lat="43.47346" lon="6.88723">
        <ele>81.8493652</ele>
        <time>2012-05-07T13:43:28+02:00</time>
      </trkpt>
      <trkpt lat="43.47349" lon="6.88729">
        <ele>78.4847412</ele>
        <time>2012-05-07T13:43:47+02:00</time>
      </trkpt>
      <trkpt lat="43.47348" lon="6.88733">
        <ele>77.5234375</ele>
        <time>2012-05-07T13:43:52+02:00</time>
      </trkpt>
      <trkpt lat="43.47349" lon="6.88731">
        <ele>75.1202393</ele>
        <time>2012-05-07T13:44:04+02:00</time>
      </trkpt>
      <trkpt lat="43.47348" lon="6.88725">
        <ele>75.6008301</ele>
        <time>2012-05-07T13:44:09+02:00</time>
      </trkpt>
      <trkpt lat="43.47347" lon="6.88722">
        <ele>77.0428467</ele>
        <time>2012-05-07T13:44:13+02:00</time>
      </trkpt>
      <trkpt lat="43.47345" lon="6.88717">
        <ele>79.9266357</ele>
        <time>2012-05-07T13:44:34+02:00</time>
      </trkpt>
      <trkpt lat="43.4734" lon="6.88701">
        <ele>78.9654541</ele>
        <time>2012-05-07T13:44:40+02:00</time>
      </trkpt>
      <trkpt lat="43.47331" lon="6.88686">
        <ele>78.0040283</ele>
        <time>2012-05-07T13:44:45+02:00</time>
      </trkpt>
      <trkpt lat="43.47322" lon="6.8867">
        <ele>77.5234375</ele>
        <time>2012-05-07T13:44:49+02:00</time>
      </trkpt>
      <trkpt lat="43.47313" lon="6.88649">
        <ele>76.5621338</ele>
        <time>2012-05-07T13:44:54+02:00</time>
      </trkpt>
      <trkpt lat="43.47303" lon="6.88627">
        <ele>75.6008301</ele>
        <time>2012-05-07T13:44:58+02:00</time>
      </trkpt>
      <trkpt lat="43.47297" lon="6.88591">
        <ele>75.6008301</ele>
        <time>2012-05-07T13:45:04+02:00</time>
      </trkpt>
      <trkpt lat="43.47278" lon="6.88566">
        <ele>76.0814209</ele>
        <time>2012-05-07T13:45:10+02:00</time>
      </trkpt>
      <trkpt lat="43.47274" lon="6.88552">
        <ele>74.6395264</ele>
        <time>2012-05-07T13:45:13+02:00</time>
      </trkpt>
      <trkpt lat="43.4728" lon="6.8852">
        <ele>68.871582</ele>
        <time>2012-05-07T13:45:18+02:00</time>
      </trkpt>
      <trkpt lat="43.47291" lon="6.88494">
        <ele>63.1036377</ele>
        <time>2012-05-07T13:45:22+02:00</time>
      </trkpt>
      <trkpt lat="43.47298" lon="6.88478">
        <ele>59.2584229</ele>
        <time>2012-05-07T13:45:25+02:00</time>
      </trkpt>
      <trkpt lat="43.47307" lon="6.88455">
        <ele>54.932373</ele>
        <time>2012-05-07T13:45:30+02:00</time>
      </trkpt>
      <trkpt lat="43.47316" lon="6.88451">
        <ele>53.9711914</ele>
        <time>2012-05-07T13:45:33+02:00</time>
      </trkpt>
      <trkpt lat="43.47319" lon="6.88451">
        <ele>53.9711914</ele>
        <time>2012-05-07T13:45:37+02:00</time>
      </trkpt>
      <trkpt lat="43.47319" lon="6.88451">
        <ele>55.8937988</ele>
        <time>2012-05-07T13:45:42+02:00</time>
      </trkpt>
      <trkpt lat="43.47319" lon="6.88447">
        <ele>54.4517822</ele>
        <time>2012-05-07T13:45:59+02:00</time>
      </trkpt>
      <trkpt lat="43.4732" lon="6.88443">
        <ele>56.3745117</ele>
        <time>2012-05-07T13:46:03+02:00</time>
      </trkpt>
      <trkpt lat="43.47325" lon="6.8844">
        <ele>58.2971191</ele>
        <time>2012-05-07T13:46:08+02:00</time>
      </trkpt>
      <trkpt lat="43.47329" lon="6.88435">
        <ele>59.2584229</ele>
        <time>2012-05-07T13:46:15+02:00</time>
      </trkpt>
      <trkpt lat="43.47332" lon="6.88427">
        <ele>58.77771</ele>
        <time>2012-05-07T13:46:22+02:00</time>
      </trkpt>
      <trkpt lat="43.47332" lon="6.8842">
        <ele>58.77771</ele>
        <time>2012-05-07T13:46:28+02:00</time>
      </trkpt>
      <trkpt lat="43.47333" lon="6.88421">
        <ele>57.3358154</ele>
        <time>2012-05-07T13:46:41+02:00</time>
      </trkpt>
      <trkpt lat="43.47334" lon="6.88421">
        <ele>57.8165283</ele>
        <time>2012-05-07T13:46:48+02:00</time>
      </trkpt>
      <trkpt lat="43.47334" lon="6.88421">
        <ele>57.8165283</ele>
        <time>2012-05-07T13:46:54+02:00</time>
      </trkpt>
      <trkpt lat="43.47333" lon="6.8842">
        <ele>58.77771</ele>
        <time>2012-05-07T13:47:10+02:00</time>
      </trkpt>
      <trkpt lat="43.47333" lon="6.8842">
        <ele>58.77771</ele>
        <time>2012-05-07T13:47:18+02:00</time>
      </trkpt>
      <trkpt lat="43.47333" lon="6.88419">
        <ele>58.2971191</ele>
        <time>2012-05-07T13:47:25+02:00</time>
      </trkpt>
      <trkpt lat="43.47339" lon="6.8841">
        <ele>56.8551025</ele>
        <time>2012-05-07T13:47:29+02:00</time>
      </trkpt>
      <trkpt lat="43.47352" lon="6.88373">
        <ele>55.8937988</ele>
        <time>2012-05-07T13:47:36+02:00</time>
      </trkpt>
      <trkpt lat="43.47353" lon="6.88358">
        <ele>55.8937988</ele>
        <time>2012-05-07T13:47:38+02:00</time>
      </trkpt>
      <trkpt lat="43.47358" lon="6.88305">
        <ele>55.8937988</ele>
        <time>2012-05-07T13:47:45+02:00</time>
      </trkpt>
      <trkpt lat="43.4737" lon="6.88246">
        <ele>55.4130859</ele>
        <time>2012-05-07T13:47:53+02:00</time>
      </trkpt>
      <trkpt lat="43.47371" lon="6.88217">
        <ele>54.4517822</ele>
        <time>2012-05-07T13:47:57+02:00</time>
      </trkpt>
      <trkpt lat="43.47369" lon="6.88181">
        <ele>54.4517822</ele>
        <time>2012-05-07T13:48:03+02:00</time>
      </trkpt>
      <trkpt lat="43.47371" lon="6.88169">
        <ele>53.9711914</ele>
        <time>2012-05-07T13:48:07+02:00</time>
      </trkpt>
      <trkpt lat="43.47375" lon="6.88177">
        <ele>53.0097656</ele>
        <time>2012-05-07T13:48:10+02:00</time>
      </trkpt>
      <trkpt lat="43.47382" lon="6.88205">
        <ele>51.0871582</ele>
        <time>2012-05-07T13:48:15+02:00</time>
      </trkpt>
      <trkpt lat="43.47393" lon="6.88215">
        <ele>51.5678711</ele>
        <time>2012-05-07T13:48:19+02:00</time>
      </trkpt>
      <trkpt lat="43.47395" lon="6.8822">
        <ele>53.0097656</ele>
        <time>2012-05-07T13:48:22+02:00</time>
      </trkpt>
      <trkpt lat="43.474" lon="6.88227">
        <ele>53.9711914</ele>
        <time>2012-05-07T13:48:27+02:00</time>
      </trkpt>
      <trkpt lat="43.47402" lon="6.88238">
        <ele>55.4130859</ele>
        <time>2012-05-07T13:48:33+02:00</time>
      </trkpt>
      <trkpt lat="43.47403" lon="6.88244">
        <ele>56.3745117</ele>
        <time>2012-05-07T13:48:36+02:00</time>
      </trkpt>
      <trkpt lat="43.47399" lon="6.88267">
        <ele>56.8551025</ele>
        <time>2012-05-07T13:48:43+02:00</time>
      </trkpt>
      <trkpt lat="43.47398" lon="6.88287">
        <ele>57.8165283</ele>
        <time>2012-05-07T13:48:49+02:00</time>
      </trkpt>
      <trkpt lat="43.47396" lon="6.8831">
        <ele>57.3358154</ele>
        <time>2012-05-07T13:48:56+02:00</time>
      </trkpt>
      <trkpt lat="43.47394" lon="6.88338">
        <ele>59.2584229</ele>
        <time>2012-05-07T13:49:04+02:00</time>
      </trkpt>
      <trkpt lat="43.47392" lon="6.88357">
        <ele>61.1810303</ele>
        <time>2012-05-07T13:49:10+02:00</time>
      </trkpt>
      <trkpt lat="43.47392" lon="6.8838">
        <ele>63.1036377</ele>
        <time>2012-05-07T13:49:17+02:00</time>
      </trkpt>
      <trkpt lat="43.47395" lon="6.88406">
        <ele>64.5456543</ele>
        <time>2012-05-07T13:49:25+02:00</time>
      </trkpt>
      <trkpt lat="43.47403" lon="6.88432">
        <ele>65.9876709</ele>
        <time>2012-05-07T13:49:33+02:00</time>
      </trkpt>
      <trkpt lat="43.47412" lon="6.88453">
        <ele>66.4682617</ele>
        <time>2012-05-07T13:49:39+02:00</time>
      </trkpt>
      <trkpt lat="43.47425" lon="6.88471">
        <ele>66.9489746</ele>
        <time>2012-05-07T13:49:45+02:00</time>
      </trkpt>
      <trkpt lat="43.47445" lon="6.88478">
        <ele>67.9102783</ele>
        <time>2012-05-07T13:49:51+02:00</time>
      </trkpt>
      <trkpt lat="43.47459" lon="6.88472">
        <ele>67.4296875</ele>
        <time>2012-05-07T13:49:55+02:00</time>
      </trkpt>
      <trkpt lat="43.47467" lon="6.88458">
        <ele>68.871582</ele>
        <time>2012-05-07T13:49:59+02:00</time>
      </trkpt>
      <trkpt lat="43.47476" lon="6.88444">
        <ele>67.4296875</ele>
        <time>2012-05-07T13:50:04+02:00</time>
      </trkpt>
      <trkpt lat="43.47488" lon="6.88437">
        <ele>67.4296875</ele>
        <time>2012-05-07T13:50:10+02:00</time>
      </trkpt>
      <trkpt lat="43.47502" lon="6.88435">
        <ele>67.9102783</ele>
        <time>2012-05-07T13:50:18+02:00</time>
      </trkpt>
      <trkpt lat="43.47514" lon="6.88435">
        <ele>69.3522949</ele>
        <time>2012-05-07T13:50:25+02:00</time>
      </trkpt>
      <trkpt lat="43.4753" lon="6.88437">
        <ele>72.2362061</ele>
        <time>2012-05-07T13:50:35+02:00</time>
      </trkpt>
      <trkpt lat="43.47545" lon="6.8844">
        <ele>73.1976318</ele>
        <time>2012-05-07T13:50:44+02:00</time>
      </trkpt>
      <trkpt lat="43.47557" lon="6.88445">
        <ele>74.6395264</ele>
        <time>2012-05-07T13:50:52+02:00</time>
      </trkpt>
      <trkpt lat="43.47572" lon="6.88451">
        <ele>75.1202393</ele>
        <time>2012-05-07T13:51:01+02:00</time>
      </trkpt>
      <trkpt lat="43.47582" lon="6.88456">
        <ele>74.6395264</ele>
        <time>2012-05-07T13:51:07+02:00</time>
      </trkpt>
      <trkpt lat="43.47603" lon="6.88465">
        <ele>74.6395264</ele>
        <time>2012-05-07T13:51:18+02:00</time>
      </trkpt>
      <trkpt lat="43.47615" lon="6.88469">
        <ele>75.6008301</ele>
        <time>2012-05-07T13:51:24+02:00</time>
      </trkpt>
      <trkpt lat="43.47629" lon="6.88473">
        <ele>77.0428467</ele>
        <time>2012-05-07T13:51:31+02:00</time>
      </trkpt>
      <trkpt lat="43.47645" lon="6.88475">
        <ele>78.4847412</ele>
        <time>2012-05-07T13:51:39+02:00</time>
      </trkpt>
      <trkpt lat="43.4766" lon="6.88477">
        <ele>78.9654541</ele>
        <time>2012-05-07T13:51:46+02:00</time>
      </trkpt>
      <trkpt lat="43.47673" lon="6.88481">
        <ele>79.4460449</ele>
        <time>2012-05-07T13:51:52+02:00</time>
      </trkpt>
      <trkpt lat="43.47689" lon="6.88481">
        <ele>79.9266357</ele>
        <time>2012-05-07T13:51:59+02:00</time>
      </trkpt>
      <trkpt lat="43.47708" lon="6.88482">
        <ele>80.4074707</ele>
        <time>2012-05-07T13:52:06+02:00</time>
      </trkpt>
      <trkpt lat="43.4773" lon="6.88482">
        <ele>80.8881836</ele>
        <time>2012-05-07T13:52:15+02:00</time>
      </trkpt>
      <trkpt lat="43.47745" lon="6.88485">
        <ele>81.3687744</ele>
        <time>2012-05-07T13:52:21+02:00</time>
      </trkpt>
      <trkpt lat="43.47757" lon="6.88493">
        <ele>83.2913818</ele>
        <time>2012-05-07T13:52:26+02:00</time>
      </trkpt>
      <trkpt lat="43.47762" lon="6.88508">
        <ele>86.6560059</ele>
        <time>2012-05-07T13:52:31+02:00</time>
      </trkpt>
      <trkpt lat="43.47767" lon="6.88525">
        <ele>90.0206299</ele>
        <time>2012-05-07T13:52:37+02:00</time>
      </trkpt>
      <trkpt lat="43.47779" lon="6.88539">
        <ele>91.9432373</ele>
        <time>2012-05-07T13:52:44+02:00</time>
      </trkpt>
      <trkpt lat="43.47792" lon="6.8855">
        <ele>91.4625244</ele>
        <time>2012-05-07T13:52:51+02:00</time>
      </trkpt>
      <trkpt lat="43.47807" lon="6.88561">
        <ele>91.9432373</ele>
        <time>2012-05-07T13:52:58+02:00</time>
      </trkpt>
      <trkpt lat="43.47825" lon="6.88564">
        <ele>92.4239502</ele>
        <time>2012-05-07T13:53:06+02:00</time>
      </trkpt>
      <trkpt lat="43.47844" lon="6.88554">
        <ele>94.3465576</ele>
        <time>2012-05-07T13:53:14+02:00</time>
      </trkpt>
      <trkpt lat="43.47861" lon="6.88538">
        <ele>99.1530762</ele>
        <time>2012-05-07T13:53:22+02:00</time>
      </trkpt>
      <trkpt lat="43.47874" lon="6.88529">
        <ele>100.595093</ele>
        <time>2012-05-07T13:53:28+02:00</time>
      </trkpt>
      <trkpt lat="43.47892" lon="6.8852">
        <ele>102.037109</ele>
        <time>2012-05-07T13:53:36+02:00</time>
      </trkpt>
      <trkpt lat="43.47908" lon="6.8851">
        <ele>102.998291</ele>
        <time>2012-05-07T13:53:44+02:00</time>
      </trkpt>
      <trkpt lat="43.47924" lon="6.88494">
        <ele>104.44043</ele>
        <time>2012-05-07T13:53:52+02:00</time>
      </trkpt>
      <trkpt lat="43.47939" lon="6.88481">
        <ele>104.44043</ele>
        <time>2012-05-07T13:53:59+02:00</time>
      </trkpt>
      <trkpt lat="43.47956" lon="6.88467">
        <ele>105.401733</ele>
        <time>2012-05-07T13:54:07+02:00</time>
      </trkpt>
      <trkpt lat="43.47973" lon="6.88456">
        <ele>110.688843</ele>
        <time>2012-05-07T13:54:15+02:00</time>
      </trkpt>
      <trkpt lat="43.4799" lon="6.88441">
        <ele>114.053589</ele>
        <time>2012-05-07T13:54:25+02:00</time>
      </trkpt>
      <trkpt lat="43.48" lon="6.88431">
        <ele>115.976196</ele>
        <time>2012-05-07T13:54:31+02:00</time>
      </trkpt>
      <trkpt lat="43.48019" lon="6.8841">
        <ele>118.860107</ele>
        <time>2012-05-07T13:54:43+02:00</time>
      </trkpt>
      <trkpt lat="43.4803" lon="6.88403">
        <ele>121.26355</ele>
        <time>2012-05-07T13:54:50+02:00</time>
      </trkpt>
      <trkpt lat="43.48041" lon="6.88393">
        <ele>122.705444</ele>
        <time>2012-05-07T13:54:57+02:00</time>
      </trkpt>
      <trkpt lat="43.48052" lon="6.88382">
        <ele>124.147339</ele>
        <time>2012-05-07T13:55:04+02:00</time>
      </trkpt>
      <trkpt lat="43.48069" lon="6.88365">
        <ele>125.108765</ele>
        <time>2012-05-07T13:55:15+02:00</time>
      </trkpt>
      <trkpt lat="43.48085" lon="6.88345">
        <ele>124.147339</ele>
        <time>2012-05-07T13:55:25+02:00</time>
      </trkpt>
      <trkpt lat="43.48096" lon="6.88327">
        <ele>123.186157</ele>
        <time>2012-05-07T13:55:33+02:00</time>
      </trkpt>
      <trkpt lat="43.48104" lon="6.88314">
        <ele>122.705444</ele>
        <time>2012-05-07T13:55:39+02:00</time>
      </trkpt>
      <trkpt lat="43.48115" lon="6.88291">
        <ele>123.186157</ele>
        <time>2012-05-07T13:55:49+02:00</time>
      </trkpt>
      <trkpt lat="43.4812" lon="6.88275">
        <ele>124.628052</ele>
        <time>2012-05-07T13:55:55+02:00</time>
      </trkpt>
      <trkpt lat="43.48122" lon="6.88259">
        <ele>125.589355</ele>
        <time>2012-05-07T13:56:01+02:00</time>
      </trkpt>
      <trkpt lat="43.48123" lon="6.88245">
        <ele>126.069946</ele>
        <time>2012-05-07T13:56:06+02:00</time>
      </trkpt>
      <trkpt lat="43.48122" lon="6.88227">
        <ele>127.511963</ele>
        <time>2012-05-07T13:56:13+02:00</time>
      </trkpt>
      <trkpt lat="43.48121" lon="6.88204">
        <ele>128.954102</ele>
        <time>2012-05-07T13:56:21+02:00</time>
      </trkpt>
      <trkpt lat="43.4812" lon="6.88179">
        <ele>132.318604</ele>
        <time>2012-05-07T13:56:29+02:00</time>
      </trkpt>
      <trkpt lat="43.48121" lon="6.88154">
        <ele>135.202515</ele>
        <time>2012-05-07T13:56:37+02:00</time>
      </trkpt>
      <trkpt lat="43.48123" lon="6.88133">
        <ele>138.567261</ele>
        <time>2012-05-07T13:56:44+02:00</time>
      </trkpt>
      <trkpt lat="43.48126" lon="6.8811">
        <ele>140.009155</ele>
        <time>2012-05-07T13:56:52+02:00</time>
      </trkpt>
      <trkpt lat="43.48131" lon="6.88089">
        <ele>140.489868</ele>
        <time>2012-05-07T13:57:00+02:00</time>
      </trkpt>
      <trkpt lat="43.48139" lon="6.88073">
        <ele>140.489868</ele>
        <time>2012-05-07T13:57:07+02:00</time>
      </trkpt>
      <trkpt lat="43.48141" lon="6.8807">
        <ele>140.009155</ele>
        <time>2012-05-07T13:57:09+02:00</time>
      </trkpt>
      <trkpt lat="43.48142" lon="6.88067">
        <ele>139.528442</ele>
        <time>2012-05-07T13:57:16+02:00</time>
      </trkpt>
      <trkpt lat="43.48143" lon="6.88066">
        <ele>143.85437</ele>
        <time>2012-05-07T13:57:25+02:00</time>
      </trkpt>
      <trkpt lat="43.48143" lon="6.88066">
        <ele>144.335205</ele>
        <time>2012-05-07T13:57:36+02:00</time>
      </trkpt>
      <trkpt lat="43.48144" lon="6.88067">
        <ele>144.335205</ele>
        <time>2012-05-07T13:57:55+02:00</time>
      </trkpt>
      <trkpt lat="43.48141" lon="6.88065">
        <ele>150.103027</ele>
        <time>2012-05-07T13:58:15+02:00</time>
      </trkpt>
      <trkpt lat="43.48141" lon="6.88064">
        <ele>149.622314</ele>
        <time>2012-05-07T13:58:21+02:00</time>
      </trkpt>
      <trkpt lat="43.4814" lon="6.88062">
        <ele>149.622314</ele>
        <time>2012-05-07T13:58:32+02:00</time>
      </trkpt>
      <trkpt lat="43.4814" lon="6.88062">
        <ele>150.103027</ele>
        <time>2012-05-07T13:58:46+02:00</time>
      </trkpt>
      <trkpt lat="43.48142" lon="6.88062">
        <ele>146.738403</ele>
        <time>2012-05-07T13:58:55+02:00</time>
      </trkpt>
      <trkpt lat="43.48143" lon="6.88062">
        <ele>146.738403</ele>
        <time>2012-05-07T13:59:04+02:00</time>
      </trkpt>
      <trkpt lat="43.48142" lon="6.88062">
        <ele>150.583618</ele>
        <time>2012-05-07T13:59:17+02:00</time>
      </trkpt>
      <trkpt lat="43.48143" lon="6.88062">
        <ele>151.064209</ele>
        <time>2012-05-07T13:59:25+02:00</time>
      </trkpt>
      <trkpt lat="43.48144" lon="6.88063">
        <ele>147.218994</ele>
        <time>2012-05-07T13:59:33+02:00</time>
      </trkpt>
      <trkpt lat="43.48146" lon="6.88065">
        <ele>144.815796</ele>
        <time>2012-05-07T13:59:45+02:00</time>
      </trkpt>
      <trkpt lat="43.48143" lon="6.88069">
        <ele>145.7771</ele>
        <time>2012-05-07T14:00:22+02:00</time>
      </trkpt>
      <trkpt lat="43.48142" lon="6.88069">
        <ele>149.622314</ele>
        <time>2012-05-07T14:00:44+02:00</time>
      </trkpt>
      <trkpt lat="43.48142" lon="6.88068">
        <ele>148.18042</ele>
        <time>2012-05-07T14:00:49+02:00</time>
      </trkpt>
      <trkpt lat="43.48141" lon="6.88065">
        <ele>147.218994</ele>
        <time>2012-05-07T14:01:02+02:00</time>
      </trkpt>
      <trkpt lat="43.48141" lon="6.88066">
        <ele>146.738403</ele>
        <time>2012-05-07T14:01:08+02:00</time>
      </trkpt>
      <trkpt lat="43.48141" lon="6.88066">
        <ele>147.218994</ele>
        <time>2012-05-07T14:01:19+02:00</time>
      </trkpt>
      <trkpt lat="43.48142" lon="6.88066">
        <ele>146.738403</ele>
        <time>2012-05-07T14:01:28+02:00</time>
      </trkpt>
      <trkpt lat="43.48142" lon="6.88066">
        <ele>146.257812</ele>
        <time>2012-05-07T14:01:36+02:00</time>
      </trkpt>
      <trkpt lat="43.48141" lon="6.88066">
        <ele>147.218994</ele>
        <time>2012-05-07T14:01:44+02:00</time>
      </trkpt>
      <trkpt lat="43.48141" lon="6.88066">
        <ele>146.257812</ele>
        <time>2012-05-07T14:01:51+02:00</time>
      </trkpt>
      <trkpt lat="43.48143" lon="6.88066">
        <ele>143.373657</ele>
        <time>2012-05-07T14:02:00+02:00</time>
      </trkpt>
      <trkpt lat="43.48147" lon="6.88062">
        <ele>140.970459</ele>
        <time>2012-05-07T14:02:05+02:00</time>
      </trkpt>
      <trkpt lat="43.48149" lon="6.88056">
        <ele>140.489868</ele>
        <time>2012-05-07T14:02:07+02:00</time>
      </trkpt>
      <trkpt lat="43.48153" lon="6.88036">
        <ele>141.45105</ele>
        <time>2012-05-07T14:02:13+02:00</time>
      </trkpt>
      <trkpt lat="43.48156" lon="6.88022">
        <ele>141.45105</ele>
        <time>2012-05-07T14:02:18+02:00</time>
      </trkpt>
      <trkpt lat="43.48163" lon="6.88001">
        <ele>140.970459</ele>
        <time>2012-05-07T14:02:26+02:00</time>
      </trkpt>
      <trkpt lat="43.4817" lon="6.87982">
        <ele>140.970459</ele>
        <time>2012-05-07T14:02:32+02:00</time>
      </trkpt>
      <trkpt lat="43.48184" lon="6.87951">
        <ele>142.412476</ele>
        <time>2012-05-07T14:02:42+02:00</time>
      </trkpt>
      <trkpt lat="43.48197" lon="6.87923">
        <ele>142.893066</ele>
        <time>2012-05-07T14:02:51+02:00</time>
      </trkpt>
      <trkpt lat="43.48212" lon="6.87895">
        <ele>143.373657</ele>
        <time>2012-05-07T14:03:00+02:00</time>
      </trkpt>
      <trkpt lat="43.48226" lon="6.87871">
        <ele>143.373657</ele>
        <time>2012-05-07T14:03:08+02:00</time>
      </trkpt>
      <trkpt lat="43.48239" lon="6.87849">
        <ele>143.85437</ele>
        <time>2012-05-07T14:03:14+02:00</time>
      </trkpt>
      <trkpt lat="43.4826" lon="6.87822">
        <ele>145.296387</ele>
        <time>2012-05-07T14:03:22+02:00</time>
      </trkpt>
      <trkpt lat="43.48282" lon="6.87808">
        <ele>144.815796</ele>
        <time>2012-05-07T14:03:28+02:00</time>
      </trkpt>
      <trkpt lat="43.48306" lon="6.87807">
        <ele>144.815796</ele>
        <time>2012-05-07T14:03:34+02:00</time>
      </trkpt>
      <trkpt lat="43.48346" lon="6.8781">
        <ele>144.815796</ele>
        <time>2012-05-07T14:03:43+02:00</time>
      </trkpt>
      <trkpt lat="43.48395" lon="6.87815">
        <ele>144.335205</ele>
        <time>2012-05-07T14:03:53+02:00</time>
      </trkpt>
      <trkpt lat="43.48422" lon="6.87822">
        <ele>143.373657</ele>
        <time>2012-05-07T14:03:59+02:00</time>
      </trkpt>
      <trkpt lat="43.48461" lon="6.87835">
        <ele>144.335205</ele>
        <time>2012-05-07T14:04:08+02:00</time>
      </trkpt>
      <trkpt lat="43.48481" lon="6.87843">
        <ele>145.7771</ele>
        <time>2012-05-07T14:04:13+02:00</time>
      </trkpt>
      <trkpt lat="43.4852" lon="6.87848">
        <ele>146.738403</ele>
        <time>2012-05-07T14:04:23+02:00</time>
      </trkpt>
      <trkpt lat="43.48547" lon="6.87855">
        <ele>148.18042</ele>
        <time>2012-05-07T14:04:30+02:00</time>
      </trkpt>
      <trkpt lat="43.48575" lon="6.87871">
        <ele>150.583618</ele>
        <time>2012-05-07T14:04:38+02:00</time>
      </trkpt>
      <trkpt lat="43.48595" lon="6.87891">
        <ele>152.025757</ele>
        <time>2012-05-07T14:04:45+02:00</time>
      </trkpt>
      <trkpt lat="43.48607" lon="6.87897">
        <ele>152.506348</ele>
        <time>2012-05-07T14:04:49+02:00</time>
      </trkpt>
      <trkpt lat="43.4862" lon="6.87887">
        <ele>152.506348</ele>
        <time>2012-05-07T14:04:53+02:00</time>
      </trkpt>
      <trkpt lat="43.4863" lon="6.87861">
        <ele>151.544922</ele>
        <time>2012-05-07T14:04:58+02:00</time>
      </trkpt>
      <trkpt lat="43.48631" lon="6.87854">
        <ele>151.544922</ele>
        <time>2012-05-07T14:04:59+02:00</time>
      </trkpt>
      <trkpt lat="43.48632" lon="6.87793">
        <ele>151.064209</ele>
        <time>2012-05-07T14:05:08+02:00</time>
      </trkpt>
      <trkpt lat="43.4863" lon="6.8774">
        <ele>150.583618</ele>
        <time>2012-05-07T14:05:16+02:00</time>
      </trkpt>
      <trkpt lat="43.4863" lon="6.87691">
        <ele>149.141602</ele>
        <time>2012-05-07T14:05:23+02:00</time>
      </trkpt>
      <trkpt lat="43.48632" lon="6.87676">
        <ele>148.18042</ele>
        <time>2012-05-07T14:05:25+02:00</time>
      </trkpt>
      <trkpt lat="43.48625" lon="6.87638">
        <ele>147.218994</ele>
        <time>2012-05-07T14:05:30+02:00</time>
      </trkpt>
      <trkpt lat="43.48623" lon="6.876">
        <ele>143.85437</ele>
        <time>2012-05-07T14:05:35+02:00</time>
      </trkpt>
      <trkpt lat="43.48634" lon="6.8758">
        <ele>140.489868</ele>
        <time>2012-05-07T14:05:39+02:00</time>
      </trkpt>
      <trkpt lat="43.4865" lon="6.87561">
        <ele>137.125244</ele>
        <time>2012-05-07T14:05:43+02:00</time>
      </trkpt>
      <trkpt lat="43.48654" lon="6.87555">
        <ele>137.125244</ele>
        <time>2012-05-07T14:05:44+02:00</time>
      </trkpt>
      <trkpt lat="43.48667" lon="6.87514">
        <ele>134.721924</ele>
        <time>2012-05-07T14:05:50+02:00</time>
      </trkpt>
      <trkpt lat="43.4866" lon="6.875">
        <ele>135.202515</ele>
        <time>2012-05-07T14:05:53+02:00</time>
      </trkpt>
      <trkpt lat="43.48653" lon="6.87494">
        <ele>135.202515</ele>
        <time>2012-05-07T14:05:55+02:00</time>
      </trkpt>
      <trkpt lat="43.48642" lon="6.87477">
        <ele>136.16394</ele>
        <time>2012-05-07T14:05:59+02:00</time>
      </trkpt>
      <trkpt lat="43.4864" lon="6.87456">
        <ele>138.086548</ele>
        <time>2012-05-07T14:06:04+02:00</time>
      </trkpt>
      <trkpt lat="43.48643" lon="6.8744">
        <ele>138.567261</ele>
        <time>2012-05-07T14:06:10+02:00</time>
      </trkpt>
      <trkpt lat="43.48641" lon="6.8742">
        <ele>140.970459</ele>
        <time>2012-05-07T14:06:17+02:00</time>
      </trkpt>
      <trkpt lat="43.48635" lon="6.87399">
        <ele>143.373657</ele>
        <time>2012-05-07T14:06:24+02:00</time>
      </trkpt>
      <trkpt lat="43.48628" lon="6.87386">
        <ele>144.815796</ele>
        <time>2012-05-07T14:06:30+02:00</time>
      </trkpt>
      <trkpt lat="43.48626" lon="6.87386">
        <ele>144.815796</ele>
        <time>2012-05-07T14:06:31+02:00</time>
      </trkpt>
      <trkpt lat="43.48623" lon="6.87398">
        <ele>145.7771</ele>
        <time>2012-05-07T14:06:36+02:00</time>
      </trkpt>
      <trkpt lat="43.48626" lon="6.87407">
        <ele>146.257812</ele>
        <time>2012-05-07T14:06:39+02:00</time>
      </trkpt>
      <trkpt lat="43.48628" lon="6.8744">
        <ele>148.18042</ele>
        <time>2012-05-07T14:06:49+02:00</time>
      </trkpt>
      <trkpt lat="43.48622" lon="6.87467">
        <ele>149.622314</ele>
        <time>2012-05-07T14:06:58+02:00</time>
      </trkpt>
      <trkpt lat="43.48619" lon="6.87472">
        <ele>150.103027</ele>
        <time>2012-05-07T14:07:00+02:00</time>
      </trkpt>
      <trkpt lat="43.48611" lon="6.87466">
        <ele>151.064209</ele>
        <time>2012-05-07T14:07:05+02:00</time>
      </trkpt>
      <trkpt lat="43.48612" lon="6.87451">
        <ele>150.583618</ele>
        <time>2012-05-07T14:07:09+02:00</time>
      </trkpt>
      <trkpt lat="43.48614" lon="6.87426">
        <ele>151.544922</ele>
        <time>2012-05-07T14:07:16+02:00</time>
      </trkpt>
      <trkpt lat="43.48609" lon="6.87408">
        <ele>152.025757</ele>
        <time>2012-05-07T14:07:22+02:00</time>
      </trkpt>
      <trkpt lat="43.48602" lon="6.87387">
        <ele>153.467651</ele>
        <time>2012-05-07T14:07:29+02:00</time>
      </trkpt>
      <trkpt lat="43.48594" lon="6.87367">
        <ele>156.351562</ele>
        <time>2012-05-07T14:07:36+02:00</time>
      </trkpt>
      <trkpt lat="43.48586" lon="6.87345">
        <ele>158.754761</ele>
        <time>2012-05-07T14:07:44+02:00</time>
      </trkpt>
      <trkpt lat="43.48578" lon="6.87324">
        <ele>160.67749</ele>
        <time>2012-05-07T14:07:52+02:00</time>
      </trkpt>
      <trkpt lat="43.48567" lon="6.87301">
        <ele>164.042114</ele>
        <time>2012-05-07T14:08:01+02:00</time>
      </trkpt>
      <trkpt lat="43.48556" lon="6.87286">
        <ele>166.445312</ele>
        <time>2012-05-07T14:08:08+02:00</time>
      </trkpt>
      <trkpt lat="43.48543" lon="6.87268">
        <ele>168.848755</ele>
        <time>2012-05-07T14:08:17+02:00</time>
      </trkpt>
      <trkpt lat="43.48528" lon="6.87257">
        <ele>169.810059</ele>
        <time>2012-05-07T14:08:25+02:00</time>
      </trkpt>
      <trkpt lat="43.48516" lon="6.87251">
        <ele>171.252075</ele>
        <time>2012-05-07T14:08:31+02:00</time>
      </trkpt>
      <trkpt lat="43.485" lon="6.87242">
        <ele>173.174683</ele>
        <time>2012-05-07T14:08:39+02:00</time>
      </trkpt>
      <trkpt lat="43.48485" lon="6.87229">
        <ele>174.616577</ele>
        <time>2012-05-07T14:08:47+02:00</time>
      </trkpt>
      <trkpt lat="43.48471" lon="6.87214">
        <ele>177.02002</ele>
        <time>2012-05-07T14:08:55+02:00</time>
      </trkpt>
      <trkpt lat="43.48452" lon="6.87199">
        <ele>180.384521</ele>
        <time>2012-05-07T14:09:05+02:00</time>
      </trkpt>
      <trkpt lat="43.48436" lon="6.87185">
        <ele>182.787842</ele>
        <time>2012-05-07T14:09:13+02:00</time>
      </trkpt>
      <trkpt lat="43.4842" lon="6.87168">
        <ele>185.671753</ele>
        <time>2012-05-07T14:09:22+02:00</time>
      </trkpt>
      <trkpt lat="43.4841" lon="6.87156">
        <ele>186.633179</ele>
        <time>2012-05-07T14:09:28+02:00</time>
      </trkpt>
      <trkpt lat="43.48398" lon="6.87144">
        <ele>188.075073</ele>
        <time>2012-05-07T14:09:35+02:00</time>
      </trkpt>
      <trkpt lat="43.48384" lon="6.87127">
        <ele>189.036377</ele>
        <time>2012-05-07T14:09:43+02:00</time>
      </trkpt>
      <trkpt lat="43.48373" lon="6.87117">
        <ele>189.036377</ele>
        <time>2012-05-07T14:09:49+02:00</time>
      </trkpt>
      <trkpt lat="43.48355" lon="6.87099">
        <ele>190.958984</ele>
        <time>2012-05-07T14:09:59+02:00</time>
      </trkpt>
      <trkpt lat="43.48343" lon="6.87079">
        <ele>193.362305</ele>
        <time>2012-05-07T14:10:07+02:00</time>
      </trkpt>
      <trkpt lat="43.48335" lon="6.8706">
        <ele>194.32373</ele>
        <time>2012-05-07T14:10:14+02:00</time>
      </trkpt>
      <trkpt lat="43.48335" lon="6.87042">
        <ele>195.284912</ele>
        <time>2012-05-07T14:10:20+02:00</time>
      </trkpt>
      <trkpt lat="43.48344" lon="6.87021">
        <ele>196.726929</ele>
        <time>2012-05-07T14:10:27+02:00</time>
      </trkpt>
      <trkpt lat="43.48352" lon="6.87001">
        <ele>197.688232</ele>
        <time>2012-05-07T14:10:33+02:00</time>
      </trkpt>
      <trkpt lat="43.48361" lon="6.86987">
        <ele>197.688232</ele>
        <time>2012-05-07T14:10:38+02:00</time>
      </trkpt>
      <trkpt lat="43.48374" lon="6.86965">
        <ele>198.649536</ele>
        <time>2012-05-07T14:10:46+02:00</time>
      </trkpt>
      <trkpt lat="43.48389" lon="6.86953">
        <ele>199.61084</ele>
        <time>2012-05-07T14:10:52+02:00</time>
      </trkpt>
      <trkpt lat="43.48408" lon="6.86949">
        <ele>200.091675</ele>
        <time>2012-05-07T14:10:59+02:00</time>
      </trkpt>
      <trkpt lat="43.4841" lon="6.86947">
        <ele>200.572266</ele>
        <time>2012-05-07T14:11:00+02:00</time>
      </trkpt>
      <trkpt lat="43.48409" lon="6.86932">
        <ele>201.533569</ele>
        <time>2012-05-07T14:11:05+02:00</time>
      </trkpt>
      <trkpt lat="43.48407" lon="6.8693">
        <ele>201.533569</ele>
        <time>2012-05-07T14:11:06+02:00</time>
      </trkpt>
      <trkpt lat="43.48398" lon="6.86919">
        <ele>202.014282</ele>
        <time>2012-05-07T14:11:11+02:00</time>
      </trkpt>
      <trkpt lat="43.484" lon="6.86907">
        <ele>201.533569</ele>
        <time>2012-05-07T14:11:16+02:00</time>
      </trkpt>
      <trkpt lat="43.48402" lon="6.86902">
        <ele>201.533569</ele>
        <time>2012-05-07T14:11:18+02:00</time>
      </trkpt>
      <trkpt lat="43.48406" lon="6.86897">
        <ele>201.533569</ele>
        <time>2012-05-07T14:11:22+02:00</time>
      </trkpt>
      <trkpt lat="43.48422" lon="6.86893">
        <ele>201.533569</ele>
        <time>2012-05-07T14:11:31+02:00</time>
      </trkpt>
      <trkpt lat="43.4844" lon="6.86895">
        <ele>201.052856</ele>
        <time>2012-05-07T14:11:38+02:00</time>
      </trkpt>
      <trkpt lat="43.48461" lon="6.86898">
        <ele>201.052856</ele>
        <time>2012-05-07T14:11:46+02:00</time>
      </trkpt>
      <trkpt lat="43.48484" lon="6.869">
        <ele>201.533569</ele>
        <time>2012-05-07T14:11:54+02:00</time>
      </trkpt>
      <trkpt lat="43.48504" lon="6.86896">
        <ele>202.014282</ele>
        <time>2012-05-07T14:12:01+02:00</time>
      </trkpt>
      <trkpt lat="43.48526" lon="6.86883">
        <ele>203.456177</ele>
        <time>2012-05-07T14:12:09+02:00</time>
      </trkpt>
      <trkpt lat="43.48544" lon="6.8687">
        <ele>202.975464</ele>
        <time>2012-05-07T14:12:15+02:00</time>
      </trkpt>
      <trkpt lat="43.48574" lon="6.86844">
        <ele>202.975464</ele>
        <time>2012-05-07T14:12:24+02:00</time>
      </trkpt>
      <trkpt lat="43.48605" lon="6.8682">
        <ele>202.975464</ele>
        <time>2012-05-07T14:12:33+02:00</time>
      </trkpt>
      <trkpt lat="43.48636" lon="6.86792">
        <ele>203.456177</ele>
        <time>2012-05-07T14:12:42+02:00</time>
      </trkpt>
      <trkpt lat="43.48669" lon="6.86762">
        <ele>204.41748</ele>
        <time>2012-05-07T14:12:51+02:00</time>
      </trkpt>
      <trkpt lat="43.48685" lon="6.86752">
        <ele>204.41748</ele>
        <time>2012-05-07T14:12:55+02:00</time>
      </trkpt>
      <trkpt lat="43.48712" lon="6.86753">
        <ele>204.898071</ele>
        <time>2012-05-07T14:13:01+02:00</time>
      </trkpt>
      <trkpt lat="43.48724" lon="6.86761">
        <ele>205.859497</ele>
        <time>2012-05-07T14:13:04+02:00</time>
      </trkpt>
      <trkpt lat="43.48746" lon="6.86785">
        <ele>207.301392</ele>
        <time>2012-05-07T14:13:11+02:00</time>
      </trkpt>
      <trkpt lat="43.48756" lon="6.86794">
        <ele>208.262817</ele>
        <time>2012-05-07T14:13:14+02:00</time>
      </trkpt>
      <trkpt lat="43.48779" lon="6.8682">
        <ele>209.704834</ele>
        <time>2012-05-07T14:13:22+02:00</time>
      </trkpt>
      <trkpt lat="43.48796" lon="6.86843">
        <ele>211.146729</ele>
        <time>2012-05-07T14:13:29+02:00</time>
      </trkpt>
      <trkpt lat="43.48818" lon="6.86878">
        <ele>213.069336</ele>
        <time>2012-05-07T14:13:39+02:00</time>
      </trkpt>
      <trkpt lat="43.48833" lon="6.8691">
        <ele>214.991943</ele>
        <time>2012-05-07T14:13:47+02:00</time>
      </trkpt>
      <trkpt lat="43.48844" lon="6.86944">
        <ele>216.914673</ele>
        <time>2012-05-07T14:13:55+02:00</time>
      </trkpt>
      <trkpt lat="43.48858" lon="6.86981">
        <ele>218.83728</ele>
        <time>2012-05-07T14:14:04+02:00</time>
      </trkpt>
      <trkpt lat="43.48871" lon="6.87026">
        <ele>220.279175</ele>
        <time>2012-05-07T14:14:14+02:00</time>
      </trkpt>
      <trkpt lat="43.48877" lon="6.8707">
        <ele>222.201782</ele>
        <time>2012-05-07T14:14:23+02:00</time>
      </trkpt>
      <trkpt lat="43.48885" lon="6.87105">
        <ele>223.643799</ele>
        <time>2012-05-07T14:14:31+02:00</time>
      </trkpt>
      <trkpt lat="43.48899" lon="6.87144">
        <ele>225.085938</ele>
        <time>2012-05-07T14:14:40+02:00</time>
      </trkpt>
      <trkpt lat="43.48911" lon="6.87184">
        <ele>226.047119</ele>
        <time>2012-05-07T14:14:49+02:00</time>
      </trkpt>
      <trkpt lat="43.48918" lon="6.87228">
        <ele>227.489136</ele>
        <time>2012-05-07T14:14:58+02:00</time>
      </trkpt>
      <trkpt lat="43.48931" lon="6.87262">
        <ele>228.450439</ele>
        <time>2012-05-07T14:15:06+02:00</time>
      </trkpt>
      <trkpt lat="43.48952" lon="6.87298">
        <ele>229.892334</ele>
        <time>2012-05-07T14:15:16+02:00</time>
      </trkpt>
      <trkpt lat="43.48972" lon="6.87322">
        <ele>230.85376</ele>
        <time>2012-05-07T14:15:24+02:00</time>
      </trkpt>
      <trkpt lat="43.48986" lon="6.87322">
        <ele>230.85376</ele>
        <time>2012-05-07T14:15:28+02:00</time>
      </trkpt>
      <trkpt lat="43.48999" lon="6.87313">
        <ele>231.334351</ele>
        <time>2012-05-07T14:15:32+02:00</time>
      </trkpt>
      <trkpt lat="43.49011" lon="6.87318">
        <ele>231.334351</ele>
        <time>2012-05-07T14:15:36+02:00</time>
      </trkpt>
      <trkpt lat="43.49037" lon="6.87353">
        <ele>230.373047</ele>
        <time>2012-05-07T14:15:46+02:00</time>
      </trkpt>
      <trkpt lat="43.49055" lon="6.87379">
        <ele>230.85376</ele>
        <time>2012-05-07T14:15:53+02:00</time>
      </trkpt>
      <trkpt lat="43.49075" lon="6.87398">
        <ele>229.411743</ele>
        <time>2012-05-07T14:16:00+02:00</time>
      </trkpt>
      <trkpt lat="43.49093" lon="6.87399">
        <ele>229.411743</ele>
        <time>2012-05-07T14:16:05+02:00</time>
      </trkpt>
      <trkpt lat="43.49109" lon="6.87386">
        <ele>228.931152</ele>
        <time>2012-05-07T14:16:10+02:00</time>
      </trkpt>
      <trkpt lat="43.4913" lon="6.87359">
        <ele>228.931152</ele>
        <time>2012-05-07T14:16:17+02:00</time>
      </trkpt>
      <trkpt lat="43.49159" lon="6.87327">
        <ele>230.373047</ele>
        <time>2012-05-07T14:16:26+02:00</time>
      </trkpt>
      <trkpt lat="43.4918" lon="6.87296">
        <ele>231.334351</ele>
        <time>2012-05-07T14:16:33+02:00</time>
      </trkpt>
      <trkpt lat="43.49194" lon="6.87255">
        <ele>232.295776</ele>
        <time>2012-05-07T14:16:41+02:00</time>
      </trkpt>
      <trkpt lat="43.49212" lon="6.87195">
        <ele>233.25708</ele>
        <time>2012-05-07T14:16:52+02:00</time>
      </trkpt>
      <trkpt lat="43.49218" lon="6.87147">
        <ele>234.218384</ele>
        <time>2012-05-07T14:17:00+02:00</time>
      </trkpt>
      <trkpt lat="43.49218" lon="6.87141">
        <ele>234.218384</ele>
        <time>2012-05-07T14:17:01+02:00</time>
      </trkpt>
      <trkpt lat="43.49209" lon="6.87103">
        <ele>234.699097</ele>
        <time>2012-05-07T14:17:08+02:00</time>
      </trkpt>
      <trkpt lat="43.49195" lon="6.87088">
        <ele>235.660278</ele>
        <time>2012-05-07T14:17:12+02:00</time>
      </trkpt>
      <trkpt lat="43.49187" lon="6.87076">
        <ele>235.660278</ele>
        <time>2012-05-07T14:17:15+02:00</time>
      </trkpt>
      <trkpt lat="43.49193" lon="6.87061">
        <ele>236.621704</ele>
        <time>2012-05-07T14:17:18+02:00</time>
      </trkpt>
      <trkpt lat="43.49214" lon="6.87047">
        <ele>237.102295</ele>
        <time>2012-05-07T14:17:24+02:00</time>
      </trkpt>
      <trkpt lat="43.49227" lon="6.87045">
        <ele>237.582886</ele>
        <time>2012-05-07T14:17:27+02:00</time>
      </trkpt>
      <trkpt lat="43.4925" lon="6.87054">
        <ele>238.063599</ele>
        <time>2012-05-07T14:17:33+02:00</time>
      </trkpt>
      <trkpt lat="43.49277" lon="6.8707">
        <ele>239.024902</ele>
        <time>2012-05-07T14:17:40+02:00</time>
      </trkpt>
      <trkpt lat="43.49302" lon="6.87071">
        <ele>239.024902</ele>
        <time>2012-05-07T14:17:46+02:00</time>
      </trkpt>
      <trkpt lat="43.49317" lon="6.87063">
        <ele>239.505493</ele>
        <time>2012-05-07T14:17:50+02:00</time>
      </trkpt>
      <trkpt lat="43.49339" lon="6.87049">
        <ele>240.467041</ele>
        <time>2012-05-07T14:17:57+02:00</time>
      </trkpt>
      <trkpt lat="43.49353" lon="6.87052">
        <ele>241.428223</ele>
        <time>2012-05-07T14:18:02+02:00</time>
      </trkpt>
      <trkpt lat="43.49365" lon="6.87067">
        <ele>243.35083</ele>
        <time>2012-05-07T14:18:08+02:00</time>
      </trkpt>
      <trkpt lat="43.49376" lon="6.87095">
        <ele>246.715454</ele>
        <time>2012-05-07T14:18:17+02:00</time>
      </trkpt>
      <trkpt lat="43.49383" lon="6.87122">
        <ele>248.157593</ele>
        <time>2012-05-07T14:18:25+02:00</time>
      </trkpt>
      <trkpt lat="43.49393" lon="6.87141">
        <ele>249.118774</ele>
        <time>2012-05-07T14:18:32+02:00</time>
      </trkpt>
      <trkpt lat="43.49399" lon="6.87156">
        <ele>249.599487</ele>
        <time>2012-05-07T14:18:39+02:00</time>
      </trkpt>
      <trkpt lat="43.49398" lon="6.87157">
        <ele>251.041382</ele>
        <time>2012-05-07T14:18:46+02:00</time>
      </trkpt>
      <trkpt lat="43.49399" lon="6.87157">
        <ele>251.041382</ele>
        <time>2012-05-07T14:19:01+02:00</time>
      </trkpt>
      <trkpt lat="43.494" lon="6.87156">
        <ele>254.886597</ele>
        <time>2012-05-07T14:19:35+02:00</time>
      </trkpt>
      <trkpt lat="43.494" lon="6.87157">
        <ele>254.406006</ele>
        <time>2012-05-07T14:19:40+02:00</time>
      </trkpt>
      <trkpt lat="43.49401" lon="6.87158">
        <ele>253.925415</ele>
        <time>2012-05-07T14:19:59+02:00</time>
      </trkpt>
      <trkpt lat="43.49405" lon="6.87156">
        <ele>252.963989</ele>
        <time>2012-05-07T14:20:12+02:00</time>
      </trkpt>
      <trkpt lat="43.49407" lon="6.87155">
        <ele>252.483398</ele>
        <time>2012-05-07T14:20:44+02:00</time>
      </trkpt>
      <trkpt lat="43.49407" lon="6.87155">
        <ele>252.002808</ele>
        <time>2012-05-07T14:21:00+02:00</time>
      </trkpt>
      <trkpt lat="43.49404" lon="6.87153">
        <ele>251.522095</ele>
        <time>2012-05-07T14:21:28+02:00</time>
      </trkpt>
      <trkpt lat="43.49403" lon="6.87153">
        <ele>252.002808</ele>
        <time>2012-05-07T14:21:33+02:00</time>
      </trkpt>
      <trkpt lat="43.49405" lon="6.87154">
        <ele>250.0802</ele>
        <time>2012-05-07T14:21:48+02:00</time>
      </trkpt>
      <trkpt lat="43.49405" lon="6.87156">
        <ele>251.522095</ele>
        <time>2012-05-07T14:22:02+02:00</time>
      </trkpt>
      <trkpt lat="43.49404" lon="6.87156">
        <ele>250.560791</ele>
        <time>2012-05-07T14:22:15+02:00</time>
      </trkpt>
      <trkpt lat="43.49402" lon="6.87157">
        <ele>251.041382</ele>
        <time>2012-05-07T14:22:33+02:00</time>
      </trkpt>
      <trkpt lat="43.49405" lon="6.87161">
        <ele>251.522095</ele>
        <time>2012-05-07T14:22:39+02:00</time>
      </trkpt>
      <trkpt lat="43.49416" lon="6.87182">
        <ele>252.483398</ele>
        <time>2012-05-07T14:22:47+02:00</time>
      </trkpt>
      <trkpt lat="43.49426" lon="6.87208">
        <ele>253.925415</ele>
        <time>2012-05-07T14:22:55+02:00</time>
      </trkpt>
      <trkpt lat="43.49435" lon="6.87236">
        <ele>255.36731</ele>
        <time>2012-05-07T14:23:03+02:00</time>
      </trkpt>
      <trkpt lat="43.49449" lon="6.87261">
        <ele>256.809326</ele>
        <time>2012-05-07T14:23:11+02:00</time>
      </trkpt>
      <trkpt lat="43.49463" lon="6.87284">
        <ele>257.290039</ele>
        <time>2012-05-07T14:23:18+02:00</time>
      </trkpt>
      <trkpt lat="43.49476" lon="6.87312">
        <ele>257.770752</ele>
        <time>2012-05-07T14:23:26+02:00</time>
      </trkpt>
      <trkpt lat="43.49486" lon="6.87339">
        <ele>258.731934</ele>
        <time>2012-05-07T14:23:33+02:00</time>
      </trkpt>
      <trkpt lat="43.49492" lon="6.87364">
        <ele>260.17395</ele>
        <time>2012-05-07T14:23:39+02:00</time>
      </trkpt>
      <trkpt lat="43.49493" lon="6.8739">
        <ele>261.615967</ele>
        <time>2012-05-07T14:23:45+02:00</time>
      </trkpt>
      <trkpt lat="43.49485" lon="6.87404">
        <ele>262.096558</ele>
        <time>2012-05-07T14:23:49+02:00</time>
      </trkpt>
      <trkpt lat="43.49463" lon="6.87419">
        <ele>261.135254</ele>
        <time>2012-05-07T14:23:56+02:00</time>
      </trkpt>
      <trkpt lat="43.49438" lon="6.8743">
        <ele>261.135254</ele>
        <time>2012-05-07T14:24:03+02:00</time>
      </trkpt>
      <trkpt lat="43.4941" lon="6.87446">
        <ele>261.135254</ele>
        <time>2012-05-07T14:24:11+02:00</time>
      </trkpt>
      <trkpt lat="43.49395" lon="6.87468">
        <ele>263.538574</ele>
        <time>2012-05-07T14:24:17+02:00</time>
      </trkpt>
      <trkpt lat="43.49389" lon="6.87501">
        <ele>263.538574</ele>
        <time>2012-05-07T14:24:23+02:00</time>
      </trkpt>
      <trkpt lat="43.49381" lon="6.8754">
        <ele>264.019287</ele>
        <time>2012-05-07T14:24:29+02:00</time>
      </trkpt>
      <trkpt lat="43.49374" lon="6.87556">
        <ele>263.057861</ele>
        <time>2012-05-07T14:24:32+02:00</time>
      </trkpt>
      <trkpt lat="43.49362" lon="6.87574">
        <ele>264.019287</ele>
        <time>2012-05-07T14:24:36+02:00</time>
      </trkpt>
      <trkpt lat="43.49337" lon="6.87599">
        <ele>264.019287</ele>
        <time>2012-05-07T14:24:43+02:00</time>
      </trkpt>
      <trkpt lat="43.49326" lon="6.87617">
        <ele>264.980591</ele>
        <time>2012-05-07T14:24:47+02:00</time>
      </trkpt>
      <trkpt lat="43.49323" lon="6.87661">
        <ele>265.941895</ele>
        <time>2012-05-07T14:24:55+02:00</time>
      </trkpt>
      <trkpt lat="43.49327" lon="6.87707">
        <ele>265.941895</ele>
        <time>2012-05-07T14:25:03+02:00</time>
      </trkpt>
      <trkpt lat="43.49328" lon="6.87719">
        <ele>265.941895</ele>
        <time>2012-05-07T14:25:05+02:00</time>
      </trkpt>
      <trkpt lat="43.49328" lon="6.87749">
        <ele>265.461304</ele>
        <time>2012-05-07T14:25:10+02:00</time>
      </trkpt>
      <trkpt lat="43.4932" lon="6.87799">
        <ele>266.422485</ele>
        <time>2012-05-07T14:25:18+02:00</time>
      </trkpt>
      <trkpt lat="43.49318" lon="6.87811">
        <ele>266.422485</ele>
        <time>2012-05-07T14:25:20+02:00</time>
      </trkpt>
      <trkpt lat="43.49316" lon="6.87824">
        <ele>266.903198</ele>
        <time>2012-05-07T14:25:22+02:00</time>
      </trkpt>
      <trkpt lat="43.49323" lon="6.87852">
        <ele>267.864502</ele>
        <time>2012-05-07T14:25:27+02:00</time>
      </trkpt>
      <trkpt lat="43.49333" lon="6.87864">
        <ele>268.825806</ele>
        <time>2012-05-07T14:25:30+02:00</time>
      </trkpt>
      <trkpt lat="43.49345" lon="6.87872">
        <ele>268.825806</ele>
        <time>2012-05-07T14:25:33+02:00</time>
      </trkpt>
      <trkpt lat="43.4937" lon="6.87883">
        <ele>268.345093</ele>
        <time>2012-05-07T14:25:39+02:00</time>
      </trkpt>
      <trkpt lat="43.49387" lon="6.87883">
        <ele>268.345093</ele>
        <time>2012-05-07T14:25:43+02:00</time>
      </trkpt>
      <trkpt lat="43.49403" lon="6.87877">
        <ele>268.345093</ele>
        <time>2012-05-07T14:25:47+02:00</time>
      </trkpt>
      <trkpt lat="43.49442" lon="6.8785">
        <ele>268.825806</ele>
        <time>2012-05-07T14:25:58+02:00</time>
      </trkpt>
      <trkpt lat="43.4948" lon="6.87822">
        <ele>269.306519</ele>
        <time>2012-05-07T14:26:09+02:00</time>
      </trkpt>
      <trkpt lat="43.49513" lon="6.87805">
        <ele>269.787109</ele>
        <time>2012-05-07T14:26:18+02:00</time>
      </trkpt>
      <trkpt lat="43.49539" lon="6.87802">
        <ele>272.671143</ele>
        <time>2012-05-07T14:26:25+02:00</time>
      </trkpt>
      <trkpt lat="43.49566" lon="6.87797">
        <ele>272.671143</ele>
        <time>2012-05-07T14:26:32+02:00</time>
      </trkpt>
      <trkpt lat="43.49596" lon="6.87777">
        <ele>271.709717</ele>
        <time>2012-05-07T14:26:40+02:00</time>
      </trkpt>
      <trkpt lat="43.49622" lon="6.8776">
        <ele>271.229126</ele>
        <time>2012-05-07T14:26:47+02:00</time>
      </trkpt>
      <trkpt lat="43.49629" lon="6.87755">
        <ele>271.229126</ele>
        <time>2012-05-07T14:26:49+02:00</time>
      </trkpt>
      <trkpt lat="43.49644" lon="6.87731">
        <ele>271.229126</ele>
        <time>2012-05-07T14:26:55+02:00</time>
      </trkpt>
      <trkpt lat="43.49656" lon="6.87697">
        <ele>272.19043</ele>
        <time>2012-05-07T14:27:02+02:00</time>
      </trkpt>
      <trkpt lat="43.49667" lon="6.8769">
        <ele>272.19043</ele>
        <time>2012-05-07T14:27:05+02:00</time>
      </trkpt>
      <trkpt lat="43.49703" lon="6.8769">
        <ele>272.671143</ele>
        <time>2012-05-07T14:27:14+02:00</time>
      </trkpt>
      <trkpt lat="43.49736" lon="6.87698">
        <ele>271.709717</ele>
        <time>2012-05-07T14:27:22+02:00</time>
      </trkpt>
      <trkpt lat="43.49772" lon="6.87713">
        <ele>274.59375</ele>
        <time>2012-05-07T14:27:31+02:00</time>
      </trkpt>
      <trkpt lat="43.49802" lon="6.87722">
        <ele>276.035645</ele>
        <time>2012-05-07T14:27:39+02:00</time>
      </trkpt>
      <trkpt lat="43.49828" lon="6.87723">
        <ele>276.035645</ele>
        <time>2012-05-07T14:27:46+02:00</time>
      </trkpt>
      <trkpt lat="43.49856" lon="6.87726">
        <ele>276.516357</ele>
        <time>2012-05-07T14:27:53+02:00</time>
      </trkpt>
      <trkpt lat="43.49865" lon="6.87738">
        <ele>276.99707</ele>
        <time>2012-05-07T14:27:56+02:00</time>
      </trkpt>
      <trkpt lat="43.49877" lon="6.87777">
        <ele>279.400269</ele>
        <time>2012-05-07T14:28:04+02:00</time>
      </trkpt>
      <trkpt lat="43.4989" lon="6.87788">
        <ele>281.322998</ele>
        <time>2012-05-07T14:28:09+02:00</time>
      </trkpt>
      <trkpt lat="43.49905" lon="6.87783">
        <ele>282.765015</ele>
        <time>2012-05-07T14:28:15+02:00</time>
      </trkpt>
      <trkpt lat="43.49931" lon="6.87763">
        <ele>284.687622</ele>
        <time>2012-05-07T14:28:25+02:00</time>
      </trkpt>
      <trkpt lat="43.49953" lon="6.87743">
        <ele>286.129517</ele>
        <time>2012-05-07T14:28:34+02:00</time>
      </trkpt>
      <trkpt lat="43.49973" lon="6.8773">
        <ele>287.571411</ele>
        <time>2012-05-07T14:28:42+02:00</time>
      </trkpt>
      <trkpt lat="43.49991" lon="6.87721">
        <ele>288.052246</ele>
        <time>2012-05-07T14:28:49+02:00</time>
      </trkpt>
      <trkpt lat="43.50013" lon="6.8771">
        <ele>289.974854</ele>
        <time>2012-05-07T14:28:58+02:00</time>
      </trkpt>
      <trkpt lat="43.50028" lon="6.877">
        <ele>290.936157</ele>
        <time>2012-05-07T14:29:04+02:00</time>
      </trkpt>
      <trkpt lat="43.50052" lon="6.87691">
        <ele>291.897461</ele>
        <time>2012-05-07T14:29:13+02:00</time>
      </trkpt>
      <trkpt lat="43.50067" lon="6.87688">
        <ele>293.820068</ele>
        <time>2012-05-07T14:29:19+02:00</time>
      </trkpt>
      <trkpt lat="43.50084" lon="6.87682">
        <ele>296.704102</ele>
        <time>2012-05-07T14:29:26+02:00</time>
      </trkpt>
      <trkpt lat="43.50107" lon="6.87672">
        <ele>297.665405</ele>
        <time>2012-05-07T14:29:35+02:00</time>
      </trkpt>
      <trkpt lat="43.5013" lon="6.87669">
        <ele>299.1073</ele>
        <time>2012-05-07T14:29:44+02:00</time>
      </trkpt>
      <trkpt lat="43.50152" lon="6.8767">
        <ele>301.029907</ele>
        <time>2012-05-07T14:29:52+02:00</time>
      </trkpt>
      <trkpt lat="43.5017" lon="6.87681">
        <ele>301.51062</ele>
        <time>2012-05-07T14:29:59+02:00</time>
      </trkpt>
      <trkpt lat="43.50174" lon="6.87694">
        <ele>302.471924</ele>
        <time>2012-05-07T14:30:02+02:00</time>
      </trkpt>
      <trkpt lat="43.50169" lon="6.87714">
        <ele>303.433228</ele>
        <time>2012-05-07T14:30:06+02:00</time>
      </trkpt>
      <trkpt lat="43.50157" lon="6.87753">
        <ele>305.83667</ele>
        <time>2012-05-07T14:30:14+02:00</time>
      </trkpt>
      <trkpt lat="43.50144" lon="6.87795">
        <ele>307.278564</ele>
        <time>2012-05-07T14:30:22+02:00</time>
      </trkpt>
      <trkpt lat="43.50129" lon="6.87833">
        <ele>307.759277</ele>
        <time>2012-05-07T14:30:30+02:00</time>
      </trkpt>
      <trkpt lat="43.50113" lon="6.87885">
        <ele>307.278564</ele>
        <time>2012-05-07T14:30:40+02:00</time>
      </trkpt>
      <trkpt lat="43.50108" lon="6.87912">
        <ele>307.278564</ele>
        <time>2012-05-07T14:30:45+02:00</time>
      </trkpt>
      <trkpt lat="43.50106" lon="6.87962">
        <ele>308.239868</ele>
        <time>2012-05-07T14:30:54+02:00</time>
      </trkpt>
      <trkpt lat="43.50112" lon="6.88">
        <ele>308.720459</ele>
        <time>2012-05-07T14:31:01+02:00</time>
      </trkpt>
      <trkpt lat="43.50119" lon="6.8804">
        <ele>309.681885</ele>
        <time>2012-05-07T14:31:09+02:00</time>
      </trkpt>
      <trkpt lat="43.50127" lon="6.88073">
        <ele>310.162476</ele>
        <time>2012-05-07T14:31:16+02:00</time>
      </trkpt>
      <trkpt lat="43.50125" lon="6.88102">
        <ele>311.604492</ele>
        <time>2012-05-07T14:31:22+02:00</time>
      </trkpt>
      <trkpt lat="43.50117" lon="6.88137">
        <ele>311.604492</ele>
        <time>2012-05-07T14:31:30+02:00</time>
      </trkpt>
      <trkpt lat="43.50122" lon="6.88154">
        <ele>311.123779</ele>
        <time>2012-05-07T14:31:36+02:00</time>
      </trkpt>
      <trkpt lat="43.50138" lon="6.88168">
        <ele>310.162476</ele>
        <time>2012-05-07T14:31:43+02:00</time>
      </trkpt>
      <trkpt lat="43.50146" lon="6.88191">
        <ele>308.720459</ele>
        <time>2012-05-07T14:31:49+02:00</time>
      </trkpt>
      <trkpt lat="43.50154" lon="6.88214">
        <ele>308.239868</ele>
        <time>2012-05-07T14:31:54+02:00</time>
      </trkpt>
      <trkpt lat="43.5017" lon="6.88233">
        <ele>308.720459</ele>
        <time>2012-05-07T14:31:59+02:00</time>
      </trkpt>
      <trkpt lat="43.50175" lon="6.88236">
        <ele>308.720459</ele>
        <time>2012-05-07T14:32:00+02:00</time>
      </trkpt>
      <trkpt lat="43.50193" lon="6.88242">
        <ele>308.720459</ele>
        <time>2012-05-07T14:32:04+02:00</time>
      </trkpt>
      <trkpt lat="43.50214" lon="6.88259">
        <ele>309.201172</ele>
        <time>2012-05-07T14:32:09+02:00</time>
      </trkpt>
      <trkpt lat="43.50227" lon="6.88288">
        <ele>309.201172</ele>
        <time>2012-05-07T14:32:14+02:00</time>
      </trkpt>
      <trkpt lat="43.50238" lon="6.88333">
        <ele>308.720459</ele>
        <time>2012-05-07T14:32:21+02:00</time>
      </trkpt>
      <trkpt lat="43.50248" lon="6.88363">
        <ele>307.759277</ele>
        <time>2012-05-07T14:32:26+02:00</time>
      </trkpt>
      <trkpt lat="43.50254" lon="6.88392">
        <ele>307.278564</ele>
        <time>2012-05-07T14:32:31+02:00</time>
      </trkpt>
      <trkpt lat="43.50261" lon="6.88402">
        <ele>306.797852</ele>
        <time>2012-05-07T14:32:35+02:00</time>
      </trkpt>
      <trkpt lat="43.50262" lon="6.88409">
        <ele>306.317261</ele>
        <time>2012-05-07T14:32:39+02:00</time>
      </trkpt>
      <trkpt lat="43.50258" lon="6.88406">
        <ele>305.83667</ele>
        <time>2012-05-07T14:32:43+02:00</time>
      </trkpt>
      <trkpt lat="43.50259" lon="6.88403">
        <ele>305.83667</ele>
        <time>2012-05-07T14:32:45+02:00</time>
      </trkpt>
      <trkpt lat="43.50261" lon="6.88402">
        <ele>305.355957</ele>
        <time>2012-05-07T14:32:47+02:00</time>
      </trkpt>
      <trkpt lat="43.50258" lon="6.88399">
        <ele>305.355957</ele>
        <time>2012-05-07T14:32:53+02:00</time>
      </trkpt>
      <trkpt lat="43.50255" lon="6.88398">
        <ele>305.355957</ele>
        <time>2012-05-07T14:32:55+02:00</time>
      </trkpt>
      <trkpt lat="43.50253" lon="6.88396">
        <ele>305.355957</ele>
        <time>2012-05-07T14:32:57+02:00</time>
      </trkpt>
      <trkpt lat="43.50249" lon="6.88393">
        <ele>305.355957</ele>
        <time>2012-05-07T14:33:02+02:00</time>
      </trkpt>
      <trkpt lat="43.50244" lon="6.88392">
        <ele>305.355957</ele>
        <time>2012-05-07T14:33:07+02:00</time>
      </trkpt>
      <trkpt lat="43.50246" lon="6.88392">
        <ele>306.797852</ele>
        <time>2012-05-07T14:33:12+02:00</time>
      </trkpt>
      <trkpt lat="43.50246" lon="6.88392">
        <ele>309.201172</ele>
        <time>2012-05-07T14:33:19+02:00</time>
      </trkpt>
      <trkpt lat="43.50246" lon="6.88391">
        <ele>310.162476</ele>
        <time>2012-05-07T14:33:31+02:00</time>
      </trkpt>
      <trkpt lat="43.50248" lon="6.88393">
        <ele>309.201172</ele>
        <time>2012-05-07T14:33:46+02:00</time>
      </trkpt>
      <trkpt lat="43.50244" lon="6.88404">
        <ele>309.201172</ele>
        <time>2012-05-07T14:33:51+02:00</time>
      </trkpt>
      <trkpt lat="43.50245" lon="6.88413">
        <ele>309.201172</ele>
        <time>2012-05-07T14:33:55+02:00</time>
      </trkpt>
      <trkpt lat="43.50245" lon="6.88413">
        <ele>308.720459</ele>
        <time>2012-05-07T14:33:59+02:00</time>
      </trkpt>
      <trkpt lat="43.50245" lon="6.88412">
        <ele>308.239868</ele>
        <time>2012-05-07T14:34:08+02:00</time>
      </trkpt>
      <trkpt lat="43.50246" lon="6.88416">
        <ele>309.201172</ele>
        <time>2012-05-07T14:34:15+02:00</time>
      </trkpt>
      <trkpt lat="43.50252" lon="6.88432">
        <ele>309.201172</ele>
        <time>2012-05-07T14:34:22+02:00</time>
      </trkpt>
      <trkpt lat="43.50256" lon="6.88449">
        <ele>310.162476</ele>
        <time>2012-05-07T14:34:28+02:00</time>
      </trkpt>
      <trkpt lat="43.50255" lon="6.88471">
        <ele>312.085205</ele>
        <time>2012-05-07T14:34:36+02:00</time>
      </trkpt>
      <trkpt lat="43.50258" lon="6.88483">
        <ele>313.046509</ele>
        <time>2012-05-07T14:34:41+02:00</time>
      </trkpt>
      <trkpt lat="43.50258" lon="6.88503">
        <ele>314.488403</ele>
        <time>2012-05-07T14:34:49+02:00</time>
      </trkpt>
      <trkpt lat="43.50253" lon="6.88524">
        <ele>315.449829</ele>
        <time>2012-05-07T14:34:57+02:00</time>
      </trkpt>
      <trkpt lat="43.50245" lon="6.8854">
        <ele>316.891724</ele>
        <time>2012-05-07T14:35:03+02:00</time>
      </trkpt>
      <trkpt lat="43.50234" lon="6.88559">
        <ele>317.372437</ele>
        <time>2012-05-07T14:35:10+02:00</time>
      </trkpt>
      <trkpt lat="43.50222" lon="6.88579">
        <ele>316.411011</ele>
        <time>2012-05-07T14:35:17+02:00</time>
      </trkpt>
      <trkpt lat="43.50201" lon="6.88603">
        <ele>315.93042</ele>
        <time>2012-05-07T14:35:25+02:00</time>
      </trkpt>
      <trkpt lat="43.50181" lon="6.88623">
        <ele>316.891724</ele>
        <time>2012-05-07T14:35:33+02:00</time>
      </trkpt>
      <trkpt lat="43.50176" lon="6.88637">
        <ele>317.372437</ele>
        <time>2012-05-07T14:35:38+02:00</time>
      </trkpt>
      <trkpt lat="43.50172" lon="6.8866">
        <ele>317.853027</ele>
        <time>2012-05-07T14:35:46+02:00</time>
      </trkpt>
      <trkpt lat="43.5017" lon="6.88679">
        <ele>317.853027</ele>
        <time>2012-05-07T14:35:53+02:00</time>
      </trkpt>
      <trkpt lat="43.50171" lon="6.88704">
        <ele>317.853027</ele>
        <time>2012-05-07T14:36:02+02:00</time>
      </trkpt>
      <trkpt lat="43.50173" lon="6.88726">
        <ele>319.775635</ele>
        <time>2012-05-07T14:36:09+02:00</time>
      </trkpt>
      <trkpt lat="43.50175" lon="6.88745">
        <ele>320.737061</ele>
        <time>2012-05-07T14:36:15+02:00</time>
      </trkpt>
      <trkpt lat="43.50179" lon="6.88763">
        <ele>321.698364</ele>
        <time>2012-05-07T14:36:21+02:00</time>
      </trkpt>
      <trkpt lat="43.50183" lon="6.88781">
        <ele>323.140381</ele>
        <time>2012-05-07T14:36:27+02:00</time>
      </trkpt>
      <trkpt lat="43.50188" lon="6.88802">
        <ele>324.582275</ele>
        <time>2012-05-07T14:36:34+02:00</time>
      </trkpt>
      <trkpt lat="43.50191" lon="6.88822">
        <ele>327.466187</ele>
        <time>2012-05-07T14:36:41+02:00</time>
      </trkpt>
      <trkpt lat="43.50192" lon="6.88845">
        <ele>329.869507</ele>
        <time>2012-05-07T14:36:49+02:00</time>
      </trkpt>
      <trkpt lat="43.50189" lon="6.88861">
        <ele>332.272827</ele>
        <time>2012-05-07T14:36:55+02:00</time>
      </trkpt>
      <trkpt lat="43.50183" lon="6.88881">
        <ele>334.195435</ele>
        <time>2012-05-07T14:37:02+02:00</time>
      </trkpt>
      <trkpt lat="43.50175" lon="6.88904">
        <ele>337.079468</ele>
        <time>2012-05-07T14:37:10+02:00</time>
      </trkpt>
      <trkpt lat="43.50169" lon="6.8893">
        <ele>338.521484</ele>
        <time>2012-05-07T14:37:18+02:00</time>
      </trkpt>
      <trkpt lat="43.50165" lon="6.88967">
        <ele>342.366699</ele>
        <time>2012-05-07T14:37:28+02:00</time>
      </trkpt>
      <trkpt lat="43.50157" lon="6.88996">
        <ele>345.25061</ele>
        <time>2012-05-07T14:37:37+02:00</time>
      </trkpt>
      <trkpt lat="43.50147" lon="6.89023">
        <ele>348.615234</ele>
        <time>2012-05-07T14:37:46+02:00</time>
      </trkpt>
      <trkpt lat="43.50141" lon="6.89046">
        <ele>351.018433</ele>
        <time>2012-05-07T14:37:54+02:00</time>
      </trkpt>
      <trkpt lat="43.50137" lon="6.89059">
        <ele>351.979858</ele>
        <time>2012-05-07T14:37:59+02:00</time>
      </trkpt>
      <trkpt lat="43.5014" lon="6.89079">
        <ele>354.383179</ele>
        <time>2012-05-07T14:38:07+02:00</time>
      </trkpt>
      <trkpt lat="43.50143" lon="6.89099">
        <ele>355.344482</ele>
        <time>2012-05-07T14:38:15+02:00</time>
      </trkpt>
      <trkpt lat="43.50145" lon="6.8912">
        <ele>356.786377</ele>
        <time>2012-05-07T14:38:23+02:00</time>
      </trkpt>
      <trkpt lat="43.50148" lon="6.89137">
        <ele>358.708984</ele>
        <time>2012-05-07T14:38:30+02:00</time>
      </trkpt>
      <trkpt lat="43.50156" lon="6.89161">
        <ele>360.151123</ele>
        <time>2012-05-07T14:38:38+02:00</time>
      </trkpt>
      <trkpt lat="43.50168" lon="6.89188">
        <ele>361.59314</ele>
        <time>2012-05-07T14:38:48+02:00</time>
      </trkpt>
      <trkpt lat="43.50183" lon="6.89209">
        <ele>363.515747</ele>
        <time>2012-05-07T14:38:57+02:00</time>
      </trkpt>
      <trkpt lat="43.50195" lon="6.89222">
        <ele>364.957642</ele>
        <time>2012-05-07T14:39:04+02:00</time>
      </trkpt>
      <trkpt lat="43.50214" lon="6.89232">
        <ele>367.360962</ele>
        <time>2012-05-07T14:39:13+02:00</time>
      </trkpt>
      <trkpt lat="43.50226" lon="6.89228">
        <ele>368.322266</ele>
        <time>2012-05-07T14:39:19+02:00</time>
      </trkpt>
      <trkpt lat="43.50228" lon="6.89228">
        <ele>368.802979</ele>
        <time>2012-05-07T14:39:20+02:00</time>
      </trkpt>
      <trkpt lat="43.50234" lon="6.89238">
        <ele>370.244873</ele>
        <time>2012-05-07T14:39:25+02:00</time>
      </trkpt>
      <trkpt lat="43.50227" lon="6.89246">
        <ele>371.206299</ele>
        <time>2012-05-07T14:39:29+02:00</time>
      </trkpt>
      <trkpt lat="43.50204" lon="6.89259">
        <ele>372.16748</ele>
        <time>2012-05-07T14:39:38+02:00</time>
      </trkpt>
      <trkpt lat="43.50192" lon="6.89265">
        <ele>372.648193</ele>
        <time>2012-05-07T14:39:44+02:00</time>
      </trkpt>
      <trkpt lat="43.50189" lon="6.89267">
        <ele>372.648193</ele>
        <time>2012-05-07T14:39:46+02:00</time>
      </trkpt>
      <trkpt lat="43.50188" lon="6.89268">
        <ele>372.648193</ele>
        <time>2012-05-07T14:39:52+02:00</time>
      </trkpt>
      <trkpt lat="43.5019" lon="6.89267">
        <ele>372.16748</ele>
        <time>2012-05-07T14:39:58+02:00</time>
      </trkpt>
      <trkpt lat="43.5019" lon="6.89267">
        <ele>372.16748</ele>
        <time>2012-05-07T14:40:05+02:00</time>
      </trkpt>
      <trkpt lat="43.5019" lon="6.89267">
        <ele>375.051514</ele>
        <time>2012-05-07T14:40:16+02:00</time>
      </trkpt>
      <trkpt lat="43.50191" lon="6.8927">
        <ele>375.051514</ele>
        <time>2012-05-07T14:40:21+02:00</time>
      </trkpt>
      <trkpt lat="43.50191" lon="6.89268">
        <ele>375.532104</ele>
        <time>2012-05-07T14:40:26+02:00</time>
      </trkpt>
      <trkpt lat="43.5019" lon="6.89267">
        <ele>375.532104</ele>
        <time>2012-05-07T14:40:32+02:00</time>
      </trkpt>
      <trkpt lat="43.50189" lon="6.89266">
        <ele>376.49353</ele>
        <time>2012-05-07T14:40:46+02:00</time>
      </trkpt>
      <trkpt lat="43.50188" lon="6.89266">
        <ele>376.49353</ele>
        <time>2012-05-07T14:40:55+02:00</time>
      </trkpt>
      <trkpt lat="43.50189" lon="6.89266">
        <ele>376.49353</ele>
        <time>2012-05-07T14:41:13+02:00</time>
      </trkpt>
      <trkpt lat="43.50189" lon="6.89266">
        <ele>376.012817</ele>
        <time>2012-05-07T14:41:21+02:00</time>
      </trkpt>
      <trkpt lat="43.50191" lon="6.89265">
        <ele>375.532104</ele>
        <time>2012-05-07T14:41:47+02:00</time>
      </trkpt>
      <trkpt lat="43.50192" lon="6.89266">
        <ele>376.49353</ele>
        <time>2012-05-07T14:41:53+02:00</time>
      </trkpt>
      <trkpt lat="43.5019" lon="6.89265">
        <ele>376.49353</ele>
        <time>2012-05-07T14:41:59+02:00</time>
      </trkpt>
      <trkpt lat="43.5019" lon="6.89266">
        <ele>376.012817</ele>
        <time>2012-05-07T14:42:10+02:00</time>
      </trkpt>
      <trkpt lat="43.5019" lon="6.89266">
        <ele>376.974243</ele>
        <time>2012-05-07T14:42:18+02:00</time>
      </trkpt>
      <trkpt lat="43.50191" lon="6.89266">
        <ele>377.454834</ele>
        <time>2012-05-07T14:42:29+02:00</time>
      </trkpt>
      <trkpt lat="43.50191" lon="6.89266">
        <ele>378.416138</ele>
        <time>2012-05-07T14:42:40+02:00</time>
      </trkpt>
      <trkpt lat="43.50191" lon="6.89266">
        <ele>377.935425</ele>
        <time>2012-05-07T14:42:46+02:00</time>
      </trkpt>
      <trkpt lat="43.5019" lon="6.89266">
        <ele>378.416138</ele>
        <time>2012-05-07T14:42:57+02:00</time>
      </trkpt>
      <trkpt lat="43.5019" lon="6.89266">
        <ele>378.416138</ele>
        <time>2012-05-07T14:43:06+02:00</time>
      </trkpt>
      <trkpt lat="43.5019" lon="6.89265">
        <ele>378.416138</ele>
        <time>2012-05-07T14:43:19+02:00</time>
      </trkpt>
      <trkpt lat="43.5019" lon="6.89265">
        <ele>378.896851</ele>
        <time>2012-05-07T14:43:25+02:00</time>
      </trkpt>
      <trkpt lat="43.50189" lon="6.89265">
        <ele>378.896851</ele>
        <time>2012-05-07T14:43:37+02:00</time>
      </trkpt>
      <trkpt lat="43.50189" lon="6.89266">
        <ele>379.377441</ele>
        <time>2012-05-07T14:43:58+02:00</time>
      </trkpt>
      <trkpt lat="43.50189" lon="6.89264">
        <ele>378.416138</ele>
        <time>2012-05-07T14:44:03+02:00</time>
      </trkpt>
      <trkpt lat="43.50189" lon="6.89266">
        <ele>376.012817</ele>
        <time>2012-05-07T14:44:17+02:00</time>
      </trkpt>
      <trkpt lat="43.50188" lon="6.89265">
        <ele>375.532104</ele>
        <time>2012-05-07T14:44:23+02:00</time>
      </trkpt>
      <trkpt lat="43.50188" lon="6.89266">
        <ele>375.532104</ele>
        <time>2012-05-07T14:44:31+02:00</time>
      </trkpt>
      <trkpt lat="43.50188" lon="6.89267">
        <ele>373.609497</ele>
        <time>2012-05-07T14:44:53+02:00</time>
      </trkpt>
      <trkpt lat="43.50188" lon="6.89268">
        <ele>373.609497</ele>
        <time>2012-05-07T14:45:15+02:00</time>
      </trkpt>
      <trkpt lat="43.50188" lon="6.89268">
        <ele>373.609497</ele>
        <time>2012-05-07T14:45:24+02:00</time>
      </trkpt>
      <trkpt lat="43.50188" lon="6.89268">
        <ele>372.648193</ele>
        <time>2012-05-07T14:45:36+02:00</time>
      </trkpt>
      <trkpt lat="43.50189" lon="6.89269">
        <ele>372.16748</ele>
        <time>2012-05-07T14:45:51+02:00</time>
      </trkpt>
      <trkpt lat="43.50189" lon="6.89269">
        <ele>372.16748</ele>
        <time>2012-05-07T14:46:00+02:00</time>
      </trkpt>
      <trkpt lat="43.5019" lon="6.89269">
        <ele>374.090088</ele>
        <time>2012-05-07T14:46:33+02:00</time>
      </trkpt>
      <trkpt lat="43.50189" lon="6.89268">
        <ele>374.090088</ele>
        <time>2012-05-07T14:46:36+02:00</time>
      </trkpt>
      <trkpt lat="43.50185" lon="6.89267">
        <ele>375.051514</ele>
        <time>2012-05-07T14:46:43+02:00</time>
      </trkpt>
      <trkpt lat="43.50166" lon="6.8928">
        <ele>375.532104</ele>
        <time>2012-05-07T14:46:52+02:00</time>
      </trkpt>
      <trkpt lat="43.50149" lon="6.89301">
        <ele>374.570801</ele>
        <time>2012-05-07T14:46:58+02:00</time>
      </trkpt>
      <trkpt lat="43.5013" lon="6.89331">
        <ele>372.648193</ele>
        <time>2012-05-07T14:47:03+02:00</time>
      </trkpt>
      <trkpt lat="43.50113" lon="6.89361">
        <ele>370.244873</ele>
        <time>2012-05-07T14:47:07+02:00</time>
      </trkpt>
      <trkpt lat="43.5008" lon="6.89383">
        <ele>365.918945</ele>
        <time>2012-05-07T14:47:12+02:00</time>
      </trkpt>
      <trkpt lat="43.50038" lon="6.89391">
        <ele>360.151123</ele>
        <time>2012-05-07T14:47:17+02:00</time>
      </trkpt>
      <trkpt lat="43.50029" lon="6.89397">
        <ele>358.708984</ele>
        <time>2012-05-07T14:47:20+02:00</time>
      </trkpt>
      <trkpt lat="43.50034" lon="6.89402">
        <ele>358.228394</ele>
        <time>2012-05-07T14:47:23+02:00</time>
      </trkpt>
      <trkpt lat="43.50039" lon="6.894">
        <ele>357.747803</ele>
        <time>2012-05-07T14:47:27+02:00</time>
      </trkpt>
      <trkpt lat="43.50042" lon="6.89401">
        <ele>357.747803</ele>
        <time>2012-05-07T14:47:29+02:00</time>
      </trkpt>
      <trkpt lat="43.50055" lon="6.89399">
        <ele>358.228394</ele>
        <time>2012-05-07T14:47:35+02:00</time>
      </trkpt>
      <trkpt lat="43.50077" lon="6.894">
        <ele>359.189697</ele>
        <time>2012-05-07T14:47:42+02:00</time>
      </trkpt>
      <trkpt lat="43.50096" lon="6.89397">
        <ele>360.631714</ele>
        <time>2012-05-07T14:47:49+02:00</time>
      </trkpt>
      <trkpt lat="43.50111" lon="6.89387">
        <ele>361.112427</ele>
        <time>2012-05-07T14:47:55+02:00</time>
      </trkpt>
      <trkpt lat="43.50125" lon="6.8937">
        <ele>361.112427</ele>
        <time>2012-05-07T14:48:02+02:00</time>
      </trkpt>
      <trkpt lat="43.50141" lon="6.89351">
        <ele>360.631714</ele>
        <time>2012-05-07T14:48:09+02:00</time>
      </trkpt>
      <trkpt lat="43.50154" lon="6.89338">
        <ele>361.112427</ele>
        <time>2012-05-07T14:48:14+02:00</time>
      </trkpt>
      <trkpt lat="43.5017" lon="6.89328">
        <ele>360.631714</ele>
        <time>2012-05-07T14:48:20+02:00</time>
      </trkpt>
      <trkpt lat="43.50187" lon="6.89326">
        <ele>359.67041</ele>
        <time>2012-05-07T14:48:25+02:00</time>
      </trkpt>
      <trkpt lat="43.5021" lon="6.8933">
        <ele>358.228394</ele>
        <time>2012-05-07T14:48:30+02:00</time>
      </trkpt>
      <trkpt lat="43.50221" lon="6.89337">
        <ele>356.786377</ele>
        <time>2012-05-07T14:48:32+02:00</time>
      </trkpt>
      <trkpt lat="43.50246" lon="6.89367">
        <ele>354.383179</ele>
        <time>2012-05-07T14:48:37+02:00</time>
      </trkpt>
      <trkpt lat="43.50271" lon="6.89392">
        <ele>351.499146</ele>
        <time>2012-05-07T14:48:41+02:00</time>
      </trkpt>
      <trkpt lat="43.50302" lon="6.8943">
        <ele>347.653931</ele>
        <time>2012-05-07T14:48:46+02:00</time>
      </trkpt>
      <trkpt lat="43.50307" lon="6.8944">
        <ele>346.692627</ele>
        <time>2012-05-07T14:48:47+02:00</time>
      </trkpt>
      <trkpt lat="43.50318" lon="6.89469">
        <ele>343.327881</ele>
        <time>2012-05-07T14:48:50+02:00</time>
      </trkpt>
      <trkpt lat="43.50337" lon="6.89506">
        <ele>339.963379</ele>
        <time>2012-05-07T14:48:54+02:00</time>
      </trkpt>
      <trkpt lat="43.50376" lon="6.89552">
        <ele>335.156738</ele>
        <time>2012-05-07T14:49:00+02:00</time>
      </trkpt>
      <trkpt lat="43.50395" lon="6.89572">
        <ele>335.156738</ele>
        <time>2012-05-07T14:49:03+02:00</time>
      </trkpt>
      <trkpt lat="43.50412" lon="6.89588">
        <ele>334.195435</ele>
        <time>2012-05-07T14:49:06+02:00</time>
      </trkpt>
      <trkpt lat="43.50426" lon="6.89613">
        <ele>333.714722</ele>
        <time>2012-05-07T14:49:10+02:00</time>
      </trkpt>
      <trkpt lat="43.50449" lon="6.89648">
        <ele>331.792114</ele>
        <time>2012-05-07T14:49:16+02:00</time>
      </trkpt>
      <trkpt lat="43.50467" lon="6.89665">
        <ele>329.869507</ele>
        <time>2012-05-07T14:49:19+02:00</time>
      </trkpt>
      <trkpt lat="43.50484" lon="6.89686">
        <ele>326.02417</ele>
        <time>2012-05-07T14:49:23+02:00</time>
      </trkpt>
      <trkpt lat="43.50486" lon="6.89693">
        <ele>324.582275</ele>
        <time>2012-05-07T14:49:28+02:00</time>
      </trkpt>
      <trkpt lat="43.50483" lon="6.89695">
        <ele>328.427612</ele>
        <time>2012-05-07T14:49:39+02:00</time>
      </trkpt>
      <trkpt lat="43.50483" lon="6.89697">
        <ele>329.869507</ele>
        <time>2012-05-07T14:50:00+02:00</time>
      </trkpt>
      <trkpt lat="43.50485" lon="6.89702">
        <ele>329.869507</ele>
        <time>2012-05-07T14:50:04+02:00</time>
      </trkpt>
      <trkpt lat="43.50488" lon="6.89718">
        <ele>327.946777</ele>
        <time>2012-05-07T14:50:09+02:00</time>
      </trkpt>
      <trkpt lat="43.50491" lon="6.89721">
        <ele>327.466187</ele>
        <time>2012-05-07T14:50:11+02:00</time>
      </trkpt>
      <trkpt lat="43.50492" lon="6.89718">
        <ele>326.504883</ele>
        <time>2012-05-07T14:50:17+02:00</time>
      </trkpt>
      <trkpt lat="43.50483" lon="6.89718">
        <ele>326.02417</ele>
        <time>2012-05-07T14:50:21+02:00</time>
      </trkpt>
      <trkpt lat="43.50478" lon="6.89716">
        <ele>325.062988</ele>
        <time>2012-05-07T14:50:23+02:00</time>
      </trkpt>
      <trkpt lat="43.50472" lon="6.89723">
        <ele>320.256348</ele>
        <time>2012-05-07T14:50:29+02:00</time>
      </trkpt>
      <trkpt lat="43.50469" lon="6.89748">
        <ele>314.007812</ele>
        <time>2012-05-07T14:50:35+02:00</time>
      </trkpt>
      <trkpt lat="43.50468" lon="6.89767">
        <ele>310.162476</ele>
        <time>2012-05-07T14:50:39+02:00</time>
      </trkpt>
      <trkpt lat="43.50467" lon="6.89785">
        <ele>304.394653</ele>
        <time>2012-05-07T14:50:44+02:00</time>
      </trkpt>
      <trkpt lat="43.50469" lon="6.89799">
        <ele>300.549316</ele>
        <time>2012-05-07T14:50:49+02:00</time>
      </trkpt>
      <trkpt lat="43.50469" lon="6.89808">
        <ele>299.1073</ele>
        <time>2012-05-07T14:50:52+02:00</time>
      </trkpt>
      <trkpt lat="43.50466" lon="6.89827">
        <ele>296.704102</ele>
        <time>2012-05-07T14:50:56+02:00</time>
      </trkpt>
      <trkpt lat="43.50466" lon="6.89841">
        <ele>294.300781</ele>
        <time>2012-05-07T14:51:01+02:00</time>
      </trkpt>
      <trkpt lat="43.50465" lon="6.89856">
        <ele>290.936157</ele>
        <time>2012-05-07T14:51:05+02:00</time>
      </trkpt>
      <trkpt lat="43.50466" lon="6.89864">
        <ele>289.494141</ele>
        <time>2012-05-07T14:51:07+02:00</time>
      </trkpt>
      <trkpt lat="43.50463" lon="6.89889">
        <ele>287.571411</ele>
        <time>2012-05-07T14:51:12+02:00</time>
      </trkpt>
      <trkpt lat="43.50462" lon="6.89894">
        <ele>288.052246</ele>
        <time>2012-05-07T14:51:26+02:00</time>
      </trkpt>
      <trkpt lat="43.50463" lon="6.89892">
        <ele>286.129517</ele>
        <time>2012-05-07T14:51:45+02:00</time>
      </trkpt>
      <trkpt lat="43.50463" lon="6.89891">
        <ele>288.052246</ele>
        <time>2012-05-07T14:51:54+02:00</time>
      </trkpt>
      <trkpt lat="43.50466" lon="6.89892">
        <ele>290.455566</ele>
        <time>2012-05-07T14:52:10+02:00</time>
      </trkpt>
      <trkpt lat="43.50466" lon="6.89892">
        <ele>292.858765</ele>
        <time>2012-05-07T14:52:34+02:00</time>
      </trkpt>
      <trkpt lat="43.50466" lon="6.89893">
        <ele>293.339355</ele>
        <time>2012-05-07T14:52:46+02:00</time>
      </trkpt>
      <trkpt lat="43.50465" lon="6.89894">
        <ele>294.781372</ele>
        <time>2012-05-07T14:53:41+02:00</time>
      </trkpt>
      <trkpt lat="43.50466" lon="6.89894">
        <ele>296.223511</ele>
        <time>2012-05-07T14:53:50+02:00</time>
      </trkpt>
      <trkpt lat="43.50466" lon="6.89893">
        <ele>297.665405</ele>
        <time>2012-05-07T14:54:08+02:00</time>
      </trkpt>
      <trkpt lat="43.50467" lon="6.89894">
        <ele>297.665405</ele>
        <time>2012-05-07T14:54:18+02:00</time>
      </trkpt>
      <trkpt lat="43.50468" lon="6.89896">
        <ele>297.665405</ele>
        <time>2012-05-07T14:54:21+02:00</time>
      </trkpt>
      <trkpt lat="43.50468" lon="6.89901">
        <ele>296.223511</ele>
        <time>2012-05-07T14:54:23+02:00</time>
      </trkpt>
      <trkpt lat="43.5046" lon="6.89914">
        <ele>293.820068</ele>
        <time>2012-05-07T14:54:28+02:00</time>
      </trkpt>
      <trkpt lat="43.50457" lon="6.89925">
        <ele>292.378174</ele>
        <time>2012-05-07T14:54:30+02:00</time>
      </trkpt>
      <trkpt lat="43.50459" lon="6.89959">
        <ele>285.168213</ele>
        <time>2012-05-07T14:54:37+02:00</time>
      </trkpt>
      <trkpt lat="43.50463" lon="6.89967">
        <ele>283.726196</ele>
        <time>2012-05-07T14:54:39+02:00</time>
      </trkpt>
      <trkpt lat="43.50472" lon="6.89983">
        <ele>278.919678</ele>
        <time>2012-05-07T14:54:45+02:00</time>
      </trkpt>
      <trkpt lat="43.50475" lon="6.89988">
        <ele>277.477661</ele>
        <time>2012-05-07T14:54:47+02:00</time>
      </trkpt>
      <trkpt lat="43.50472" lon="6.89988">
        <ele>276.516357</ele>
        <time>2012-05-07T14:54:57+02:00</time>
      </trkpt>
      <trkpt lat="43.50469" lon="6.89991">
        <ele>277.958252</ele>
        <time>2012-05-07T14:55:10+02:00</time>
      </trkpt>
      <trkpt lat="43.50468" lon="6.89995">
        <ele>276.035645</ele>
        <time>2012-05-07T14:55:13+02:00</time>
      </trkpt>
      <trkpt lat="43.50468" lon="6.90001">
        <ele>273.632446</ele>
        <time>2012-05-07T14:55:18+02:00</time>
      </trkpt>
      <trkpt lat="43.5047" lon="6.90012">
        <ele>271.709717</ele>
        <time>2012-05-07T14:55:35+02:00</time>
      </trkpt>
      <trkpt lat="43.50478" lon="6.90031">
        <ele>268.345093</ele>
        <time>2012-05-07T14:55:39+02:00</time>
      </trkpt>
      <trkpt lat="43.50484" lon="6.90051">
        <ele>265.941895</ele>
        <time>2012-05-07T14:55:44+02:00</time>
      </trkpt>
      <trkpt lat="43.50492" lon="6.90066">
        <ele>261.615967</ele>
        <time>2012-05-07T14:55:49+02:00</time>
      </trkpt>
      <trkpt lat="43.50494" lon="6.90071">
        <ele>260.17395</ele>
        <time>2012-05-07T14:55:51+02:00</time>
      </trkpt>
      <trkpt lat="43.50497" lon="6.90079">
        <ele>256.328735</ele>
        <time>2012-05-07T14:55:56+02:00</time>
      </trkpt>
      <trkpt lat="43.50501" lon="6.90086">
        <ele>253.925415</ele>
        <time>2012-05-07T14:55:59+02:00</time>
      </trkpt>
      <trkpt lat="43.50503" lon="6.90087">
        <ele>253.444702</ele>
        <time>2012-05-07T14:56:04+02:00</time>
      </trkpt>
      <trkpt lat="43.50505" lon="6.9009">
        <ele>255.848022</ele>
        <time>2012-05-07T14:56:21+02:00</time>
      </trkpt>
      <trkpt lat="43.50508" lon="6.9009">
        <ele>254.886597</ele>
        <time>2012-05-07T14:56:26+02:00</time>
      </trkpt>
      <trkpt lat="43.50508" lon="6.90092">
        <ele>254.406006</ele>
        <time>2012-05-07T14:56:29+02:00</time>
      </trkpt>
      <trkpt lat="43.50511" lon="6.90107">
        <ele>250.560791</ele>
        <time>2012-05-07T14:56:35+02:00</time>
      </trkpt>
      <trkpt lat="43.50517" lon="6.90119">
        <ele>246.234863</ele>
        <time>2012-05-07T14:56:40+02:00</time>
      </trkpt>
      <trkpt lat="43.50523" lon="6.90131">
        <ele>241.908936</ele>
        <time>2012-05-07T14:56:45+02:00</time>
      </trkpt>
      <trkpt lat="43.50526" lon="6.90151">
        <ele>237.102295</ele>
        <time>2012-05-07T14:56:49+02:00</time>
      </trkpt>
      <trkpt lat="43.50529" lon="6.90167">
        <ele>234.699097</ele>
        <time>2012-05-07T14:56:52+02:00</time>
      </trkpt>
      <trkpt lat="43.50529" lon="6.90169">
        <ele>235.179688</ele>
        <time>2012-05-07T14:56:55+02:00</time>
      </trkpt>
      <trkpt lat="43.50528" lon="6.90173">
        <ele>239.986206</ele>
        <time>2012-05-07T14:57:09+02:00</time>
      </trkpt>
      <trkpt lat="43.50527" lon="6.90175">
        <ele>243.35083</ele>
        <time>2012-05-07T14:57:24+02:00</time>
      </trkpt>
      <trkpt lat="43.50527" lon="6.90174">
        <ele>244.792847</ele>
        <time>2012-05-07T14:57:58+02:00</time>
      </trkpt>
      <trkpt lat="43.50524" lon="6.90175">
        <ele>247.196045</ele>
        <time>2012-05-07T14:58:09+02:00</time>
      </trkpt>
      <trkpt lat="43.50517" lon="6.90187">
        <ele>244.792847</ele>
        <time>2012-05-07T14:58:13+02:00</time>
      </trkpt>
      <trkpt lat="43.50518" lon="6.90203">
        <ele>241.908936</ele>
        <time>2012-05-07T14:58:16+02:00</time>
      </trkpt>
      <trkpt lat="43.50511" lon="6.90203">
        <ele>240.467041</ele>
        <time>2012-05-07T14:58:19+02:00</time>
      </trkpt>
      <trkpt lat="43.50508" lon="6.90187">
        <ele>239.024902</ele>
        <time>2012-05-07T14:58:22+02:00</time>
      </trkpt>
      <trkpt lat="43.50498" lon="6.90176">
        <ele>236.621704</ele>
        <time>2012-05-07T14:58:25+02:00</time>
      </trkpt>
      <trkpt lat="43.50493" lon="6.90175">
        <ele>235.179688</ele>
        <time>2012-05-07T14:58:26+02:00</time>
      </trkpt>
      <trkpt lat="43.50465" lon="6.9017">
        <ele>228.450439</ele>
        <time>2012-05-07T14:58:31+02:00</time>
      </trkpt>
      <trkpt lat="43.50446" lon="6.90158">
        <ele>224.124512</ele>
        <time>2012-05-07T14:58:35+02:00</time>
      </trkpt>
      <trkpt lat="43.50424" lon="6.90124">
        <ele>220.759888</ele>
        <time>2012-05-07T14:58:40+02:00</time>
      </trkpt>
      <trkpt lat="43.50406" lon="6.90076">
        <ele>216.43396</ele>
        <time>2012-05-07T14:58:46+02:00</time>
      </trkpt>
      <trkpt lat="43.50387" lon="6.90032">
        <ele>214.03064</ele>
        <time>2012-05-07T14:58:52+02:00</time>
      </trkpt>
      <trkpt lat="43.50378" lon="6.90019">
        <ele>213.069336</ele>
        <time>2012-05-07T14:58:54+02:00</time>
      </trkpt>
      <trkpt lat="43.5035" lon="6.89998">
        <ele>209.224121</ele>
        <time>2012-05-07T14:58:59+02:00</time>
      </trkpt>
      <trkpt lat="43.50335" lon="6.8999">
        <ele>207.301392</ele>
        <time>2012-05-07T14:59:02+02:00</time>
      </trkpt>
      <trkpt lat="43.5032" lon="6.89968">
        <ele>203.93689</ele>
        <time>2012-05-07T14:59:06+02:00</time>
      </trkpt>
      <trkpt lat="43.50313" lon="6.89951">
        <ele>201.533569</ele>
        <time>2012-05-07T14:59:09+02:00</time>
      </trkpt>
      <trkpt lat="43.50307" lon="6.89952">
        <ele>199.61084</ele>
        <time>2012-05-07T14:59:12+02:00</time>
      </trkpt>
      <trkpt lat="43.50304" lon="6.89961">
        <ele>198.649536</ele>
        <time>2012-05-07T14:59:15+02:00</time>
      </trkpt>
      <trkpt lat="43.50285" lon="6.89986">
        <ele>194.804321</ele>
        <time>2012-05-07T14:59:21+02:00</time>
      </trkpt>
      <trkpt lat="43.50287" lon="6.89995">
        <ele>198.168945</ele>
        <time>2012-05-07T14:59:24+02:00</time>
      </trkpt>
      <trkpt lat="43.50286" lon="6.89996">
        <ele>200.572266</ele>
        <time>2012-05-07T14:59:30+02:00</time>
      </trkpt>
      <trkpt lat="43.50287" lon="6.89998">
        <ele>199.61084</ele>
        <time>2012-05-07T14:59:35+02:00</time>
      </trkpt>
      <trkpt lat="43.50301" lon="6.90014">
        <ele>198.649536</ele>
        <time>2012-05-07T14:59:41+02:00</time>
      </trkpt>
      <trkpt lat="43.50311" lon="6.90033">
        <ele>196.246338</ele>
        <time>2012-05-07T14:59:44+02:00</time>
      </trkpt>
      <trkpt lat="43.50326" lon="6.9007">
        <ele>193.843018</ele>
        <time>2012-05-07T14:59:48+02:00</time>
      </trkpt>
      <trkpt lat="43.50332" lon="6.90091">
        <ele>192.401123</ele>
        <time>2012-05-07T14:59:50+02:00</time>
      </trkpt>
      <trkpt lat="43.50331" lon="6.90134">
        <ele>187.11377</ele>
        <time>2012-05-07T14:59:55+02:00</time>
      </trkpt>
      <trkpt lat="43.5033" lon="6.90184">
        <ele>180.865234</ele>
        <time>2012-05-07T15:00:00+02:00</time>
      </trkpt>
      <trkpt lat="43.50331" lon="6.90201">
        <ele>177.981201</ele>
        <time>2012-05-07T15:00:02+02:00</time>
      </trkpt>
      <trkpt lat="43.50339" lon="6.90221">
        <ele>173.655273</ele>
        <time>2012-05-07T15:00:06+02:00</time>
      </trkpt>
      <trkpt lat="43.5034" lon="6.90243">
        <ele>170.771362</ele>
        <time>2012-05-07T15:00:09+02:00</time>
      </trkpt>
      <trkpt lat="43.50345" lon="6.90261">
        <ele>168.368042</ele>
        <time>2012-05-07T15:00:12+02:00</time>
      </trkpt>
      <trkpt lat="43.50348" lon="6.90268">
        <ele>167.887329</ele>
        <time>2012-05-07T15:00:13+02:00</time>
      </trkpt>
      <trkpt lat="43.50354" lon="6.90305">
        <ele>164.522705</ele>
        <time>2012-05-07T15:00:18+02:00</time>
      </trkpt>
      <trkpt lat="43.50352" lon="6.90318">
        <ele>162.600098</ele>
        <time>2012-05-07T15:00:20+02:00</time>
      </trkpt>
      <trkpt lat="43.50349" lon="6.9033">
        <ele>160.196899</ele>
        <time>2012-05-07T15:00:23+02:00</time>
      </trkpt>
      <trkpt lat="43.50354" lon="6.90322">
        <ele>156.351562</ele>
        <time>2012-05-07T15:00:27+02:00</time>
      </trkpt>
      <trkpt lat="43.50369" lon="6.90305">
        <ele>152.986938</ele>
        <time>2012-05-07T15:00:31+02:00</time>
      </trkpt>
      <trkpt lat="43.50388" lon="6.90325">
        <ele>146.738403</ele>
        <time>2012-05-07T15:00:35+02:00</time>
      </trkpt>
      <trkpt lat="43.50378" lon="6.90345">
        <ele>139.528442</ele>
        <time>2012-05-07T15:00:38+02:00</time>
      </trkpt>
      <trkpt lat="43.50364" lon="6.90374">
        <ele>135.683105</ele>
        <time>2012-05-07T15:00:42+02:00</time>
      </trkpt>
      <trkpt lat="43.50356" lon="6.90394">
        <ele>131.837891</ele>
        <time>2012-05-07T15:00:45+02:00</time>
      </trkpt>
      <trkpt lat="43.50353" lon="6.90406">
        <ele>131.3573</ele>
        <time>2012-05-07T15:00:47+02:00</time>
      </trkpt>
      <trkpt lat="43.50355" lon="6.90415">
        <ele>131.837891</ele>
        <time>2012-05-07T15:00:51+02:00</time>
      </trkpt>
      <trkpt lat="43.50359" lon="6.90419">
        <ele>133.760498</ele>
        <time>2012-05-07T15:00:57+02:00</time>
      </trkpt>
      <trkpt lat="43.5036" lon="6.90424">
        <ele>135.202515</ele>
        <time>2012-05-07T15:01:01+02:00</time>
      </trkpt>
      <trkpt lat="43.50358" lon="6.9043">
        <ele>135.683105</ele>
        <time>2012-05-07T15:01:07+02:00</time>
      </trkpt>
      <trkpt lat="43.50355" lon="6.90434">
        <ele>135.683105</ele>
        <time>2012-05-07T15:01:16+02:00</time>
      </trkpt>
      <trkpt lat="43.50351" lon="6.90432">
        <ele>138.086548</ele>
        <time>2012-05-07T15:01:29+02:00</time>
      </trkpt>
      <trkpt lat="43.50345" lon="6.90431">
        <ele>145.296387</ele>
        <time>2012-05-07T15:01:43+02:00</time>
      </trkpt>
      <trkpt lat="43.50344" lon="6.90436">
        <ele>144.815796</ele>
        <time>2012-05-07T15:01:46+02:00</time>
      </trkpt>
      <trkpt lat="43.50337" lon="6.90457">
        <ele>141.931763</ele>
        <time>2012-05-07T15:01:51+02:00</time>
      </trkpt>
      <trkpt lat="43.50328" lon="6.9049">
        <ele>139.528442</ele>
        <time>2012-05-07T15:01:56+02:00</time>
      </trkpt>
      <trkpt lat="43.50328" lon="6.905">
        <ele>139.528442</ele>
        <time>2012-05-07T15:01:57+02:00</time>
      </trkpt>
      <trkpt lat="43.50319" lon="6.9056">
        <ele>138.567261</ele>
        <time>2012-05-07T15:02:03+02:00</time>
      </trkpt>
      <trkpt lat="43.5032" lon="6.90597">
        <ele>139.047852</ele>
        <time>2012-05-07T15:02:08+02:00</time>
      </trkpt>
      <trkpt lat="43.50321" lon="6.90602">
        <ele>138.567261</ele>
        <time>2012-05-07T15:02:09+02:00</time>
      </trkpt>
      <trkpt lat="43.50322" lon="6.9061">
        <ele>138.567261</ele>
        <time>2012-05-07T15:02:11+02:00</time>
      </trkpt>
      <trkpt lat="43.50329" lon="6.90634">
        <ele>138.567261</ele>
        <time>2012-05-07T15:02:19+02:00</time>
      </trkpt>
      <trkpt lat="43.50332" lon="6.90642">
        <ele>138.567261</ele>
        <time>2012-05-07T15:02:22+02:00</time>
      </trkpt>
      <trkpt lat="43.50337" lon="6.90651">
        <ele>139.047852</ele>
        <time>2012-05-07T15:02:25+02:00</time>
      </trkpt>
      <trkpt lat="43.50342" lon="6.90674">
        <ele>139.528442</ele>
        <time>2012-05-07T15:02:32+02:00</time>
      </trkpt>
      <trkpt lat="43.50343" lon="6.90695">
        <ele>140.489868</ele>
        <time>2012-05-07T15:02:38+02:00</time>
      </trkpt>
      <trkpt lat="43.50346" lon="6.90713">
        <ele>141.45105</ele>
        <time>2012-05-07T15:02:43+02:00</time>
      </trkpt>
      <trkpt lat="43.50352" lon="6.90727">
        <ele>143.373657</ele>
        <time>2012-05-07T15:02:48+02:00</time>
      </trkpt>
      <trkpt lat="43.50359" lon="6.9073">
        <ele>144.335205</ele>
        <time>2012-05-07T15:02:53+02:00</time>
      </trkpt>
      <trkpt lat="43.50363" lon="6.90732">
        <ele>145.296387</ele>
        <time>2012-05-07T15:02:59+02:00</time>
      </trkpt>
      <trkpt lat="43.50368" lon="6.90736">
        <ele>145.7771</ele>
        <time>2012-05-07T15:03:03+02:00</time>
      </trkpt>
      <trkpt lat="43.5038" lon="6.90748">
        <ele>143.373657</ele>
        <time>2012-05-07T15:03:07+02:00</time>
      </trkpt>
      <trkpt lat="43.50395" lon="6.90774">
        <ele>143.373657</ele>
        <time>2012-05-07T15:03:12+02:00</time>
      </trkpt>
      <trkpt lat="43.50397" lon="6.90779">
        <ele>143.373657</ele>
        <time>2012-05-07T15:03:13+02:00</time>
      </trkpt>
      <trkpt lat="43.50404" lon="6.90805">
        <ele>141.931763</ele>
        <time>2012-05-07T15:03:17+02:00</time>
      </trkpt>
      <trkpt lat="43.50416" lon="6.90825">
        <ele>140.489868</ele>
        <time>2012-05-07T15:03:20+02:00</time>
      </trkpt>
      <trkpt lat="43.50431" lon="6.90838">
        <ele>140.489868</ele>
        <time>2012-05-07T15:03:23+02:00</time>
      </trkpt>
      <trkpt lat="43.50463" lon="6.90859">
        <ele>138.086548</ele>
        <time>2012-05-07T15:03:27+02:00</time>
      </trkpt>
      <trkpt lat="43.50489" lon="6.90874">
        <ele>131.3573</ele>
        <time>2012-05-07T15:03:31+02:00</time>
      </trkpt>
      <trkpt lat="43.50518" lon="6.90903">
        <ele>123.186157</ele>
        <time>2012-05-07T15:03:36+02:00</time>
      </trkpt>
      <trkpt lat="43.50548" lon="6.90905">
        <ele>117.898804</ele>
        <time>2012-05-07T15:03:40+02:00</time>
      </trkpt>
      <trkpt lat="43.5057" lon="6.90894">
        <ele>113.092285</ele>
        <time>2012-05-07T15:03:43+02:00</time>
      </trkpt>
      <trkpt lat="43.50585" lon="6.90884">
        <ele>110.688843</ele>
        <time>2012-05-07T15:03:45+02:00</time>
      </trkpt>
      <trkpt lat="43.50607" lon="6.9087">
        <ele>109.246948</ele>
        <time>2012-05-07T15:03:48+02:00</time>
      </trkpt>
      <trkpt lat="43.50622" lon="6.90874">
        <ele>104.921021</ele>
        <time>2012-05-07T15:03:52+02:00</time>
      </trkpt>
      <trkpt lat="43.50625" lon="6.90876">
        <ele>103.959717</ele>
        <time>2012-05-07T15:03:53+02:00</time>
      </trkpt>
      <trkpt lat="43.50643" lon="6.90891">
        <ele>102.037109</ele>
        <time>2012-05-07T15:03:57+02:00</time>
      </trkpt>
      <trkpt lat="43.50666" lon="6.90904">
        <ele>99.1530762</ele>
        <time>2012-05-07T15:04:01+02:00</time>
      </trkpt>
      <trkpt lat="43.50686" lon="6.90908">
        <ele>97.7111816</ele>
        <time>2012-05-07T15:04:04+02:00</time>
      </trkpt>
      <trkpt lat="43.50703" lon="6.90901">
        <ele>95.7884521</ele>
        <time>2012-05-07T15:04:07+02:00</time>
      </trkpt>
      <trkpt lat="43.50735" lon="6.90903">
        <ele>92.904541</ele>
        <time>2012-05-07T15:04:12+02:00</time>
      </trkpt>
      <trkpt lat="43.50764" lon="6.90917">
        <ele>89.539917</ele>
        <time>2012-05-07T15:04:16+02:00</time>
      </trkpt>
      <trkpt lat="43.50783" lon="6.90923">
        <ele>86.6560059</ele>
        <time>2012-05-07T15:04:19+02:00</time>
      </trkpt>
      <trkpt lat="43.50806" lon="6.90917">
        <ele>84.7333984</ele>
        <time>2012-05-07T15:04:22+02:00</time>
      </trkpt>
      <trkpt lat="43.5082" lon="6.90915">
        <ele>83.2913818</ele>
        <time>2012-05-07T15:04:24+02:00</time>
      </trkpt>
      <trkpt lat="43.50843" lon="6.90923">
        <ele>76.5621338</ele>
        <time>2012-05-07T15:04:28+02:00</time>
      </trkpt>
      <trkpt lat="43.50843" lon="6.90943">
        <ele>72.2362061</ele>
        <time>2012-05-07T15:04:30+02:00</time>
      </trkpt>
      <trkpt lat="43.50843" lon="6.90952">
        <ele>70.3134766</ele>
        <time>2012-05-07T15:04:31+02:00</time>
      </trkpt>
      <trkpt lat="43.50843" lon="6.90968">
        <ele>66.9489746</ele>
        <time>2012-05-07T15:04:33+02:00</time>
      </trkpt>
      <trkpt lat="43.50857" lon="6.90996">
        <ele>60.2197266</ele>
        <time>2012-05-07T15:04:38+02:00</time>
      </trkpt>
      <trkpt lat="43.50853" lon="6.91003">
        <ele>56.8551025</ele>
        <time>2012-05-07T15:04:40+02:00</time>
      </trkpt>
      <trkpt lat="43.50848" lon="6.91005">
        <ele>55.4130859</ele>
        <time>2012-05-07T15:04:41+02:00</time>
      </trkpt>
      <trkpt lat="43.50833" lon="6.91021">
        <ele>48.2033691</ele>
        <time>2012-05-07T15:04:46+02:00</time>
      </trkpt>
      <trkpt lat="43.50834" lon="6.91025">
        <ele>47.2418213</ele>
        <time>2012-05-07T15:04:47+02:00</time>
      </trkpt>
      <trkpt lat="43.50841" lon="6.91055">
        <ele>48.2033691</ele>
        <time>2012-05-07T15:04:53+02:00</time>
      </trkpt>
      <trkpt lat="43.50844" lon="6.91067">
        <ele>53.4904785</ele>
        <time>2012-05-07T15:04:58+02:00</time>
      </trkpt>
      <trkpt lat="43.50848" lon="6.9107">
        <ele>54.932373</ele>
        <time>2012-05-07T15:05:01+02:00</time>
      </trkpt>
      <trkpt lat="43.5086" lon="6.91069">
        <ele>57.3358154</ele>
        <time>2012-05-07T15:05:08+02:00</time>
      </trkpt>
      <trkpt lat="43.50869" lon="6.91065">
        <ele>58.77771</ele>
        <time>2012-05-07T15:05:15+02:00</time>
      </trkpt>
      <trkpt lat="43.50869" lon="6.91066">
        <ele>60.2197266</ele>
        <time>2012-05-07T15:05:21+02:00</time>
      </trkpt>
      <trkpt lat="43.5087" lon="6.91066">
        <ele>62.6229248</ele>
        <time>2012-05-07T15:05:34+02:00</time>
      </trkpt>
      <trkpt lat="43.5087" lon="6.91066">
        <ele>63.1036377</ele>
        <time>2012-05-07T15:05:39+02:00</time>
      </trkpt>
      <trkpt lat="43.5087" lon="6.91064">
        <ele>64.0650635</ele>
        <time>2012-05-07T15:05:47+02:00</time>
      </trkpt>
      <trkpt lat="43.5087" lon="6.91065">
        <ele>64.5456543</ele>
        <time>2012-05-07T15:05:59+02:00</time>
      </trkpt>
      <trkpt lat="43.50871" lon="6.91064">
        <ele>65.5070801</ele>
        <time>2012-05-07T15:06:14+02:00</time>
      </trkpt>
      <trkpt lat="43.50871" lon="6.91064">
        <ele>65.9876709</ele>
        <time>2012-05-07T15:06:33+02:00</time>
      </trkpt>
      <trkpt lat="43.50871" lon="6.91065">
        <ele>65.5070801</ele>
        <time>2012-05-07T15:06:39+02:00</time>
      </trkpt>
      <trkpt lat="43.50872" lon="6.91065">
        <ele>65.5070801</ele>
        <time>2012-05-07T15:06:48+02:00</time>
      </trkpt>
      <trkpt lat="43.50886" lon="6.91064">
        <ele>65.0263672</ele>
        <time>2012-05-07T15:06:54+02:00</time>
      </trkpt>
      <trkpt lat="43.50903" lon="6.91066">
        <ele>65.5070801</ele>
        <time>2012-05-07T15:06:59+02:00</time>
      </trkpt>
      <trkpt lat="43.5092" lon="6.91068">
        <ele>66.4682617</ele>
        <time>2012-05-07T15:07:04+02:00</time>
      </trkpt>
      <trkpt lat="43.50941" lon="6.91071">
        <ele>66.4682617</ele>
        <time>2012-05-07T15:07:09+02:00</time>
      </trkpt>
      <trkpt lat="43.50947" lon="6.91072">
        <ele>66.4682617</ele>
        <time>2012-05-07T15:07:10+02:00</time>
      </trkpt>
      <trkpt lat="43.50974" lon="6.91069">
        <ele>63.5843506</ele>
        <time>2012-05-07T15:07:14+02:00</time>
      </trkpt>
      <trkpt lat="43.51008" lon="6.91064">
        <ele>59.7391357</ele>
        <time>2012-05-07T15:07:19+02:00</time>
      </trkpt>
      <trkpt lat="43.51016" lon="6.91051">
        <ele>57.3358154</ele>
        <time>2012-05-07T15:07:22+02:00</time>
      </trkpt>
      <trkpt lat="43.51017" lon="6.91043">
        <ele>57.3358154</ele>
        <time>2012-05-07T15:07:24+02:00</time>
      </trkpt>
      <trkpt lat="43.51025" lon="6.91019">
        <ele>57.8165283</ele>
        <time>2012-05-07T15:07:32+02:00</time>
      </trkpt>
      <trkpt lat="43.51035" lon="6.90999">
        <ele>57.3358154</ele>
        <time>2012-05-07T15:07:37+02:00</time>
      </trkpt>
      <trkpt lat="43.51063" lon="6.90978">
        <ele>54.932373</ele>
        <time>2012-05-07T15:07:42+02:00</time>
      </trkpt>
      <trkpt lat="43.51084" lon="6.90976">
        <ele>53.4904785</ele>
        <time>2012-05-07T15:07:45+02:00</time>
      </trkpt>
      <trkpt lat="43.51104" lon="6.90963">
        <ele>51.5678711</ele>
        <time>2012-05-07T15:07:49+02:00</time>
      </trkpt>
      <trkpt lat="43.51114" lon="6.9094">
        <ele>51.5678711</ele>
        <time>2012-05-07T15:07:53+02:00</time>
      </trkpt>
      <trkpt lat="43.51144" lon="6.90911">
        <ele>51.0871582</ele>
        <time>2012-05-07T15:08:00+02:00</time>
      </trkpt>
      <trkpt lat="43.51181" lon="6.90882">
        <ele>50.6065674</ele>
        <time>2012-05-07T15:08:07+02:00</time>
      </trkpt>
      <trkpt lat="43.51212" lon="6.90858">
        <ele>49.6452637</ele>
        <time>2012-05-07T15:08:13+02:00</time>
      </trkpt>
      <trkpt lat="43.51231" lon="6.90858">
        <ele>48.2033691</ele>
        <time>2012-05-07T15:08:17+02:00</time>
      </trkpt>
      <trkpt lat="43.51249" lon="6.90858">
        <ele>47.2418213</ele>
        <time>2012-05-07T15:08:21+02:00</time>
      </trkpt>
      <trkpt lat="43.51252" lon="6.90854">
        <ele>47.2418213</ele>
        <time>2012-05-07T15:08:22+02:00</time>
      </trkpt>
      <trkpt lat="43.51261" lon="6.90841">
        <ele>47.2418213</ele>
        <time>2012-05-07T15:08:27+02:00</time>
      </trkpt>
      <trkpt lat="43.51261" lon="6.90837">
        <ele>47.7225342</ele>
        <time>2012-05-07T15:08:31+02:00</time>
      </trkpt>
      <trkpt lat="43.51263" lon="6.90838">
        <ele>48.68396</ele>
        <time>2012-05-07T15:08:49+02:00</time>
      </trkpt>
      <trkpt lat="43.51265" lon="6.90817">
        <ele>49.1645508</ele>
        <time>2012-05-07T15:08:54+02:00</time>
      </trkpt>
      <trkpt lat="43.51267" lon="6.90802">
        <ele>48.2033691</ele>
        <time>2012-05-07T15:08:56+02:00</time>
      </trkpt>
      <trkpt lat="43.51275" lon="6.90776">
        <ele>46.2806396</ele>
        <time>2012-05-07T15:09:00+02:00</time>
      </trkpt>
      <trkpt lat="43.51277" lon="6.90757">
        <ele>42.9160156</ele>
        <time>2012-05-07T15:09:04+02:00</time>
      </trkpt>
      <trkpt lat="43.5128" lon="6.90746">
        <ele>41.473999</ele>
        <time>2012-05-07T15:09:06+02:00</time>
      </trkpt>
      <trkpt lat="43.51292" lon="6.90738">
        <ele>40.9934082</ele>
        <time>2012-05-07T15:09:10+02:00</time>
      </trkpt>
      <trkpt lat="43.5131" lon="6.90732">
        <ele>40.0321045</ele>
        <time>2012-05-07T15:09:15+02:00</time>
      </trkpt>
      <trkpt lat="43.51326" lon="6.90738">
        <ele>39.0706787</ele>
        <time>2012-05-07T15:09:19+02:00</time>
      </trkpt>
      <trkpt lat="43.51332" lon="6.90742">
        <ele>38.5900879</ele>
        <time>2012-05-07T15:09:20+02:00</time>
      </trkpt>
      <trkpt lat="43.51344" lon="6.9075">
        <ele>37.1480713</ele>
        <time>2012-05-07T15:09:22+02:00</time>
      </trkpt>
      <trkpt lat="43.51377" lon="6.90755">
        <ele>36.6674805</ele>
        <time>2012-05-07T15:09:27+02:00</time>
      </trkpt>
      <trkpt lat="43.51396" lon="6.90753">
        <ele>36.6674805</ele>
        <time>2012-05-07T15:09:30+02:00</time>
      </trkpt>
      <trkpt lat="43.51433" lon="6.90729">
        <ele>34.744873</ele>
        <time>2012-05-07T15:09:37+02:00</time>
      </trkpt>
      <trkpt lat="43.51439" lon="6.90725">
        <ele>34.2641602</ele>
        <time>2012-05-07T15:09:38+02:00</time>
      </trkpt>
      <trkpt lat="43.51471" lon="6.90703">
        <ele>34.744873</ele>
        <time>2012-05-07T15:09:43+02:00</time>
      </trkpt>
      <trkpt lat="43.515" lon="6.90693">
        <ele>34.2641602</ele>
        <time>2012-05-07T15:09:47+02:00</time>
      </trkpt>
      <trkpt lat="43.51529" lon="6.90688">
        <ele>32.3415527</ele>
        <time>2012-05-07T15:09:51+02:00</time>
      </trkpt>
      <trkpt lat="43.51565" lon="6.90696">
        <ele>31.380127</ele>
        <time>2012-05-07T15:09:56+02:00</time>
      </trkpt>
      <trkpt lat="43.51578" lon="6.90706">
        <ele>30.4188232</ele>
        <time>2012-05-07T15:09:58+02:00</time>
      </trkpt>
      <trkpt lat="43.51624" lon="6.90744">
        <ele>28.4962158</ele>
        <time>2012-05-07T15:10:06+02:00</time>
      </trkpt>
      <trkpt lat="43.51636" lon="6.90751">
        <ele>28.0155029</ele>
        <time>2012-05-07T15:10:08+02:00</time>
      </trkpt>
      <trkpt lat="43.51663" lon="6.90765">
        <ele>28.0155029</ele>
        <time>2012-05-07T15:10:12+02:00</time>
      </trkpt>
      <trkpt lat="43.51683" lon="6.90782">
        <ele>28.0155029</ele>
        <time>2012-05-07T15:10:17+02:00</time>
      </trkpt>
      <trkpt lat="43.5169" lon="6.90788">
        <ele>28.0155029</ele>
        <time>2012-05-07T15:10:19+02:00</time>
      </trkpt>
      <trkpt lat="43.51698" lon="6.90793">
        <ele>29.9381104</ele>
        <time>2012-05-07T15:10:22+02:00</time>
      </trkpt>
      <trkpt lat="43.51707" lon="6.90806">
        <ele>29.4575195</ele>
        <time>2012-05-07T15:10:28+02:00</time>
      </trkpt>
      <trkpt lat="43.51719" lon="6.90816">
        <ele>28.9769287</ele>
        <time>2012-05-07T15:10:33+02:00</time>
      </trkpt>
      <trkpt lat="43.51726" lon="6.90818">
        <ele>27.5349121</ele>
        <time>2012-05-07T15:10:37+02:00</time>
      </trkpt>
      <trkpt lat="43.51736" lon="6.90811">
        <ele>25.6123047</ele>
        <time>2012-05-07T15:10:43+02:00</time>
      </trkpt>
      <trkpt lat="43.51744" lon="6.90796">
        <ele>26.5736084</ele>
        <time>2012-05-07T15:10:47+02:00</time>
      </trkpt>
      <trkpt lat="43.51753" lon="6.90773">
        <ele>30.4188232</ele>
        <time>2012-05-07T15:10:51+02:00</time>
      </trkpt>
      <trkpt lat="43.51757" lon="6.90768">
        <ele>32.3415527</ele>
        <time>2012-05-07T15:10:52+02:00</time>
      </trkpt>
      <trkpt lat="43.51782" lon="6.90755">
        <ele>38.5900879</ele>
        <time>2012-05-07T15:10:56+02:00</time>
      </trkpt>
      <trkpt lat="43.51827" lon="6.90759">
        <ele>45.3192139</ele>
        <time>2012-05-07T15:11:02+02:00</time>
      </trkpt>
      <trkpt lat="43.51839" lon="6.90768">
        <ele>44.838623</ele>
        <time>2012-05-07T15:11:04+02:00</time>
      </trkpt>
      <trkpt lat="43.51859" lon="6.90783">
        <ele>40.0321045</ele>
        <time>2012-05-07T15:11:08+02:00</time>
      </trkpt>
      <trkpt lat="43.5189" lon="6.90824">
        <ele>26.0928955</ele>
        <time>2012-05-07T15:11:16+02:00</time>
      </trkpt>
      <trkpt lat="43.51915" lon="6.90846">
        <ele>23.2089844</ele>
        <time>2012-05-07T15:11:21+02:00</time>
      </trkpt>
      <trkpt lat="43.51924" lon="6.90855">
        <ele>22.2475586</ele>
        <time>2012-05-07T15:11:23+02:00</time>
      </trkpt>
      <trkpt lat="43.51938" lon="6.90873">
        <ele>20.8056641</ele>
        <time>2012-05-07T15:11:26+02:00</time>
      </trkpt>
      <trkpt lat="43.51953" lon="6.90903">
        <ele>18.8830566</ele>
        <time>2012-05-07T15:11:30+02:00</time>
      </trkpt>
      <trkpt lat="43.51975" lon="6.9093">
        <ele>16.9604492</ele>
        <time>2012-05-07T15:11:35+02:00</time>
      </trkpt>
      <trkpt lat="43.51999" lon="6.9094">
        <ele>16.9604492</ele>
        <time>2012-05-07T15:11:40+02:00</time>
      </trkpt>
      <trkpt lat="43.52023" lon="6.90939">
        <ele>17.4411621</ele>
        <time>2012-05-07T15:11:45+02:00</time>
      </trkpt>
      <trkpt lat="43.52044" lon="6.90942">
        <ele>17.4411621</ele>
        <time>2012-05-07T15:11:49+02:00</time>
      </trkpt>
      <trkpt lat="43.52063" lon="6.90935">
        <ele>17.4411621</ele>
        <time>2012-05-07T15:11:53+02:00</time>
      </trkpt>
      <trkpt lat="43.52067" lon="6.90935">
        <ele>16.9604492</ele>
        <time>2012-05-07T15:11:54+02:00</time>
      </trkpt>
      <trkpt lat="43.52086" lon="6.90932">
        <ele>16.9604492</ele>
        <time>2012-05-07T15:11:58+02:00</time>
      </trkpt>
      <trkpt lat="43.52097" lon="6.90926">
        <ele>16.9604492</ele>
        <time>2012-05-07T15:12:03+02:00</time>
      </trkpt>
      <trkpt lat="43.52107" lon="6.90928">
        <ele>17.4411621</ele>
        <time>2012-05-07T15:12:07+02:00</time>
      </trkpt>
      <trkpt lat="43.5213" lon="6.90927">
        <ele>16.4797363</ele>
        <time>2012-05-07T15:12:13+02:00</time>
      </trkpt>
      <trkpt lat="43.52146" lon="6.90923">
        <ele>16.4797363</ele>
        <time>2012-05-07T15:12:17+02:00</time>
      </trkpt>
      <trkpt lat="43.52154" lon="6.90927">
        <ele>15.5184326</ele>
        <time>2012-05-07T15:12:19+02:00</time>
      </trkpt>
      <trkpt lat="43.52166" lon="6.90933">
        <ele>16.4797363</ele>
        <time>2012-05-07T15:12:22+02:00</time>
      </trkpt>
      <trkpt lat="43.52187" lon="6.90941">
        <ele>16.4797363</ele>
        <time>2012-05-07T15:12:27+02:00</time>
      </trkpt>
      <trkpt lat="43.52204" lon="6.90939">
        <ele>17.4411621</ele>
        <time>2012-05-07T15:12:31+02:00</time>
      </trkpt>
      <trkpt lat="43.5224" lon="6.90936">
        <ele>16.4797363</ele>
        <time>2012-05-07T15:12:39+02:00</time>
      </trkpt>
      <trkpt lat="43.52272" lon="6.90932">
        <ele>16.4797363</ele>
        <time>2012-05-07T15:12:46+02:00</time>
      </trkpt>
      <trkpt lat="43.52303" lon="6.90942">
        <ele>15.9990234</ele>
        <time>2012-05-07T15:12:52+02:00</time>
      </trkpt>
      <trkpt lat="43.52313" lon="6.90947">
        <ele>15.9990234</ele>
        <time>2012-05-07T15:12:54+02:00</time>
      </trkpt>
      <trkpt lat="43.52341" lon="6.90979">
        <ele>15.0377197</ele>
        <time>2012-05-07T15:13:01+02:00</time>
      </trkpt>
      <trkpt lat="43.52364" lon="6.91007">
        <ele>14.076416</ele>
        <time>2012-05-07T15:13:07+02:00</time>
      </trkpt>
      <trkpt lat="43.52368" lon="6.91012">
        <ele>14.076416</ele>
        <time>2012-05-07T15:13:08+02:00</time>
      </trkpt>
      <trkpt lat="43.52386" lon="6.91029">
        <ele>14.5570068</ele>
        <time>2012-05-07T15:13:13+02:00</time>
      </trkpt>
      <trkpt lat="43.52415" lon="6.91045">
        <ele>14.076416</ele>
        <time>2012-05-07T15:13:20+02:00</time>
      </trkpt>
      <trkpt lat="43.52431" lon="6.91062">
        <ele>14.076416</ele>
        <time>2012-05-07T15:13:25+02:00</time>
      </trkpt>
      <trkpt lat="43.52443" lon="6.91078">
        <ele>14.076416</ele>
        <time>2012-05-07T15:13:29+02:00</time>
      </trkpt>
    </trkseg>
  </trk>
</gpx>